[[{"header":{"parameterUnit":"m.s-1","parameterCategory":1,"la1":30.6,"la2":29.2853,"lo1":-89.7004,"lo2":-87.6739,"dy":0.0162,"dx":0.0183,"nx":112,"ny":82,"refTime":"2025-05-30T12:00:00:Z","depth":0,"parameterNumber":2,"parameterNumberName":"U-component_of_WINDS"},"data":[0.0,0.0,0.0,0.0,0.0,0.0,0.0,0.0,0.0,0.0,0.0,0.0,0.0,0.0,0.0,0.0,0.0,0.0,0.0,0.0,0.0,0.0,0.0,0.0,0.0,0.0,0.0,0.0,0.0,0.0,0.0,0.0,0.0,0.0,0.0,0.0,0.0,0.0,0.0,0.0,0.0,0.0,0.0,0.0,0.0,0.0,0.0,0.0,0.0,0.0,0.0,0.0,0.0,0.0,0.0,0.0,0.0,0.0,0.0,0.0,0.0,0.0,0.0,0.0,0.0,0.0,0.0,0.0,0.0,0.0,0.0,0.0,0.0,0.0,0.0,0.0,0.0,0.0,0.0,0.0,0.0,0.0,0.0,0.0,0.0,0.0,0.0,0.0,0.0,0.0,0.0,0.6042,0.7352,0.8145,0.831,0.6639,0.5615,0.5709,0.0,0.0,0.0,0.0,0.0,0.0,0.0,0.0,0.0,0.0,0.0,0.0,0.0,0.0,0.0,0.0,0.0,0.0,0.0,0.0,0.0,0.0,0.0,0.0,0.0,0.0,0.0,0.0,0.0,0.0,0.0,0.0,0.0,0.0,0.0,0.0,0.0,0.0,0.0,0.0,0.0,0.0,0.0,0.0,0.0,0.0,0.0,0.0,0.0,0.0,0.0,0.0,0.0,0.0,0.0,0.0,0.0,0.0,0.0,0.0,0.0,0.0,0.0,0.0,0.0,0.0,0.0,0.0,0.0,0.0,0.0,0.0,0.0,0.0,0.0,0.0,0.0,0.0,0.0,0.0,0.0,0.0,0.0,0.0,0.0,0.0,0.0,0.0,0.0,0.0,0.0,0.0,0.0,0.0,0.0,0.0,0.0,0.0,0.0,0.0,0.0,0.0,0.0,0.0,0.4055,0.6297,0.743,0.8249,0.8829,0.7061,0.6146,0.6654,0.0,0.0,0.0,0.0,0.0,0.0,0.0,0.0,0.0,0.0,0.0,0.0,0.0,0.0,0.0,0.0,0.0,0.0,0.0,0.0,0.0,0.0,0.0,0.0,0.0,0.0,0.0,0.0,0.0,0.0,0.0,0.0,0.0,0.0,0.0,0.0,0.0,0.0,0.0,0.0,0.0,0.0,0.0,0.0,0.0,0.0,0.0,0.0,0.0,0.0,0.0,0.0,0.0,0.0,0.0,0.0,0.0,0.0,0.0,0.0,0.0,0.0,0.0,0.0,0.0,0.0,0.0,0.0,0.0,0.0,0.0,0.0,0.0,0.0,0.0,0.0,0.0,0.0,0.0,0.0,0.0,0.0,0.0,0.0,0.0,0.0,0.0,0.0,0.0,0.0,0.0,0.0,0.0,0.0,0.0,0.0,0.0,0.0,0.0,0.0,0.0,0.0,0.0,0.3646,0.4695,0.5936,0.7388,0.8452,0.8914,0.7305,0.6452,0.688,0.5392,0.0,0.0,0.0,0.0,0.0,0.0,0.0,0.0,0.0,0.0,0.0,0.0,0.0,0.0,0.0,0.0,0.0,0.0,0.0,0.0,0.0,0.0,0.0,0.0,0.0,0.0,0.0,0.0,0.0,0.0,0.0,0.0,0.0,0.0,0.0,0.0,0.0,0.0,0.0,0.0,0.0,0.0,0.0,0.0,0.0,0.0,0.0,0.0,0.0,0.0,0.0,0.0,0.0,0.0,0.0,0.0,0.0,0.0,0.0,0.0,0.0,0.0,0.0,0.0,0.0,0.0,0.0,0.0,0.0,0.0,0.0,0.0,0.0,0.0,0.0,0.0,0.0,0.0,0.0,0.0,0.0,0.0,0.0,0.0,0.0,0.0,0.0,0.0,0.0,0.0,0.0,0.0,0.0,0.0,0.0,0.0,0.0,0.0,0.0,0.0,0.0,0.0,0.4335,0.5221,0.5588,0.7104,0.8273,0.8728,0.7228,0.6444,0.6871,0.5392,0.0,0.0,0.0,0.0,0.0,0.0,0.0,0.0,0.0,0.0,0.0,0.0,0.0,0.0,0.0,0.0,0.0,0.0,0.0,0.0,0.0,0.0,0.0,0.0,0.0,0.0,0.0,0.0,0.0,0.0,0.0,0.0,0.0,0.0,0.0,0.0,0.0,0.0,0.0,0.0,0.0,0.0,0.0,0.0,0.0,0.0,0.0,0.0,0.0,0.0,0.0,0.0,0.0,0.0,0.0,0.0,0.0,0.0,0.0,0.0,0.0,0.0,0.0,0.0,0.0,0.0,0.0,0.0,0.0,0.0,0.0,0.0,0.0,0.0,0.0,0.0,0.0,0.0,0.0,0.0,0.0,0.0,0.0,0.0,0.0,0.0,0.0,0.0,0.0,0.0,0.0,0.0,0.0,0.0,0.0,0.0,0.0,0.0,0.0,0.0,0.0,0.0,0.4376,0.5183,0.5636,0.6429,0.7308,0.8262,0.6636,0.5946,0.6849,0.5392,0.0,0.0,0.0,0.0,0.0,0.0,0.0,0.0,0.0,0.0,0.0,0.0,0.0,0.0,0.0,0.0,0.0,0.0,0.0,0.0,0.0,0.0,0.0,0.0,0.0,0.0,0.0,0.0,0.0,0.0,0.0,0.0,0.0,0.0,0.0,0.0,0.0,0.0,0.0,0.0,0.0,0.0,0.0,0.0,0.0,0.0,0.0,0.0,0.0,0.0,0.0,0.0,0.0,0.0,0.0,0.0,0.0,0.0,0.0,0.0,0.0,0.0,0.0,0.0,0.0,0.0,0.0,0.0,0.0,0.0,0.0,0.0,0.0,0.0,0.0,0.0,0.0,0.0,0.0,0.0,0.0,0.0,0.0,0.0,0.0,0.0,0.0,0.0,0.0,0.0,0.0,0.0,0.0,0.0,0.0,0.0,0.0,0.0,0.0,0.0,0.0,0.0,0.4276,0.5059,0.0,0.627,0.7306,0.8106,0.6647,0.6005,0.6727,0.0,0.0,0.0,0.0,0.0,0.0,0.0,0.0,0.0,0.0,0.0,0.0,0.0,0.0,0.0,0.0,0.0,0.0,0.0,0.0,0.0,0.0,0.0,0.0,0.0,0.0,0.0,0.0,0.0,0.0,0.0,0.0,0.0,0.0,0.0,0.0,0.0,0.0,0.0,0.0,0.0,0.0,0.0,0.0,0.0,0.0,0.0,0.0,0.0,0.0,0.0,0.0,0.0,0.0,0.0,0.0,0.0,0.0,0.0,0.0,0.0,0.0,0.0,0.0,0.0,0.0,0.0,0.0,0.0,0.0,0.0,0.0,0.0,0.0,0.0,0.0,0.0,0.0,0.0,0.0,0.0,0.0,0.0,0.0,0.0,0.0,0.0,0.0,0.0,0.0,0.0,0.0,0.0,0.0,0.0,0.0,0.0,0.0,0.0,0.0,0.0,0.0,0.3338,0.4586,0.5381,0.0,0.6258,0.7275,0.8036,0.6588,0.5942,0.6655,0.0,0.0,0.0,0.0,0.0,0.0,0.0,0.0,0.0,0.0,0.0,0.0,0.0,0.0,0.0,0.0,0.0,0.0,0.0,0.0,0.0,0.0,0.0,0.0,0.0,0.0,0.0,0.0,0.0,0.0,0.0,0.0,0.0,0.0,0.0,0.0,0.0,0.0,0.0,0.0,0.0,0.0,0.0,0.0,0.0,0.0,0.0,0.0,0.0,0.0,0.0,0.0,0.0,0.0,0.0,0.0,0.0,0.0,0.0,0.0,0.0,0.0,0.0,0.0,0.0,0.0,0.0,0.0,0.0,0.0,0.0,0.0,0.0,0.0,0.0,0.0,0.0,0.0,0.0,0.0,0.0,0.0,0.0,0.0,0.0,0.0,0.0,0.0,0.0,0.0,0.0,0.0,0.0,0.0,0.0,0.0,0.0,0.0,0.0,0.0,0.0,0.0,0.3983,0.5412,0.6252,0.5842,0.6335,0.7071,0.8015,0.6377,0.5694,0.0,0.0,0.0,0.0,0.0,0.0,0.0,0.0,0.0,0.0,0.0,0.0,0.0,0.0,0.0,0.0,0.0,0.0,0.0,0.0,0.0,0.0,0.0,0.0,0.0,0.0,0.0,0.0,0.0,0.0,0.0,0.0,0.0,0.0,0.0,0.0,0.0,0.0,0.0,0.0,0.0,0.0,0.0,0.0,0.0,0.0,0.0,0.0,0.0,0.0,0.0,0.0,0.0,0.0,0.0,0.0,0.0,0.0,0.0,0.0,0.0,0.0,0.0,0.0,0.0,0.0,0.0,0.0,0.0,0.0,0.0,0.0,0.0,0.0,0.0,0.0,0.0,0.0,0.0,0.0,0.0,0.0,0.0,0.0,0.0,0.0,0.0,0.0,0.0,0.0,0.0,0.0,0.0,0.0,0.0,0.0,0.0,0.0,0.0,0.0,0.0,0.0,0.0,0.3983,0.5412,0.6231,0.5784,0.6306,0.7043,0.7887,0.6323,0.5638,0.644,0.0,0.0,0.0,0.0,0.0,0.0,0.0,0.0,0.0,0.0,0.0,0.0,0.0,0.0,0.0,0.0,0.0,0.0,0.0,0.0,0.0,0.0,0.0,0.0,0.0,0.0,0.0,0.0,0.0,0.0,0.0,0.0,0.0,0.0,0.0,0.0,0.0,0.0,0.0,0.0,0.0,0.0,0.0,0.0,0.0,0.0,0.0,0.0,0.0,0.0,0.0,0.0,0.0,0.0,0.0,0.0,0.0,0.0,0.0,0.0,0.0,0.0,0.0,0.0,0.0,0.0,0.0,0.0,0.0,0.0,0.0,0.0,0.0,0.0,0.0,0.0,0.0,0.0,0.0,0.0,0.0,0.0,0.0,0.0,0.0,0.0,0.0,0.0,0.0,0.0,0.0,0.0,0.0,0.0,0.0,0.0,0.0,0.0,0.0,0.0,0.0,0.0,0.4755,0.6007,0.6633,0.6012,0.6394,0.7018,0.7827,0.6626,0.6013,0.6491,0.0,0.0,0.0,0.0,0.0,0.0,0.0,0.0,0.0,0.0,0.0,0.0,0.0,0.0,0.0,0.0,0.0,0.0,0.0,0.0,0.0,0.0,0.0,0.0,0.0,0.0,0.0,0.0,0.0,0.0,0.0,0.0,0.0,0.0,0.0,0.0,0.0,0.0,0.0,0.0,0.0,0.0,0.0,0.0,0.0,0.0,0.0,0.0,0.0,0.0,0.0,0.0,0.0,0.0,0.0,0.0,0.0,0.0,0.0,0.0,0.0,0.0,0.0,0.0,0.0,0.0,0.0,0.0,0.0,0.0,0.0,0.0,0.0,0.0,0.0,0.0,0.0,0.0,0.0,0.0,0.0,0.0,0.0,0.0,0.0,0.0,0.0,0.0,0.0,0.0,0.0,0.0,0.0,0.0,0.0,0.0,0.0,0.0,0.0,0.0,0.0,0.0,0.575,0.6933,0.7352,0.6366,0.6607,0.7111,0.7806,0.7081,0.6621,0.6656,0.0,0.0,0.0,0.0,0.0,0.0,0.0,0.0,0.0,0.0,0.0,0.0,0.0,0.0,0.0,0.0,0.0,0.0,0.0,0.0,0.0,0.0,0.0,0.0,0.0,0.0,0.0,0.0,0.0,0.0,0.0,0.0,0.0,0.0,0.0,0.0,0.0,0.0,0.0,0.0,0.0,0.0,0.0,0.0,0.0,0.0,0.0,0.0,0.0,0.0,0.0,0.0,0.0,0.0,0.0,0.0,0.0,0.0,0.0,0.0,0.7704,0.0,0.0,0.0,0.0,0.0,0.0,0.0,0.0,0.0,0.0,0.0,0.0,0.0,0.0,0.0,0.0,0.0,0.0,0.0,0.0,0.0,0.0,0.0,0.0,0.0,0.0,0.0,0.0,0.0,0.0,0.0,0.0,0.0,0.0,0.0,0.0,0.0,0.0,0.0,0.0,0.0,0.4553,0.6916,0.794,0.6182,0.7069,0.7747,0.7592,0.6979,0.6538,0.639,0.637,0.0,0.0,0.0,0.0,0.0,0.0,0.0,0.0,0.0,0.0,0.0,0.0,0.0,0.0,0.0,0.0,0.0,0.0,0.0,0.0,0.0,0.0,0.0,0.0,0.0,0.0,0.0,0.0,0.0,0.0,0.0,0.0,0.0,0.0,0.0,0.0,0.0,0.0,0.0,0.0,0.0,0.0,0.0,0.0,0.0,0.0,0.0,0.0,0.0,0.0,0.0,0.0,0.0,0.0,0.0,0.0,0.0,0.0,0.0,0.0,0.85,0.0,0.0,0.0,0.0,0.0,0.0,0.0,0.0,0.0,0.0,0.0,0.0,0.0,0.0,0.0,0.0,0.0,0.0,0.0,0.0,0.0,0.0,0.0,0.0,0.0,0.0,0.0,0.0,0.0,0.0,0.0,0.0,0.0,0.0,0.0,0.0,0.0,0.0,0.0,0.0,0.5689,0.7504,0.8443,0.7495,0.7695,0.7903,0.7885,0.7366,0.693,0.67,0.6634,0.0,0.0,0.0,0.0,0.0,0.0,0.0,0.0,0.0,0.0,0.0,0.0,0.0,0.0,0.0,0.0,0.0,0.0,0.0,0.0,0.0,0.0,0.0,0.0,0.0,0.0,0.0,0.0,0.0,0.0,0.0,0.0,0.0,0.0,0.0,0.0,0.0,0.0,0.0,0.0,0.0,0.0,0.0,0.0,0.0,0.0,0.0,0.0,0.0,0.0,0.0,0.0,0.0,1.3958,1.2267,1.1253,1.1974,1.2234,1.2091,1.2034,1.1025,0.9435,0.0,0.0,0.0,0.0,0.0,0.0,0.0,0.0,0.0,0.0,0.0,0.0,0.0,0.0,0.0,0.0,0.0,0.0,0.0,0.0,0.0,0.0,0.0,0.0,0.0,0.9344,0.9694,0.0,0.0,0.0,0.0,0.0,0.0,0.0,0.0,0.0,0.0,0.0,0.0,0.7187,0.8351,0.9077,0.8954,0.8518,0.8246,0.8224,0.7856,0.7456,0.7031,0.6906,0.6546,0.0,0.0,0.0,0.0,0.0,0.0,0.0,0.0,0.0,0.0,0.0,0.0,0.0,0.0,0.0,0.0,0.0,0.0,0.0,0.0,0.0,0.0,0.0,0.0,0.0,0.0,0.0,0.0,0.0,0.0,0.0,0.0,0.5414,0.4704,0.0,0.0,0.0,0.0,0.0,0.0,0.0,0.0,0.0,0.0,0.0,0.0,0.0,0.7905,0.7551,1.3333,1.6549,1.7071,1.7195,1.6846,1.6106,1.6844,1.7053,1.6814,1.6804,0.0,1.043,1.0575,0.0,0.0,0.0,0.0,0.0,0.0,0.0,0.0,0.0,0.0,0.0,0.0,0.0,0.0,0.0,0.0,0.0,0.0,0.0,0.0,0.0,0.0,1.0372,0.9913,0.9973,1.0038,0.0,0.8636,0.7746,0.7381,0.6218,0.0,0.0,0.0,0.0,0.0,0.0,0.0,0.6708,0.9131,1.0271,0.8886,0.9726,0.9719,0.8087,0.8094,0.7764,0.6732,0.7388,0.7261,0.6027,0.627,0.0,0.0,0.0,0.0,0.0,0.0,0.0,0.0,0.0,0.0,0.0,0.0,0.0,0.0,0.0,0.0,0.0,0.0,0.0,0.0,0.0,0.0,0.0,0.0,0.0,0.0,0.0,0.0,0.0,0.5724,0.6083,0.5311,0.6237,0.6412,0.0,0.0,0.0,0.0,0.0,0.0,0.0,0.0,0.0,1.1145,0.9675,0.9906,1.208,1.4783,1.6859,1.8259,1.7806,1.7555,1.7445,1.7457,1.7448,1.7401,1.7186,1.6027,1.4306,1.4014,1.1838,0.8646,0.0,0.0,0.0,0.0,1.0367,1.0626,1.1805,1.2946,0.0,1.4029,0.0,0.0,0.0,0.0,0.0,0.0,0.0,0.0,0.0,0.0,1.2197,1.1912,1.2128,1.2197,1.1435,1.0815,1.0154,0.0,0.885,0.7909,0.5646,0.0,0.0,0.0,0.0,0.0,0.8417,1.0016,1.0993,1.0709,1.0622,1.0242,0.9432,0.8571,0.7988,0.7797,0.742,0.7121,0.6904,0.6547,0.6224,0.0,0.0,0.0,0.0,0.0,0.0,0.0,0.0,0.0,0.0,0.0,0.0,0.0,0.0,0.0,0.0,0.0,0.0,0.0,0.0,0.0,0.0,0.0,0.0,0.0,0.0,0.0,0.0,0.6362,0.7052,0.6349,0.7687,0.809,0.0,0.0,0.0,0.0,0.0,0.0,1.0052,1.0854,1.2062,1.3685,1.211,1.2718,1.577,1.6118,1.7229,1.9094,1.7993,1.7634,1.7899,1.7451,1.7209,1.7249,1.7105,1.7105,1.7228,1.6799,1.4569,1.1529,1.2138,1.2424,1.2633,1.3593,1.385,1.3811,1.446,1.5838,1.7122,1.5919,0.0,1.6005,1.2864,0.0,0.0,0.0,0.0,1.1683,1.2802,1.3598,1.4054,1.3775,1.3959,1.3929,1.2921,1.2697,1.227,0.0,1.0781,1.0196,0.7675,0.0,0.0,0.0,0.0,0.945,1.0117,1.0894,1.1589,1.2149,1.1411,1.0762,1.0497,0.914,0.839,0.8635,0.7503,0.7119,0.7753,0.685,0.6196,0.5913,0.0,0.0,0.0,0.0,0.0,0.0,0.0,0.0,0.0,0.0,0.0,0.0,0.0,0.0,0.0,0.0,0.0,0.0,0.0,0.0,0.0,0.0,0.0,0.0,0.0,0.0,0.0,0.0,0.0,0.7869,0.9542,0.0,0.0,0.0,0.0,1.0065,1.203,1.295,1.2364,1.4813,1.6185,1.6031,1.6898,1.7289,1.712,1.8303,1.8978,1.9101,1.8521,1.8267,1.8249,1.7933,1.7599,1.743,1.7978,1.7899,1.7404,1.7617,1.7127,1.6278,1.6703,1.6863,1.6874,1.6812,1.6802,1.6833,1.727,1.7468,1.7836,1.9452,1.9034,1.7746,1.6845,1.5535,0.0,0.0,1.5642,1.6129,1.6026,1.6018,1.5906,1.526,1.4644,1.4183,1.4113,1.4106,1.3498,0.0,1.0566,0.9845,0.8859,0.0,0.8554,0.8615,0.9112,0.9854,1.091,1.1689,1.2164,1.2203,1.2151,1.1644,1.0493,0.9739,0.909,0.8546,0.7845,0.7692,0.8245,0.7605,0.7169,0.7026,0.5948,0.0,0.0,0.0,0.0,0.0,0.0,0.0,0.0,0.0,0.0,0.0,0.0,0.0,0.0,0.0,0.0,0.0,0.0,0.0,0.0,0.0,0.0,0.0,0.0,0.0,0.0,0.0,0.0,0.8336,1.0643,0.0,1.0486,1.1687,1.2334,1.175,1.4046,1.5377,1.5166,1.6322,1.7155,1.7483,1.7356,1.7502,1.789,1.8128,1.8219,1.8073,1.7332,1.7089,1.736,1.6934,1.6964,1.7449,1.7366,1.736,1.7463,1.7574,1.7647,1.7759,1.8216,1.7863,1.7221,1.8426,1.8527,1.8123,1.8933,1.9163,1.9115,1.9267,1.8664,1.7737,1.6935,1.6342,1.593,1.5985,1.6174,1.6496,1.7068,1.6902,1.6469,1.5967,1.5649,1.526,1.439,1.4544,1.4506,1.3328,1.2905,1.2311,1.0952,1.0705,1.0505,0.9972,1.0066,1.0503,1.132,1.1648,1.1819,1.1819,1.1819,1.1628,1.1197,0.9914,0.9185,0.9263,0.7992,0.7503,0.8079,0.7919,0.7326,0.6291,0.5821,0.52,0.0,0.0,0.0,0.0,0.0,0.0,0.0,0.0,0.0,0.0,0.0,0.0,0.0,0.0,0.0,0.0,0.0,0.0,0.0,0.0,0.0,0.0,0.0,0.0,0.0,0.0,1.0929,1.0452,1.2596,1.3772,1.2901,1.4204,1.4826,1.4263,1.6114,1.7208,1.7078,1.7414,1.782,1.817,1.7543,1.7454,1.7908,1.7713,1.7421,1.7034,1.6436,1.6318,1.6637,1.6275,1.6479,1.7034,1.6716,1.6752,1.707,1.707,1.7284,1.7659,1.8291,1.804,1.7477,1.8661,1.8819,1.8557,1.9546,1.9894,1.9823,1.9341,1.8857,1.835,1.7776,1.7592,1.7508,1.7394,1.736,1.7496,1.8182,1.7672,1.6928,1.6668,1.6281,1.574,1.4878,1.4978,1.5113,1.4727,1.4406,1.3827,1.2675,1.2516,1.2329,1.1704,1.1593,1.1763,1.2282,1.2103,1.1947,1.1947,1.1718,1.1608,1.1608,1.0194,0.9427,0.9684,0.8224,0.754,0.7912,0.7691,0.6937,0.5623,0.5335,0.5032,0.4703,0.0,0.0,0.0,0.0,0.0,0.0,0.0,0.0,0.0,0.0,0.0,0.0,0.0,0.0,0.0,0.0,0.0,0.0,0.0,0.0,0.0,0.0,0.0,1.0085,1.1849,1.3413,1.4194,1.5361,1.6393,1.7107,1.7074,1.7159,1.7543,1.8201,1.8413,1.7993,1.8297,1.833,1.8099,1.7821,1.7516,1.7199,1.7199,1.682,1.6194,1.6119,1.6069,1.6069,1.6156,1.615,1.615,1.6156,1.615,1.615,1.615,1.615,1.6275,1.7153,1.7666,1.79,1.7626,1.7747,1.8217,1.905,1.9558,1.9814,1.9814,1.9752,1.9639,1.9601,1.9486,1.9376,1.9376,1.9384,1.9376,1.9376,1.8398,1.7372,1.7372,1.6419,1.5536,1.566,1.5455,1.5322,1.5448,1.4803,1.4154,1.39,1.3835,1.382,1.382,1.3635,0.0,1.3757,1.3097,1.2592,1.2577,1.2013,1.1608,1.1593,1.0557,0.9842,0.9703,0.8564,0.787,0.7768,0.6955,0.6095,0.5224,0.4559,0.483,0.6085,0.0,0.0,0.0,0.0,0.0,0.0,0.0,0.0,0.0,0.0,0.0,0.0,0.0,0.0,0.0,0.0,0.0,0.0,0.0,0.0,0.0,0.0,1.1278,1.0313,1.2359,1.3985,1.4009,1.5443,1.6541,1.6733,1.6846,1.6919,1.6969,1.7571,1.7846,1.7636,1.7706,1.7754,1.7666,1.7277,1.7005,1.6928,1.6607,1.6312,1.6044,1.6044,1.5963,1.5887,1.5564,1.5379,1.5379,1.5,1.504,1.5379,1.5379,1.5608,1.5963,1.6704,1.7034,1.7153,1.7429,1.751,1.7551,1.7733,1.8047,1.8387,1.8387,1.857,1.8851,1.8798,1.8767,1.8743,1.8743,1.862,1.8574,1.8791,1.7754,1.6725,1.6979,1.6049,1.5165,1.518,1.512,1.5104,1.5134,1.4942,1.4811,1.4883,1.4432,1.4098,1.4098,1.3565,0.0,1.3216,1.3027,1.2716,1.2213,1.2,1.1708,1.1276,1.0556,0.9905,0.9435,0.8645,0.783,0.7035,0.6774,0.6253,0.5425,0.4808,0.4879,0.0,0.0,0.0,0.0,0.0,0.0,0.0,0.0,0.0,0.0,0.0,0.0,0.0,0.0,0.0,0.0,0.0,0.0,0.0,0.0,0.0,0.0,1.1905,1.2944,1.2661,1.3997,1.5015,1.5055,1.6055,1.6785,1.6951,1.7147,1.7194,1.7043,1.7411,1.7564,1.7429,1.7271,1.7153,1.707,1.6661,1.646,1.638,1.5957,1.5691,1.5635,1.5406,1.5266,1.5142,1.4909,1.4772,0.0,1.4444,1.449,1.4772,1.4772,1.4909,0.0,0.0,0.0,0.0,0.0,1.7034,1.6999,1.715,1.7358,1.7557,1.7557,1.772,1.7875,1.7875,1.7828,1.7781,1.7781,1.7787,1.7875,1.8014,1.7153,1.6317,1.6536,1.5599,1.4704,1.479,1.469,1.4603,1.4679,1.4634,0.0,1.4752,1.4548,1.4404,1.4492,1.3996,1.3697,1.3892,1.3601,1.3241,1.2834,1.2321,1.1865,1.1507,1.0745,0.0,0.0,0.0,0.8082,0.6543,0.6168,0.0,0.0,0.0,0.0,0.0,0.0,0.0,0.0,0.5915,0.5563,0.0,0.0,0.0,0.0,0.0,0.0,0.0,0.0,0.0,0.0,0.0,0.0,0.0,0.0,0.0,0.0,1.3347,1.4581,1.5707,1.5866,1.6073,1.663,1.6841,1.7048,1.7382,1.7496,1.7462,1.7347,1.7347,1.7264,1.7146,0.0,0.0,0.0,0.0,1.5818,1.5647,1.5244,1.5017,1.5011,1.4536,1.4299,1.4299,1.4258,1.4212,1.4212,1.4165,1.416,1.4212,1.4201,1.4206,1.4346,1.5277,1.5653,1.5786,1.6175,1.6386,1.6479,1.6905,0.0,0.0,1.7109,1.7047,1.6986,1.6986,1.6883,1.6786,1.6786,1.7008,1.7188,1.7188,1.6631,1.6056,1.6056,1.5188,1.4382,1.4484,1.4235,1.4039,1.4196,1.4111,1.3967,1.3967,1.4317,1.4634,1.4821,1.4658,1.4672,1.5086,1.4488,1.3972,1.3902,0.0,0.0,1.2019,1.11,1.0406,1.0164,0.9534,0.8326,0.6439,0.5612,0.5128,0.498,0.5917,0.716,0.8678,0.9088,0.9356,0.9374,0.601,0.5634,0.0,0.0,0.0,0.0,0.0,0.0,0.0,0.0,0.0,0.0,0.0,0.0,0.0,0.0,0.0,1.1594,1.3633,1.4884,1.5012,1.5393,1.5923,1.6687,1.6796,1.6841,1.6944,1.6686,1.6436,1.6281,1.6281,1.6244,1.6082,1.6044,1.578,1.5373,1.5334,1.5051,1.4577,1.449,1.4438,1.4438,0.0,0.0,1.4299,1.3889,1.3752,1.3705,1.3344,1.3387,1.3705,1.3605,1.3789,1.4066,1.4438,1.4863,1.5244,1.5334,1.5603,1.5963,1.6044,1.625,1.6484,1.6484,1.6642,1.6834,1.6834,1.6834,0.0,1.6786,1.6733,1.6637,1.6637,1.6262,1.5844,1.5844,1.5197,1.4533,1.4567,1.4184,1.3841,1.3881,1.3881,1.3841,1.3841,1.4124,1.4401,1.4571,1.4533,1.4603,1.4832,1.4734,1.4436,1.3937,1.367,1.3115,1.209,1.1612,1.0914,0.9862,0.8594,0.7707,0.7335,0.6716,0.6667,0.7339,0.7542,0.8158,0.916,0.8786,0.8597,0.8625,0.8519,0.8542,0.0,0.0,0.0,0.0,0.0,0.0,0.0,0.0,0.0,0.0,0.0,0.5247,0.9043,0.0,0.9386,1.2614,1.3999,1.4683,1.4809,1.5097,1.5472,1.6008,1.5864,1.5682,1.5543,1.5427,1.5299,1.517,1.517,1.5124,1.5045,1.5045,1.4954,1.4726,1.468,1.4582,1.4299,1.4077,1.3936,1.3936,1.3705,1.3568,1.3467,1.3238,1.3099,1.305,1.2822,1.2818,1.3045,1.2997,1.3089,1.3271,1.3372,1.3884,1.4542,1.4542,1.4863,1.5226,1.4994,1.5164,1.5511,1.5511,1.5588,1.5714,1.5958,1.5996,1.5952,1.5952,1.6014,1.6032,1.6032,1.58,1.5558,1.5558,1.4827,1.4169,1.4169,1.3849,1.3607,1.3607,1.3714,1.3788,1.3788,1.3947,1.4131,1.4369,1.4401,1.4504,1.477,1.4801,1.4682,1.438,1.3878,1.3288,1.2636,1.1743,1.0821,0.9956,0.9176,0.8531,0.8022,0.7444,0.7348,0.7783,0.8084,0.8816,0.9951,0.9673,0.9622,0.9755,1.0151,0.9961,0.0,0.0,0.0,0.0,0.0,0.0,0.0,0.0,0.5245,0.755,0.6745,0.6975,1.1339,1.0495,1.021,1.3602,1.4237,1.4417,1.4716,1.4766,1.4812,1.4994,1.4806,1.4571,1.4346,1.4422,1.4422,1.4299,1.4299,1.4299,1.4299,1.4299,1.4253,1.4165,1.4165,1.4118,1.4025,1.3615,1.343,1.343,1.3012,1.2783,1.2681,1.2681,1.2578,1.2475,1.2377,1.2328,1.2328,1.2328,1.2328,1.2426,1.2426,1.2895,1.3642,1.3784,1.4149,1.4525,1.4113,1.4247,1.452,1.452,1.4438,1.4414,1.484,1.4977,1.4971,1.4971,1.5232,1.5501,1.5501,1.545,1.5362,1.5246,1.4523,1.3833,1.3723,1.349,1.3282,1.3282,1.3465,1.3613,1.3613,1.3681,1.3841,1.4189,1.4261,1.439,1.4676,1.4707,1.4676,1.4637,1.3832,1.3185,1.2997,1.158,1.0516,1.0101,0.9932,0.9466,0.8629,0.8172,0.799,0.8039,0.8524,0.9347,1.0551,1.0653,1.0808,1.1022,1.1188,1.078,-0.0651,0.0197,0.2781,0.3956,0.412,0.5073,0.0,0.0,0.9147,1.1571,1.1909,1.2091,1.3114,1.2792,1.2648,1.3528,1.4059,1.4354,1.4305,1.4264,1.4222,1.3999,1.4316,1.4501,1.4501,1.4392,1.4346,1.4299,1.4299,1.4299,1.4299,1.4299,1.4118,1.3705,1.3658,1.3478,1.307,1.2871,1.2822,1.2822,1.2627,1.2529,1.2529,1.2529,1.2524,1.2475,1.1909,1.1665,1.1623,1.1623,1.1823,1.2126,1.2126,1.222,1.2412,1.3025,1.3637,1.4066,1.4019,1.3967,1.3909,1.3909,1.3831,1.371,1.3758,1.4134,1.4466,1.4466,1.4789,1.5153,1.5153,1.5371,1.5471,1.5036,1.469,1.4287,1.3871,1.3347,1.2972,1.2972,1.2972,1.3006,1.3006,1.3248,1.3588,1.3967,1.4183,1.4293,1.4358,1.4358,1.4287,1.4098,1.3776,1.3199,1.2314,1.1069,1.0268,1.0031,0.956,0.9298,0.928,0.9224,0.9337,0.9627,0.9703,0.9945,1.0322,1.057,1.0712,1.0767,1.1549,1.1545,0.3896,0.4269,0.0,0.0,0.7611,0.8102,1.0192,1.0437,1.0577,1.1908,1.2361,1.2638,1.2871,1.2768,1.2737,0.0,1.3142,1.3286,1.3238,1.3059,1.2899,1.2759,1.2696,1.2948,1.352,1.343,1.3377,1.3377,1.3281,1.3276,1.3372,1.3074,1.2832,1.2749,1.2393,1.2084,1.1787,1.1737,1.1692,1.1588,1.1538,1.1488,1.1388,1.1388,1.1338,1.1238,1.1032,1.0884,1.0838,1.0838,1.0939,1.1091,1.1091,1.1305,1.1723,1.2309,1.288,1.3251,1.2977,1.3021,1.3198,1.3198,1.3155,1.3213,1.352,1.3758,1.3947,1.3947,1.4087,1.4316,1.4599,1.4789,1.4841,1.4656,1.4293,1.3856,1.338,1.2962,1.2685,1.2685,1.2791,1.2902,1.2902,1.3006,1.3173,1.3452,1.3848,1.4137,1.4169,1.4137,1.3941,1.3393,1.3269,1.2771,1.1714,1.1178,1.0726,1.0359,1.017,1.0108,1.0155,1.0232,1.0212,1.0085,1.0101,1.0247,1.0524,1.0841,1.1228,1.169,1.2302,1.246,0.6623,0.0,0.0,0.9278,1.0073,1.053,1.0737,1.1099,1.1528,1.1888,1.22,1.2433,1.2472,1.248,0.0,1.248,1.248,1.2475,1.2363,1.2133,1.1963,1.1864,1.1566,1.1674,1.2309,1.2309,1.2206,1.2206,1.2112,1.2058,1.2157,1.1805,1.166,1.176,1.1301,1.1032,1.0969,1.0918,1.0867,1.0863,1.0761,1.0667,1.0657,1.0612,1.0415,1.0163,1.0163,1.0163,1.0163,1.0163,1.0265,1.0415,1.0415,1.0681,1.1108,1.1506,1.2049,1.2584,1.222,1.2304,1.2633,1.2633,1.2633,1.2681,1.3084,1.3276,1.3367,1.3367,1.3467,1.371,1.4093,1.4186,1.4123,1.3871,1.3569,1.3207,1.2629,1.2452,1.2395,1.2395,1.2544,1.2685,1.2685,1.2756,1.2873,1.3025,1.3446,1.3802,1.3835,1.3729,1.3433,1.2826,1.272,1.2383,1.1595,1.1406,1.1137,1.0826,1.0735,1.0717,1.0717,1.0869,1.0784,1.0451,1.0498,1.0633,1.0817,1.121,1.1725,1.2305,1.2955,1.3256,0.0,0.0,0.9112,0.8979,1.0331,1.1747,1.1761,1.2125,1.2477,1.2456,1.251,1.251,1.2524,1.248,1.248,1.248,1.248,1.2412,1.207,1.2016,1.1864,1.1462,1.1416,1.1316,0.0,1.1065,1.1065,1.1065,1.0918,1.0868,1.0868,1.0864,1.0817,1.0864,1.0813,1.0817,1.0817,1.0665,1.0793,1.1079,1.0633,1.0593,1.0862,1.057,1.0115,0.9614,0.9614,0.9614,0.9614,0.9614,0.9913,1.0415,1.0415,1.0419,1.0415,1.0466,1.1137,1.2126,1.2076,1.2126,1.2121,1.2121,1.2121,1.2121,1.2126,1.2447,1.2812,1.2812,1.3213,1.3615,1.3615,1.361,1.3388,1.2472,1.2537,1.2606,1.174,1.1859,1.2108,1.2108,1.2113,1.2108,1.2108,1.2449,1.2739,1.2908,1.3088,1.3232,1.3232,1.3012,1.2733,1.2443,1.2288,1.2168,1.2085,1.1601,1.128,1.1268,1.092,1.0717,1.08,1.0943,1.1031,1.1069,1.1069,1.1075,1.1106,1.1685,1.2,1.2026,1.3291,1.386,0.0,0.0,0.9121,1.0161,1.0935,1.1478,1.1478,1.158,1.1723,1.1723,1.1474,1.1301,1.1301,1.1182,1.1028,1.1028,1.1101,1.1116,1.1002,1.0791,1.0639,1.049,1.0226,0.0,0.0,0.0,0.0,1.0767,1.0614,1.0564,1.0665,1.0316,1.0163,1.0265,0.9913,0.9765,0.9871,0.9821,0.9929,1.0193,0.9862,0.9643,0.9484,0.9381,0.9122,0.8784,0.8784,0.8784,0.8784,0.8784,0.8886,0.9089,0.919,0.935,0.9614,0.9714,1.0222,1.0889,1.1314,1.1678,1.1972,1.1877,1.1823,1.1873,1.1927,1.2017,1.2107,1.2309,1.2407,1.255,1.2972,1.3069,1.301,1.2684,1.2494,1.2236,1.1651,1.1621,1.17,1.17,1.1926,1.2108,1.2108,1.2222,1.2443,1.2832,1.3035,1.3104,1.3006,1.2762,1.255,1.2407,1.2371,1.2258,1.2108,1.1916,1.1819,1.1819,1.1734,1.1705,1.1733,1.1882,1.183,1.1512,1.1583,1.1616,1.1616,1.2289,1.2786,1.316,1.4067,1.4499,0.738,0.8457,0.8797,1.0136,1.0573,1.06,1.06,1.0808,1.0927,1.0843,1.0578,1.0382,1.025,0.9914,0.9718,0.998,1.0084,1.0176,1.0277,1.0098,0.9832,0.9521,0.9208,0.0,0.0,0.0,0.0,1.0012,0.9917,0.9914,1.0083,0.9779,0.9567,0.9509,0.9425,0.9195,0.8755,0.8984,0.902,0.8844,0.8824,0.861,0.8177,0.814,0.8011,0.7849,0.7812,0.7777,0.7774,0.7987,0.8093,0.8093,0.8415,0.8682,0.8949,0.8998,0.9406,0.9917,1.0494,1.1112,1.1573,1.1418,1.1519,1.1723,1.1773,1.1778,1.1723,1.1927,1.1877,1.1923,1.2295,1.2388,1.2377,1.2285,1.2084,1.1774,1.1363,1.131,1.1324,1.1479,1.17,1.192,1.2077,1.2108,1.2252,1.2656,1.2785,1.289,1.2965,1.2685,1.2437,1.233,1.23,1.2258,1.2144,1.2108,1.2108,1.2144,1.2216,1.2282,1.2282,1.2473,1.2424,1.2055,1.2129,1.2203,1.2203,1.2851,1.3363,1.3709,1.4472,1.4801,0.7342,0.7837,0.8262,0.9003,0.9295,0.9413,0.9413,0.9865,1.0226,0.9941,0.9788,0.9632,0.0,0.0,0.8614,0.9271,0.943,0.9553,0.9853,0.9773,0.9402,0.0,0.0,0.0,0.0,0.0,0.0,0.8838,0.0,0.8837,0.9111,0.9085,0.8931,0.8545,0.9207,0.8974,0.7625,0.8286,0.8167,0.7327,0.766,0.7588,0.7071,0.6982,0.6877,0.6855,0.6709,0.6621,0.6675,0.7209,0.7475,0.7529,0.8136,0.835,0.8337,0.839,0.8699,0.9208,0.971,1.0383,1.1019,1.0804,1.1162,1.1623,1.1623,1.1673,1.1673,1.1723,1.1723,1.1673,1.1723,1.1723,1.1634,1.1365,1.1319,1.1194,1.0952,1.0865,1.0997,1.1362,1.1479,1.1627,1.2035,1.2174,1.2246,1.2365,1.2407,1.2544,1.3022,1.2679,1.2335,1.2204,1.2144,1.2144,1.221,1.2144,1.2144,1.221,1.233,1.2407,1.2407,1.2597,1.2709,1.2709,1.2709,1.2709,1.2739,1.3378,1.3709,1.3742,1.4472,1.4801,0.7614,0.8376,0.8927,0.9159,0.9232,0.9291,0.9357,0.9325,0.9222,0.9237,0.8216,0.745,0.0,0.0,0.0,0.7867,0.8376,0.0,0.8435,0.8399,0.0,0.0,0.0,0.7521,0.7472,0.7383,0.0,0.0,0.7773,0.7695,0.7757,0.7942,0.7957,0.7841,0.8021,0.8047,0.7921,0.8346,0.8304,0.7792,0.7912,0.7638,0.713,0.7073,0.6959,0.674,0.6691,0.6667,0.6665,0.6837,0.6895,0.6953,0.7714,0.7833,0.7664,0.8291,0.8501,0.8431,0.8421,0.9194,1.0127,0.9976,1.0285,1.0757,1.0858,1.1116,1.1423,1.1623,1.1628,1.1573,1.1673,1.1723,1.1701,1.1751,1.1286,1.0873,1.0899,1.0642,1.0472,1.0582,1.1105,1.1627,1.2035,1.2174,1.2204,1.2252,1.233,1.2443,1.2544,1.2478,1.2335,1.2204,1.2174,1.2174,1.2144,1.2108,1.2108,1.2108,1.2294,1.2407,1.2407,1.2597,1.2709,1.2709,1.2709,1.2838,1.3057,1.3501,1.3842,1.4157,1.4613,1.4801,0.7385,0.7912,0.829,0.829,0.8346,0.8341,0.82,0.8,0.7599,0.7033,0.6104,0.0,0.0,0.0,0.0,0.0,0.0,0.0,0.8112,0.7934,0.7702,0.0,0.7117,0.0,0.6806,0.6713,0.6707,0.0,0.7191,0.7507,0.7608,0.7743,0.7682,0.7536,0.7847,0.7908,0.7785,0.7653,0.7449,0.7186,0.7186,0.6934,0.6448,0.6373,0.6212,0.5979,0.0,0.5932,0.5932,0.6226,0.6284,0.6404,0.7121,0.7224,0.71,0.7804,0.7961,0.7821,0.7884,0.8368,0.8988,0.9197,0.9614,1.0087,1.0395,1.071,1.0964,1.1423,1.1473,1.1427,1.1523,1.1578,1.1628,1.1773,1.126,1.0772,1.1095,1.0573,1.0098,1.0283,1.0959,1.1584,1.1811,1.1993,1.2174,1.2174,1.2216,1.2264,1.2264,1.2294,1.2252,1.218,1.2174,1.2138,1.2144,1.2108,1.2144,1.2228,1.2335,1.2407,1.2443,1.2597,1.2709,1.2709,1.2709,1.2867,1.3182,1.3535,1.3921,1.4293,1.4644,1.4801,0.7028,0.7085,0.7085,0.7085,0.7198,0.7131,0.6638,0.642,0.592,0.4497,0.0,0.0,0.3599,0.0,0.4716,0.6246,0.0,0.7363,0.8029,0.7726,0.7329,0.6951,0.6585,0.6276,0.5963,0.5923,0.5933,0.5957,0.6859,0.753,0.769,0.7791,0.7646,0.7321,0.7842,0.7907,0.726,0.6679,0.6284,0.6147,0.6147,0.5947,0.5613,0.5483,0.5357,0.5152,0.503,0.0,0.4977,0.5513,0.5691,0.5752,0.6358,0.6571,0.6623,0.7137,0.7311,0.7346,0.7757,0.7901,0.8005,0.8521,0.9037,0.9562,1.0032,1.0297,1.0502,1.1015,1.1221,1.1322,1.1322,1.1423,1.1523,1.1678,1.121,1.0904,1.1407,1.0577,0.9897,1.022,1.0921,1.1442,1.1479,1.1811,1.2108,1.2108,1.2108,1.2108,1.2108,1.2138,1.2174,1.2108,1.2108,1.2108,1.2174,1.2144,1.2186,1.2335,1.2377,1.2443,1.2473,1.2627,1.2709,1.2709,1.2709,1.2908,1.3257,1.3568,1.3947,1.4358,1.4644,1.4801,0.7071,0.7085,0.7085,0.7085,0.7139,0.6964,0.6334,0.5854,0.0,0.0,0.0,0.1992,0.3208,0.2788,0.0,0.5025,0.0,0.0,0.0,0.0,0.608,0.0,0.0,0.0,0.0,0.0,0.0,0.0,0.0,0.6527,0.6278,0.6546,0.6576,0.6408,0.6346,0.6282,0.6152,0.6022,0.5954,0.5954,0.5954,0.5888,0.5822,0.5657,0.5576,0.5508,0.5358,0.0,0.5284,0.5277,0.5207,0.5272,0.5853,0.5874,0.5864,0.6956,0.7299,0.719,0.7696,0.7901,0.7901,0.8005,0.8471,0.8932,0.9037,0.9718,1.0399,1.0553,1.0913,1.1322,1.1322,1.1423,1.1523,1.1678,1.1429,1.1257,1.1471,1.0792,1.0233,1.0273,1.0697,1.1105,1.1442,1.1811,1.2108,1.2108,1.2108,1.2108,1.2108,1.2108,1.2108,1.2108,1.2108,1.2108,1.2108,1.2108,1.2108,1.215,1.23,1.2407,1.2407,1.2597,1.2709,1.2709,1.2709,1.3006,1.3602,1.3669,1.4046,1.4707,1.477,1.4801,0.6154,0.6154,0.6154,0.6154,0.6154,0.5839,0.4461,0.0,0.0,0.0,0.0,0.0663,0.1794,0.0,0.0,0.0,0.0,0.0,0.0,0.0,0.0,0.0,0.0,0.0,0.0,0.0,0.0,0.0,0.0,0.5718,0.6167,0.5911,0.5684,0.5617,0.5082,0.4747,0.4747,0.515,0.535,0.535,0.5688,0.5822,0.5751,0.5602,0.5478,0.5484,0.5341,0.0,0.5362,0.5292,0.5223,0.5153,0.5415,0.5279,0.5197,0.6442,0.6748,0.6744,0.7617,0.7901,0.7901,0.7901,0.8106,0.8418,0.8725,0.9145,0.9614,0.9928,1.0395,1.0812,1.0812,1.1217,1.1623,1.1673,1.1733,1.1574,1.0994,1.0749,1.0479,1.0064,1.0322,1.0731,1.1105,1.1516,1.1847,1.2071,1.2108,1.2108,1.2108,1.2108,1.2108,1.2108,1.2108,1.2108,1.2108,1.2108,1.2108,1.2138,1.2252,1.2324,1.2437,1.255,1.2633,1.2709,1.2867,1.3201,1.3709,1.3914,1.4273,1.4801,1.4801,1.4801,0.5324,0.5279,0.5279,0.5279,0.5279,0.4761,0.2735,0.2657,0.0,0.0,0.0,-0.0023,0.0579,0.0,0.0,0.0,0.0,0.0,0.0,0.0,0.0,0.0,0.0,0.0,0.0,0.0,0.0,0.0,0.0,0.0,0.6017,0.5286,0.4889,0.5022,0.4082,0.3612,0.3747,0.4215,0.4482,0.4548,0.5087,0.5335,0.5163,0.5054,0.5071,0.5173,0.499,0.0,0.0,0.5326,0.518,0.504,0.5009,0.4783,0.465,0.5745,0.6108,0.6257,0.731,0.7788,0.7845,0.7901,0.7901,0.8005,0.8468,0.8672,0.8879,0.9298,0.9825,1.0241,1.0348,1.0909,1.1523,1.1723,1.1927,1.1769,1.068,1.0685,1.0666,0.9839,1.0019,1.0395,1.0731,1.118,1.1627,1.1926,1.2035,1.2108,1.2108,1.2108,1.2108,1.2108,1.2108,1.2108,1.2108,1.2108,1.2108,1.2174,1.221,1.2282,1.2473,1.2508,1.255,1.2709,1.2965,1.3263,1.3602,1.398,1.4351,1.4676,1.477,1.4801,0.5289,0.5279,0.5279,0.5279,0.5279,0.4711,0.2361,0.0,0.0,0.0,0.0138,0.0453,0.0588,0.0,0.0,0.0,0.0,0.0,0.0,0.0,0.0,0.0,0.0,0.0,0.0,0.0,0.0,0.0,0.0,0.0,0.4948,0.4288,0.4157,0.4625,0.3752,0.3418,0.3756,0.3485,0.3417,0.3619,0.3687,0.3766,0.3857,0.3662,0.3921,0.4577,0.4368,0.0,0.0,0.5087,0.4906,0.4892,0.4569,0.4378,0.4321,0.5004,0.546,0.5959,0.6699,0.7289,0.7726,0.7845,0.7901,0.7901,0.7952,0.8365,0.883,0.8879,0.9246,0.9769,1.0245,1.0553,1.0905,1.1673,1.1972,1.1891,1.1035,1.0873,1.0666,0.9839,1.0019,1.0322,1.0361,1.0992,1.151,1.1553,1.1853,1.2108,1.2108,1.2108,1.2108,1.2108,1.2108,1.2108,1.2108,1.2108,1.2108,1.2108,1.2174,1.2246,1.2407,1.2473,1.255,1.2709,1.2739,1.2896,1.3257,1.3602,1.3947,1.4358,1.4644,1.4801,0.4232,0.4298,0.4298,0.4298,0.4231,0.3438,0.0778,0.0,0.1856,-0.1208,-0.0905,-0.02,-0.0499,-0.1442,-0.148,0.0,0.0,0.0,0.0,0.0,0.0,0.0,0.0,0.0,0.0,0.0,0.0,0.0,0.0,0.0,0.3823,0.3688,0.3688,0.3955,0.3087,0.2532,0.2487,0.2747,0.2746,0.268,0.3136,0.3341,0.3419,0.3243,0.3538,0.4225,0.4016,0.0,0.0,0.4969,0.482,0.4686,0.4566,0.4403,0.4285,0.4971,0.5542,0.6039,0.675,0.7351,0.7842,0.7898,0.7901,0.7901,0.7901,0.8058,0.8262,0.8262,0.8679,0.9246,0.9769,1.0596,1.1368,1.1773,1.1977,1.1905,1.1076,1.0901,1.0666,0.9839,0.9832,1.0024,1.0244,1.0582,1.0954,1.1442,1.1627,1.1811,1.2071,1.2108,1.2108,1.2108,1.2108,1.2108,1.2108,1.2108,1.2108,1.2108,1.2144,1.218,1.2288,1.2365,1.2478,1.2585,1.2861,1.3057,1.3182,1.3535,1.3921,1.4293,1.4454,1.4613,0.3453,0.3611,0.3638,0.3584,0.3464,0.258,0.0,0.0,0.1042,-0.2316,-0.1657,-0.0724,-0.1444,-0.2346,-0.2432,0.0,0.0,0.0,0.0,0.0,0.0,0.0,0.0,0.0,0.0,0.0,0.0,0.0,0.0,0.0,0.0,0.3357,0.3409,0.338,0.2589,0.2032,0.1845,0.2224,0.2222,0.1903,0.241,0.2616,0.2516,0.2415,0.2762,0.3493,0.3348,0.0,0.0,0.4564,0.4545,0.454,0.4499,0.4365,0.4223,0.4789,0.5272,0.5767,0.6532,0.7133,0.7625,0.7845,0.7901,0.7901,0.7901,0.7901,0.7901,0.7901,0.8471,0.9141,0.951,1.0647,1.1673,1.1773,1.1923,1.1803,1.1031,1.0857,1.0666,0.9839,0.9683,0.9797,1.0059,1.0205,1.0505,1.1067,1.1367,1.159,1.1889,1.2035,1.2108,1.2108,1.2108,1.2108,1.2108,1.2108,1.2108,1.2108,1.2108,1.2144,1.2204,1.2288,1.2365,1.2473,1.2814,1.2982,1.2982,1.3297,1.3648,1.3947,1.415,1.4447,0.3357,0.3594,0.3742,0.3638,0.34,0.2494,0.0,0.0211,0.04,-0.2424,-0.1657,-0.0855,-0.1984,-0.2644,-0.273,-0.1911,-0.1505,0.0,0.0,0.0,0.0,0.0,0.0,0.0,0.0,0.0,0.0,0.0,0.0,0.0,0.0,0.3227,0.3185,0.3094,0.2385,0.2099,0.2407,0.2096,0.1725,0.1417,0.1417,0.1275,0.0944,0.0943,0.1296,0.0,0.0,0.0,0.0,0.3744,0.3985,0.4498,0.4307,0.4139,0.4024,0.4139,0.4522,0.5007,0.5764,0.6416,0.7017,0.7678,0.7901,0.7901,0.7901,0.7901,0.7901,0.7901,0.8732,0.9614,0.9614,1.0541,1.1523,1.1523,1.1728,1.1656,1.0895,1.0816,1.0666,0.9839,0.9683,0.9683,0.9723,1.0024,1.0283,1.0322,1.0992,1.1516,1.1516,1.1847,1.2108,1.2108,1.2108,1.2108,1.2108,1.2108,1.2108,1.2108,1.2108,1.2144,1.2204,1.2204,1.2246,1.2407,1.2407,1.2443,1.2502,1.2791,1.2994,1.3126,1.3789,1.4356,0.1772,0.1768,0.1855,0.172,0.0956,-0.0228,-0.2048,-0.1319,-0.1006,-0.3745,-0.2998,-0.2351,-0.396,-0.4395,-0.3869,-0.1918,-0.1497,0.0,0.0,0.0,0.0,0.0,0.0,0.0,0.0,0.0,0.0,0.0,0.0,0.0,0.0,0.3496,0.3318,0.3093,0.2897,0.2641,0.2391,0.2269,0.2029,0.167,0.167,0.1621,0.1578,0.1545,0.1765,0.0,0.0,0.0,0.0,0.3644,0.3966,0.4472,0.4265,0.4245,0.4353,0.4247,0.4629,0.5224,0.5441,0.6204,0.7079,0.73,0.7628,0.7901,0.7901,0.7901,0.7901,0.7901,0.8471,0.9141,0.951,1.0237,1.1015,1.1418,1.1723,1.1656,1.0849,1.0816,1.0666,0.9839,0.9683,0.9683,0.9683,0.9797,0.9985,1.0244,1.0731,1.118,1.1473,1.1853,1.2108,1.2108,1.2108,1.2108,1.2108,1.2108,1.2108,1.2108,1.2108,1.2108,1.2144,1.2174,1.221,1.2246,1.2365,1.2407,1.2443,1.2514,1.2861,1.344,1.3802,1.4188,0.0,0.0845,0.0868,0.0305,-0.0499,-0.1594,-0.3156,-0.2448,-0.2232,-0.4953,-0.416,-0.3458,-0.4966,-0.5062,-0.4357,-0.2574,-0.1987,0.0,0.0,0.0,0.0,0.0,0.0,0.0,0.0,0.0,0.0,0.0,0.0,0.0,0.0,0.371,0.345,0.312,0.3085,0.2907,0.2648,0.2557,0.2311,0.1963,0.1963,0.1925,0.1843,0.1806,0.1904,0.0,0.0,0.0,0.0,0.3129,0.3519,0.4076,0.4135,0.4189,0.4298,0.419,0.4463,0.4899,0.5169,0.5878,0.681,0.7031,0.7464,0.7901,0.7901,0.7901,0.7901,0.7901,0.8315,0.8879,0.9197,0.9928,1.0604,1.1015,1.1423,1.1505,1.0713,1.0673,1.0579,0.9794,0.9683,0.9683,0.9683,0.9683,0.9797,1.0024,1.0433,1.0769,1.1029,1.1516,1.1884,1.1884,1.1999,1.2108,1.2108,1.2108,1.2108,1.2108,1.2108,1.2108,1.2108,1.2144,1.2174,1.2174,1.2258,1.2294,1.233,1.233,1.2644,1.331,1.344,1.3762,0.0,0.0563,0.0587,-0.0544,-0.1208,-0.199,-0.3659,-0.3339,0.0,-0.6045,-0.5221,-0.4273,-0.5151,-0.49,-0.4303,-0.3478,-0.2592,0.0,0.0,0.0,0.0,0.0,0.0,0.0,0.0,0.0,0.0,0.0,0.0,0.0,0.0,0.368,0.3519,0.314,0.2968,0.2901,0.2985,0.2787,0.2521,0.2183,0.2239,0.2127,0.1846,0.1846,0.1846,0.0,0.0,0.0,0.0,0.2409,0.2856,0.3469,0.3801,0.3967,0.4022,0.4022,0.4081,0.4302,0.4838,0.5548,0.6317,0.6972,0.7518,0.7901,0.7901,0.7901,0.7901,0.7901,0.8315,0.8722,0.8774,0.9558,1.03,1.0403,1.0913,1.1219,1.0519,1.0538,1.0489,0.9713,0.9644,0.9715,0.9687,0.9683,0.9683,0.9683,1.0059,1.0283,1.0283,1.0997,1.1479,1.1516,1.1811,1.2071,1.2108,1.2108,1.2108,1.2108,1.2108,1.2108,1.2108,1.2108,1.2108,1.2108,1.2108,1.2144,1.221,1.221,1.2395,1.2803,1.2803,1.3167,-0.2442,0.0,-0.048,-0.0327,-0.2215,-0.4178,0.0,-0.5092,-0.6004,-0.7113,0.0,0.0,-0.5404,-0.523,-0.4255,0.0,0.0,0.0,0.0,0.0,0.0,0.0,0.0,0.0,0.0,0.0,0.0,0.0,0.0,0.0,0.0,0.2523,0.2475,0.2374,0.2096,0.193,0.1867,0.2417,0.2409,0.1903,0.2353,0.2521,0.2465,0.2465,0.2352,0.0,0.0,0.0,0.2183,0.224,0.2796,0.3573,0.3522,0.391,0.4353,0.419,0.4245,0.4465,0.457,0.5334,0.6372,0.7408,0.7794,0.7901,0.7901,0.7901,0.7901,0.7901,0.8002,0.8212,0.8672,0.8984,0.9402,1.019,1.0604,1.0789,1.0776,1.0866,1.0779,1.0119,0.9965,0.9953,0.9733,0.9683,0.9683,0.9683,1.0059,1.0283,1.0283,1.0731,1.1142,1.1479,1.1584,1.1774,1.2071,1.2108,1.2108,1.2108,1.2108,1.2108,1.2108,1.2108,1.2108,1.2108,1.2108,1.2108,1.2108,1.2108,1.2365,1.2803,1.2832,1.3063,-0.3184,-0.2364,-0.1559,-0.1785,-0.3409,-0.4987,-0.5123,0.0,0.0,0.0,0.0,0.0,0.0,0.0,0.0,0.0,0.0,0.0,0.0,0.0,0.0,0.0,0.0,0.0,0.0,0.0,0.0,0.0,0.0,0.0,0.0,0.1767,0.21,0.2125,0.18,0.1666,0.1775,0.1863,0.1962,0.2244,0.2526,0.2751,0.2859,0.2747,0.2634,0.0,0.0,0.0,0.2239,0.2353,0.2797,0.3407,0.352,0.391,0.4356,0.4192,0.4192,0.4356,0.4356,0.5173,0.6372,0.7518,0.7901,0.7901,0.7901,0.7901,0.7901,0.7901,0.7901,0.7952,0.8312,0.857,0.8984,0.9825,1.0293,1.0558,1.0753,1.0915,1.0778,1.0039,0.9974,0.9933,0.9667,0.9603,0.9643,0.9678,0.9872,1.0019,1.0019,1.04,1.0769,1.118,1.1399,1.1664,1.2071,1.2108,1.2108,1.2108,1.2108,1.2108,1.2108,1.2108,1.2108,1.2108,1.2108,1.2108,1.2108,1.2108,1.2222,1.2478,1.2508,1.2644,-0.3126,-0.2485,-0.2343,-0.3467,-0.4083,-0.4601,-0.5354,0.0,0.0,0.0,0.0,0.0,0.0,0.0,0.0,0.0,0.0,0.0,0.0,0.0,0.0,0.0,0.0,0.0,0.0,0.0,0.0,0.0,0.0,0.0,0.0,0.1114,0.1792,0.1798,0.1515,0.1478,0.1751,0.108,0.1235,0.2249,0.2418,0.2585,0.2748,0.2804,0.2859,0.2916,0.0,0.0,0.224,0.2521,0.2854,0.3184,0.3573,0.391,0.4247,0.4133,0.4133,0.4247,0.4358,0.5173,0.6372,0.741,0.7848,0.7901,0.7901,0.7901,0.7901,0.7901,0.7901,0.7901,0.7901,0.8262,0.8778,0.9354,0.9877,1.0371,1.0577,1.0805,1.0724,0.9952,0.9886,0.9873,0.9511,0.9479,0.9519,0.9639,0.9683,0.9683,0.9683,0.998,1.0356,1.0769,1.118,1.1584,1.1957,1.2071,1.2108,1.2108,1.2108,1.2108,1.2108,1.2108,1.2108,1.2108,1.2108,1.2108,1.2108,1.2108,1.2108,1.2108,1.2144,1.2252,-0.3516,-0.2588,-0.2113,-0.2865,-0.2573,-0.2492,-0.3948,0.0,0.0,0.0,0.0,0.0,0.0,0.0,0.0,0.0,0.0,0.0,0.0,0.0,0.0,0.0,0.0,0.0,0.0,0.0,0.0,0.0,0.0,0.0,0.0,0.0229,0.0338,0.0336,0.028,0.0281,0.0339,0.0225,0.0112,0.0112,0.1066,0.1515,0.1571,0.2694,0.3143,0.2973,0.0,0.2691,0.2464,0.2352,0.2684,0.3346,0.324,0.3799,0.4579,0.4465,0.4408,0.4519,0.4954,0.5607,0.6315,0.6974,0.7518,0.7901,0.7901,0.7901,0.7901,0.7901,0.7901,0.7901,0.7901,0.7952,0.8212,0.8781,0.935,0.9865,1.0332,1.0881,1.1008,1.0334,1.0227,1.0048,0.9452,0.9426,0.9524,0.9524,0.9643,0.9683,0.9683,0.9758,0.9946,1.0361,1.0731,1.1142,1.1553,1.1884,1.2108,1.2108,1.2108,1.2108,1.2108,1.2108,1.2108,1.2108,1.2108,1.2108,1.2108,1.2108,1.2108,1.2113,1.233,1.2324,-0.4363,-0.3873,-0.3518,-0.3504,-0.2355,-0.1389,-0.2031,0.0,0.0,0.0,0.0,0.0,0.0,0.0,0.0,0.0,0.0,0.0,0.0,0.0,0.0,0.0,0.0,0.0,0.0,0.0,0.0,0.0,0.0,0.0,0.0,0.0,0.0951,0.0949,0.0336,-0.0,-0.0,-0.0,-0.0056,-0.0168,0.0336,0.0617,0.0617,0.1233,0.2186,0.3313,0.0,0.2691,0.2691,0.2352,0.2628,0.3239,0.3355,0.3745,0.4356,0.4463,0.4517,0.4572,0.5117,0.5498,0.588,0.681,0.7249,0.7518,0.7791,0.7901,0.7901,0.7901,0.7901,0.7901,0.7901,0.7901,0.8055,0.8672,0.8984,0.9406,1.0245,1.0604,1.0698,1.0283,1.0178,0.9982,0.9344,0.9297,0.939,0.9484,0.9559,0.9603,0.9678,0.9683,0.9872,1.0244,1.0472,1.0731,1.1142,1.1547,1.1884,1.2077,1.2108,1.2108,1.2108,1.2108,1.2108,1.2108,1.2108,1.2108,1.2108,1.2108,1.2108,1.2113,1.2395,1.2365,-0.4653,-0.4662,-0.4443,-0.3219,0.0,-0.0831,-0.0462,0.0,0.0,0.0,0.0,0.0,0.0,0.0,0.0,0.0,0.0,0.0,0.0,0.0,0.0,0.0,0.0,0.0,0.0,0.0,0.0,0.0,0.0,0.0,0.0,0.0,0.257,0.2453,0.1509,0.0895,0.0615,0.0615,0.0392,-0.0,-0.0,-0.0,-0.0,-0.0,0.1009,0.275,0.2692,0.2691,0.2634,0.2464,0.263,0.3074,0.3469,0.3858,0.4242,0.4517,0.4574,0.4629,0.5009,0.5226,0.5443,0.6372,0.6864,0.7192,0.7574,0.7791,0.7901,0.7955,0.7955,0.7955,0.7901,0.7901,0.8005,0.8468,0.8672,0.9037,1.0035,1.0297,1.0368,1.0263,1.0152,0.9928,0.9397,0.9242,0.9261,0.943,0.9475,0.9563,0.9683,0.9683,0.9832,1.0137,1.0244,1.051,1.0992,1.133,1.1664,1.2071,1.2108,1.2108,1.2108,1.2108,1.2108,1.2108,1.2108,1.2108,1.2108,1.2108,1.2108,1.2108,1.2324,1.2288,-0.3632,-0.3781,-0.3518,-0.0496,-0.0358,0.0,0.0033,-0.2074,0.0,0.0,0.0,0.0,0.0,0.0,0.0,0.0,0.0,0.0,0.0,0.0,0.0,0.0,0.0,0.0,0.0,0.0,0.0,0.0,0.0,0.0,0.0,0.0,0.0,0.4309,0.4198,0.363,0.2504,0.2504,0.1673,-0.0,-0.0,-0.0,-0.0,-0.0,0.0112,0.0392,0.2581,0.2916,0.1903,0.2578,0.2856,0.2961,0.3573,0.4237,0.4844,0.4844,0.4794,0.4689,0.4745,0.5013,0.5334,0.5389,0.6206,0.7085,0.7139,0.7521,0.7955,0.8112,0.8168,0.8115,0.7955,0.7901,0.7901,0.7955,0.8418,0.8932,0.9506,1.0032,1.0448,1.0613,1.0339,0.9973,0.9628,0.9347,0.9217,0.9284,0.9426,0.9563,0.9683,0.9683,0.9718,0.9758,1.0098,1.0621,1.1399,1.1473,1.1664,1.2071,1.2108,1.2108,1.2108,1.2108,1.2108,1.2108,1.2108,1.2108,1.2108,1.2108,1.2108,1.2108,1.2113,1.2113,-0.4442,-0.6057,-0.6603,-0.1343,-0.4274,0.0,0.0,-0.299,0.0,0.0,0.0,0.0,0.0,0.0,0.0,0.0,0.0,0.0,0.0,0.0,0.0,0.0,0.0,0.0,0.0,0.0,0.0,0.0,0.0,0.0,0.0,0.0,0.0,0.4673,0.47,0.4479,0.4022,0.4193,0.3973,0.3302,0.1843,0.0727,-0.0,-0.0,-0.0,0.0112,0.1739,0.2639,0.2916,0.2804,0.2802,0.2968,0.3574,0.4237,0.4899,0.4899,0.4846,0.4792,0.4745,0.4798,0.5013,0.5664,0.6154,0.6699,0.7357,0.7738,0.7901,0.8008,0.8115,0.8168,0.8115,0.8165,0.8165,0.7955,0.8162,0.8629,0.9406,0.9769,1.0038,1.0599,1.036,0.9981,0.9671,0.9318,0.9096,0.9212,0.9301,0.9346,0.9457,0.9452,0.9501,0.9559,0.9793,1.0171,1.0812,1.0893,1.1223,1.2041,1.2108,1.2108,1.2108,1.2108,1.2108,1.2108,1.2108,1.2108,1.2108,1.2108,1.2108,1.2108,1.2252,1.2252,-0.5414,-0.744,-0.8481,0.0,0.0,0.0,-0.8506,-0.789,0.0,0.0,0.0,0.0,0.0,0.0,0.0,0.0,0.0,0.0,0.0,0.0,0.0,0.0,0.0,0.0,0.0,0.0,0.0,0.0,0.0,0.0,0.0,0.0,0.0,0.0,0.0245,0.0247,0.0245,0.2048,0.2882,0.2832,0.2786,0.2174,0.1119,0.0336,0.0224,0.0617,0.1458,0.247,0.3546,0.3086,0.3025,0.3135,0.3576,0.4182,0.4847,0.4958,0.5013,0.4958,0.4851,0.4798,0.4849,0.5504,0.5993,0.6376,0.7136,0.7628,0.7901,0.7955,0.8115,0.8221,0.8271,0.8318,0.8318,0.8112,0.8165,0.848,0.9309,0.9614,0.9908,1.0549,1.0492,1.0251,0.9838,0.9457,0.9202,0.9198,0.9221,0.9217,0.9284,0.9319,0.9328,0.947,0.9599,0.9837,1.022,1.0259,1.0703,1.1785,1.2004,1.2108,1.2108,1.2108,1.2108,1.2108,1.2108,1.2108,1.2108,1.2108,1.2108,1.2108,1.2294,1.2294,-0.6298,-0.7346,0.0,0.0,0.0,0.0,0.0,0.0,0.0,0.0,0.0,0.0,0.0,0.0,0.0,0.0,0.0,0.0,0.0,0.0,0.0,0.0,0.0,0.0,0.0,0.0,0.0,0.0,0.0,0.0,0.0,0.0,0.0,0.0,-0.9626,-0.957,-0.9682,-0.4756,-0.2392,-0.2586,0.2385,0.434,0.3527,0.1119,0.0673,0.1797,0.1792,0.2469,0.361,0.3477,0.3465,0.3626,0.3626,0.4073,0.4745,0.5132,0.524,0.5126,0.5126,0.5013,0.4899,0.4743,0.5456,0.6381,0.6265,0.7025,0.7955,0.8115,0.8221,0.8218,0.8374,0.8424,0.8424,0.8424,0.8424,0.8527,0.9106,0.9614,1.0123,1.0616,1.0829,1.0742,1.0206,0.9842,0.9512,0.9238,0.9221,0.9217,0.9279,0.9279,0.9324,0.9377,0.9594,0.9683,0.9683,0.9683,1.0142,1.1207,1.1785,1.2077,1.2108,1.2108,1.2108,1.2108,1.2108,1.2108,1.2108,1.2108,1.2108,1.2108,1.2108,1.2108,-0.6245,0.0,0.0,0.0,0.0,0.0,0.0,0.0,0.0,0.0,0.0,0.0,0.0,0.0,0.0,0.0,0.0,0.0,0.0,0.0,0.0,0.0,0.0,0.0,0.0,0.0,0.0,0.0,0.0,0.0,0.0,0.0,0.0,0.0,-0.9549,-0.9515,-0.9575,-0.8062,-0.7408,-0.7597,-0.6256,-0.2416,0.3584,0.2854,0.2239,0.1848,0.2692,0.3255,0.3592,0.3473,0.3579,0.3909,0.3959,0.4346,0.4903,0.5187,0.5297,0.524,0.5126,0.5069,0.5069,0.5395,0.5723,0.6102,0.675,0.7235,0.7566,0.7898,0.8115,0.8221,0.8275,0.8424,0.8524,0.8424,0.8471,0.8682,0.9103,0.9312,0.9725,1.0663,1.057,1.0341,1.0384,0.993,0.9512,0.9238,0.9141,0.9056,0.9092,0.9092,0.9096,0.9096,0.9475,0.9683,0.9683,0.9683,0.9837,1.0142,1.0664,1.1298,1.2071,1.2108,1.2108,1.2108,1.2108,1.2108,1.2108,1.2108,1.2108,1.2108,1.2108,1.2108,-0.8055,0.0,0.0,0.0,0.0,0.0,0.0,0.0,0.0,0.0,0.0,0.0,0.0,0.0,0.0,0.0,0.0,0.0,0.0,0.0,0.0,0.0,0.0,0.0,0.0,0.0,0.0,0.0,0.0,0.0,0.0,0.0,0.0,0.0,-1.5432,-1.5367,-1.5367,-1.3442,-1.2505,-1.259,-1.0798,-0.7101,-0.1719,0.192,0.3207,0.2573,0.3478,0.3759,0.3584,0.347,0.3524,0.3801,0.407,0.4455,0.4897,0.535,0.5519,0.5464,0.524,0.5183,0.5238,0.5452,0.5666,0.5993,0.6532,0.7017,0.7402,0.7681,0.8002,0.8268,0.8321,0.8421,0.8524,0.8474,0.858,0.8742,0.9008,0.9211,0.9618,1.0442,1.0527,1.0559,1.0712,1.0372,0.9948,0.9589,0.9226,0.902,0.902,0.902,0.902,0.902,0.943,0.9639,0.943,0.9435,0.9435,0.9435,0.9902,1.0626,1.159,1.178,1.1926,1.2108,1.2108,1.2108,1.2108,1.2108,1.2108,1.2108,1.2108,1.2077,0.0,0.0,0.0,0.0,0.0,0.0,0.0,0.0,0.0,0.0,0.0,0.0,0.0,0.0,0.0,0.0,0.0,0.0,0.0,0.0,0.0,0.0,0.0,0.0,0.0,0.0,0.0,0.0,0.0,0.0,0.0,0.0,0.0,-2.4663,-2.4408,-2.4294,-2.4294,-1.9874,-1.7667,-1.7627,-1.3176,-1.0945,-1.0425,-0.1182,0.3223,0.364,0.4038,0.3981,0.3584,0.3526,0.3469,0.3469,0.3961,0.4398,0.4783,0.551,0.5793,0.5793,0.5464,0.5354,0.5297,0.5183,0.551,0.5948,0.583,0.6591,0.7464,0.7464,0.7946,0.8424,0.8573,0.8471,0.8421,0.8577,0.8689,0.8804,0.8755,0.9159,0.961,1.0016,1.0647,1.1115,1.1169,1.0957,1.0602,0.9996,0.9394,0.9016,0.906,0.902,0.9016,0.906,0.9435,0.9515,0.906,0.906,0.906,0.902,0.939,0.998,1.0687,1.125,1.1737,1.2108,1.2108,1.2108,1.2108,1.2108,1.2108,1.2108,1.2108,1.1999,0.0,0.0,0.0,0.0,0.0,0.0,0.0,0.0,0.0,0.0,0.0,0.0,0.0,0.0,0.0,0.0,0.0,0.0,0.0,0.0,0.0,0.0,0.0,0.0,0.0,0.0,0.0,0.0,0.0,0.0,0.0,0.0,0.0,-2.4462,-2.4266,-2.4182,-2.4294,-2.3157,-2.2684,0.0,-2.1808,-1.9332,-1.5354,-0.5667,0.0491,0.364,0.4192,0.4136,0.364,0.4078,0.3968,0.3583,0.3912,0.4349,0.4897,0.5281,0.5721,0.605,0.5791,0.5683,0.5629,0.5352,0.5352,0.5517,0.5837,0.6482,0.7077,0.7408,0.7946,0.8424,0.8421,0.848,0.8487,0.8537,0.8583,0.8633,0.8593,0.8801,0.9008,0.9057,1.0135,1.1187,1.1765,1.1277,1.0433,0.9394,0.9088,0.9141,0.9515,0.9226,0.9145,0.9515,0.9643,0.9515,0.906,0.935,0.939,0.902,0.9101,0.9217,0.9408,1.1046,1.1999,1.2108,1.2108,1.2108,1.2108,1.2108,1.2108,1.2108,1.2108,1.2077,0.0,0.0,0.0,0.0,0.0,0.0,0.0,0.0,0.0,0.0,0.0,0.0,0.0,0.0,0.0,0.0,0.0,0.0,0.0,0.0,0.0,0.0,0.0,0.0,0.0,0.0,0.0,0.0,0.0,0.0,0.0,-2.4391,-2.4426,-2.4412,-2.4294,-2.4257,-2.4294,-2.4238,-2.4275,-2.4459,-2.4486,-2.1933,-1.6871,-0.7251,-0.1706,0.0357,0.3359,0.4353,0.3859,0.457,0.4462,0.3858,0.4241,0.4679,0.5115,0.5445,0.5937,0.6376,0.6109,0.6003,0.5948,0.5784,0.5727,0.578,0.5996,0.6591,0.7241,0.7464,0.8052,0.8586,0.8586,0.854,0.854,0.8646,0.8586,0.8527,0.8646,0.8752,0.8808,0.8808,0.9825,1.0994,1.1923,1.1736,1.0965,0.9545,0.935,0.9435,0.9678,0.9475,0.9435,0.9683,0.9683,0.9599,0.935,0.9559,0.9515,0.902,0.9938,1.005,0.9056,1.0644,1.1717,1.2077,1.2108,1.2108,1.2108,1.2108,1.2108,1.2108,1.2108,1.2035,0.0,0.0,0.0,0.0,0.0,0.0,0.0,0.0,0.0,0.0,0.0,0.0,0.0,0.0,0.0,0.0,0.0,0.0,0.0,0.0,0.0,0.0,0.0,0.0,0.0,0.0,0.0,0.0,0.0,0.0,-2.4201,-2.4366,-2.4428,-2.4412,-2.4394,-2.4367,-2.4321,-2.4312,-2.433,-2.4381,-2.4469,-2.2388,-1.8168,-0.863,-0.395,-0.3091,0.1685,0.3922,0.4242,0.5062,0.4897,0.4187,0.468,0.5062,0.5445,0.5719,0.6265,0.6812,0.6431,0.632,0.6317,0.6209,0.6209,0.6209,0.6209,0.6756,0.7464,0.7518,0.8109,0.8752,0.8808,0.8699,0.8593,0.8752,0.8643,0.848,0.8593,0.8752,0.8808,0.8808,0.9817,1.0986,1.1923,1.2076,1.1674,1.0293,0.9857,0.9683,0.9683,0.9683,0.9683,0.9683,0.9683,0.9683,0.9683,0.9683,0.9515,0.9145,1.1008,1.1345,0.9593,1.0549,1.1389,1.1962,1.2004,1.2035,1.2108,1.2108,1.2108,1.2108,1.2108,1.1999,0.0,0.0,0.0,0.0,0.0,0.0,0.0,0.0,0.0,0.0,0.0,0.0,0.0,0.0,0.0,0.0,0.0,0.0,0.0,0.0,0.0,0.0,0.0,0.0,0.0,0.0,0.0,0.0,0.0,0.0,-2.419,-2.4228,-2.4284,-2.4394,-2.4339,-2.4339,-2.4394,-2.4339,-2.4303,-2.4312,-2.4444,-2.4219,-2.3362,-1.3601,-0.6823,-0.2639,-0.1377,0.1288,0.4844,0.5445,0.5336,0.4789,0.4625,0.512,0.5891,0.5946,0.6596,0.7357,0.6928,0.682,0.6766,0.632,0.6209,0.6209,0.6209,0.6645,0.7244,0.7566,0.8046,0.8533,0.8966,0.8913,0.8755,0.8808,0.8755,0.8593,0.8112,0.8434,0.8808,0.8808,1.0438,1.1918,1.2076,1.2076,1.2052,1.1787,1.0572,0.9683,0.9683,0.9683,0.9683,0.9683,0.9683,0.9683,0.9683,0.9683,0.9678,0.9599,1.118,1.1962,1.1695,1.1853,1.1816,1.1584,1.1706,1.1859,1.2108,1.2108,1.2108,1.2108,1.2108,1.2077,0.0,0.0,0.0,0.0,0.0,0.0,0.0,0.0,0.0,0.0,0.0,0.0,0.0,0.0,0.0,0.0,0.0,0.0,0.0,0.0,0.0,0.0,0.0,0.0,0.0,0.0,0.0,0.0,0.0,-2.4143,-2.4199,-2.419,-2.4284,-2.4447,-2.4437,-2.4462,-2.4577,-2.4462,-2.4366,-2.4312,-2.447,-2.4547,-2.4402,-2.0193,-1.4072,-0.6457,-0.0425,0.3456,0.5447,0.567,0.5616,0.5336,0.4899,0.5283,0.6105,0.6,0.6704,0.7568,0.7303,0.7201,0.7095,0.6874,0.6758,0.6701,0.6701,0.6974,0.7354,0.7619,0.7996,0.8427,0.9008,0.9117,0.9012,0.8857,0.8808,0.8752,0.8487,0.8593,0.9166,1.0391,1.141,1.2076,1.2076,1.2076,1.2076,1.2076,1.071,0.9683,0.9683,0.9683,0.9683,0.9683,0.9683,0.9683,0.9683,0.9683,0.9683,0.9683,1.1212,1.2108,1.2108,1.2108,1.2004,1.1847,1.1748,1.1822,1.2108,1.2004,1.1999,1.2108,1.2108,1.2108,0.0,0.0,0.0,0.0,0.0,0.0,0.0,0.0,0.0,0.0,0.0,0.0,0.0,0.0,0.0,0.0,0.0,0.0,0.0,0.0,0.0,0.0,0.0,0.0,0.0,0.0,0.0,0.0,0.0,-2.421,-2.417,-2.4191,-2.4275,-2.4411,-2.447,-2.4547,-2.4643,-2.4521,-2.4417,-2.433,-2.4462,-2.447,-2.4363,-2.3254,-1.877,-1.1374,-0.234,0.3266,0.5991,0.6003,0.6055,0.6046,0.5443,0.5664,0.6211,0.6055,0.6701,0.7563,0.7461,0.7413,0.7416,0.7365,0.7306,0.7192,0.719,0.73,0.7461,0.7512,0.7892,0.8427,0.9103,0.926,0.9162,0.9019,0.8966,0.8913,0.8808,0.8808,0.9267,1.0952,1.1714,1.2076,1.2076,1.2076,1.2076,1.2076,1.071,0.9683,0.9683,0.9683,0.9683,0.9683,0.9683,0.9683,0.9683,0.9683,0.9683,0.9683,1.1212,1.2108,1.2108,1.2108,1.2108,1.2108,1.1895,1.1859,1.2035,1.1884,1.1889,1.2035,1.2035,1.2035,0.0,0.0,0.0,0.0,0.0,0.0,0.0,0.0,0.0,0.0,0.0,0.0,0.0,0.0,0.0,0.0,0.0,0.0,0.0,0.0,0.0,0.0,0.0,0.0,0.0,0.0,0.0,0.0,0.0,-2.4238,-2.4113,-2.4172,-2.421,-2.422,-2.44,-2.4504,-2.4517,-2.4444,-2.4389,-2.4389,-2.4348,-2.4358,-2.4238,-1.9549,-1.7169,-1.6419,-1.0926,-0.2805,0.6534,0.6534,0.6756,0.6974,0.6372,0.6213,0.6384,0.6112,0.6539,0.7289,0.719,0.7351,0.767,0.7515,0.7467,0.7467,0.7408,0.7402,0.7351,0.719,0.7726,0.858,0.9357,0.9413,0.9215,0.9337,0.9393,0.9288,0.886,0.8808,0.8857,0.8959,1.0647,1.2076,1.2076,1.2076,1.2076,1.2076,1.071,0.9683,0.9683,0.9683,0.9683,0.9683,0.9683,0.9683,0.9683,0.9683,0.9683,0.9683,1.1212,1.2108,1.2108,1.2108,1.2108,1.2108,1.2077,1.1999,1.1816,1.1816,1.1816,1.1816,1.1816,1.1926,0.0,0.0,0.0,0.0,0.0,0.0,0.0,0.0,0.0,0.0,0.0,0.0,0.0,0.0,0.0,0.0,0.0,0.0,0.0,0.0,0.0,0.0,0.0,0.0,0.0,0.0,0.0,0.0,0.0,0.0,-2.4356,-2.4266,-2.4238,-2.4321,-2.4436,-2.4547,-2.4627,-2.4603,-2.4512,-2.4348,-2.4356,-2.433,-2.4201,-2.251,-2.0033,-1.6921,-1.5106,-0.8061,0.2098,0.1677,0.3854,0.73,0.6696,0.6591,0.6815,0.6657,0.6815,0.7133,0.702,0.7074,0.7179,0.713,0.7241,0.7405,0.7405,0.7297,0.719,0.7136,0.7351,0.7883,0.9246,0.9832,0.9995,0.9729,0.9573,0.9476,0.9229,0.9673,1.0269,1.0795,1.1565,1.2076,1.2076,1.2076,1.2076,1.2076,1.1585,1.0847,0.9816,0.9683,0.9683,0.9683,0.9683,0.9683,0.9683,0.9683,0.9683,0.9683,1.1212,1.2108,1.2108,1.2108,1.2108,1.2108,1.2108,1.2071,1.1999,1.1847,1.1853,1.1999,1.1999,1.2035,-0.7269,0.0,0.0,0.0,0.0,0.0,0.0,0.0,0.0,0.0,0.0,0.0,0.0,0.0,0.0,0.0,0.0,0.0,0.0,0.0,0.0,0.0,0.0,0.0,0.0,0.0,0.0,0.0,0.0,0.0,-2.4433,-2.4365,-2.4357,-2.443,-2.4454,-2.4523,-2.4675,-2.4663,-2.4538,-2.4294,-2.4356,-2.4284,-2.4142,-2.4266,-2.2558,-1.9486,-1.9579,-1.3377,-0.311,-0.1607,0.1355,0.5134,0.6496,0.7077,0.7085,0.6871,0.6871,0.7031,0.6918,0.6969,0.7128,0.7179,0.7343,0.7512,0.7568,0.7464,0.7357,0.7357,0.7931,0.8761,0.9869,1.0348,1.036,0.9873,0.9666,0.9566,0.948,0.9976,1.0779,1.2116,1.2224,1.2076,1.2076,1.2076,1.2076,1.2076,1.1618,1.0973,1.0012,0.9793,0.9683,0.9683,0.9683,0.9683,0.9683,0.9683,0.9683,0.9683,1.0692,1.1553,1.2071,1.2108,1.2108,1.2108,1.2108,1.2108,1.2108,1.1884,1.1884,1.1999,1.1999,1.2035,0.0,0.0,0.0,0.0,0.0,0.0,0.0,0.0,0.0,0.0,0.0,0.0,0.0,0.0,0.0,0.0,0.0,0.0,0.0,0.0,0.0,0.0,0.0,0.0,0.0,0.0,0.0,0.0,0.0,-2.4666,-2.4327,-2.4495,-2.4566,-2.45,-2.443,-2.4473,-2.4599,-2.4589,-2.4506,-2.4303,-2.4312,-2.4191,-2.4016,-2.4135,-2.4266,-2.4403,-2.4532,-1.8769,-0.8821,-0.3026,-0.0392,0.0531,0.5851,0.761,0.7082,0.6753,0.6761,0.6879,0.6879,0.7147,0.7515,0.7619,0.7723,0.7723,0.7845,0.7901,0.7901,0.7901,0.951,1.1217,1.1272,1.0922,1.036,0.9773,0.9614,0.9614,0.9614,0.9614,1.0226,1.2368,1.2426,1.2126,1.2126,1.2126,1.2126,1.2126,1.0795,0.9923,1.0249,0.9946,0.9723,0.9723,0.9723,0.9723,0.9723,0.9723,0.9723,0.9683,0.9683,1.0395,1.1962,1.2071,1.2108,1.2108,1.2108,1.2108,1.2108,1.1884,1.1811,1.1811,1.1811,1.192,-0.5267,0.0,0.0,0.0,0.0,0.0,0.0,0.0,0.0,0.0,0.0,0.0,0.0,0.0,0.0,0.0,0.0,0.0,0.0,0.0,0.0,0.0,0.0,0.0,0.0,0.0,0.0,0.0,-2.4832,-2.4746,-2.4601,-2.4453,-2.4393,-2.443,-2.4454,-2.4487,-2.4538,-2.4615,-2.4573,-2.4373,-2.433,-2.4247,-2.4144,-2.4181,-2.4256,-2.4339,-2.447,-2.2782,-1.9221,-0.9712,-0.3508,0.0626,0.6121,0.7886,0.7357,0.73,0.6923,0.6547,0.6547,0.6652,0.6915,0.7289,0.783,0.8215,0.7955,0.7901,0.7901,0.7901,0.8368,0.9201,1.0858,1.1175,1.1019,1.0858,1.0182,0.9721,1.0146,0.9932,0.9766,1.0375,1.1706,1.2681,1.2681,1.2681,1.2681,1.2681,1.2282,1.1581,1.0444,1.0205,1.0132,1.0132,1.0132,1.0132,1.0132,1.0132,1.0019,0.9723,0.9683,0.9911,1.0361,1.1473,1.2108,1.2108,1.2108,1.2108,1.2108,1.2035,1.2004,1.2004,1.2004,1.2041,0.0,0.0,0.0,0.0,0.0,0.0,0.0,0.0,0.0,0.0,0.0,0.0,0.0,0.0,0.0,0.0,0.0,0.0,0.0,0.0,0.0,0.0,0.0,0.0,0.0,0.0,0.0,-2.497,-2.4907,-2.4804,-2.4719,-2.4469,-2.4357,-2.4394,-2.441,-2.4444,-2.4495,-2.4573,-2.4538,-2.4389,-2.4365,-2.4312,-2.4238,-2.4219,-2.4247,-2.4303,-2.4383,-2.4375,-2.362,-1.4922,-0.807,-0.2262,0.5672,0.8471,0.8043,0.7842,0.7408,0.692,0.6761,0.6758,0.6915,0.7393,0.788,0.8265,0.8271,0.8271,0.8271,0.8271,0.8788,0.9614,1.096,1.1322,1.1322,1.1322,1.0804,1.0395,1.0769,1.0557,1.0186,0.9718,1.0635,1.1805,1.2725,1.2881,1.2881,1.2881,1.2881,1.2251,1.0508,1.0283,1.0283,1.0283,1.0283,1.0283,1.0283,1.0283,1.021,0.9985,0.9797,0.9683,0.9683,1.1255,1.2108,1.2108,1.2108,1.2108,1.2108,1.2108,1.2108,1.2108,1.2108,1.2108,0.0,0.0,0.0,0.0,0.0,0.0,-1.1263,-1.1583,0.0,0.0,0.0,0.0,0.0,0.0,0.0,0.0,0.0,0.0,0.0,0.0,0.0,0.0,0.0,0.0,0.0,-2.4856,-2.4884,-2.5089,-2.498,-2.4851,-2.4727,-2.4515,-2.4417,-2.442,-2.4358,-2.4375,-2.4504,-2.4495,-2.4469,-2.4416,-2.4407,-2.4373,-2.4303,-2.4229,-2.4238,-2.4294,-2.4294,-2.4312,-2.3916,-1.8415,-1.2711,-0.6395,0.4171,0.8479,0.8778,0.8424,0.8052,0.7726,0.7354,0.7192,0.7295,0.7874,0.8031,0.8087,0.8692,0.8857,0.8808,0.8808,1.0039,1.1377,1.1377,1.1377,1.1372,1.1322,1.1322,1.1322,1.1322,1.1322,1.1011,0.9976,0.9769,1.0379,1.2215,1.2725,1.2881,1.2881,1.2925,1.2412,1.0888,1.0686,1.0651,1.0571,1.044,1.0283,1.0283,1.0283,1.0283,1.0283,0.9985,0.9758,0.9683,1.1062,1.1926,1.2108,1.2108,1.2108,1.2108,1.2108,1.2108,1.2108,1.2108,1.2108,0.0,0.0,0.0,0.0,0.0,0.0,0.0,-0.9077,0.0,0.0,0.0,0.0,0.0,0.0,0.0,0.0,0.0,0.0,0.0,0.0,0.0,0.0,0.0,0.0,0.0,-2.4923,-2.4944,-2.5089,-2.498,-2.4888,-2.4865,-2.4614,-2.4504,-2.4566,-2.4446,-2.442,-2.4507,-2.4504,-2.4486,-2.4486,-2.4442,-2.4389,-2.4373,-2.4257,-2.421,-2.422,-2.422,-2.4144,-2.3576,-1.8129,-1.2578,-0.6892,-0.0256,0.5009,0.8774,0.8725,0.8418,0.8109,0.8005,0.7886,0.7874,0.8676,0.8778,0.8722,0.9253,0.9267,0.9019,0.886,1.034,1.1927,1.1927,1.1927,1.1823,1.1423,1.1322,1.1322,1.1322,1.1322,1.1221,1.1011,1.0964,1.0799,1.0332,1.1706,1.2881,1.2881,1.32,1.335,1.2996,1.295,1.2812,1.2415,1.1118,1.0283,1.0283,1.0283,1.0283,1.0283,1.0249,1.0059,0.9723,0.9985,1.0769,1.2071,1.2108,1.2108,1.2108,1.2108,1.2108,1.2108,1.2108,1.2108,0.0,0.0,0.0,-1.1149,0.0,0.0,0.0,0.0,0.0,0.0,0.0,0.0,0.0,0.0,0.0,0.0,0.0,0.0,0.0,0.0,0.0,0.0,0.0,0.0,0.0,-2.3834,-2.3818,-2.3856,-2.3793,-2.3904,-2.4276,-2.409,-2.4148,-2.458,-2.4446,-2.4403,-2.45,-2.4498,-2.4497,-2.4495,-2.4469,-2.4486,-2.4538,-2.4302,-2.4238,-2.4284,-2.4163,-2.4075,-2.385,-2.111,-1.6712,-1.0862,-0.2355,0.2612,0.5346,0.7956,0.8735,0.8471,0.8271,0.8049,0.8034,0.889,0.9103,0.9099,0.9725,0.9476,0.8917,0.8808,0.9577,1.0442,1.0442,1.1259,1.2022,1.1773,1.1723,1.1723,1.1723,1.1723,1.1723,1.1723,1.1723,1.1418,1.0596,1.136,1.2368,1.3152,1.3435,1.3615,1.3615,1.3615,1.352,1.3296,1.1664,1.0603,1.0603,1.0404,1.0283,1.0283,1.0283,1.021,1.0019,0.998,1.0659,1.2071,1.2108,1.2108,1.2108,1.2108,1.2108,1.2108,1.2108,1.2108,0.0,0.0,0.0,0.0,0.0,-1.1163,0.0,0.0,0.0,0.0,0.0,0.0,0.0,0.0,0.0,0.0,0.0,0.0,0.0,0.0,0.0,0.0,0.0,0.0,0.0,-2.2377,-2.2335,-2.2603,-2.2315,-2.253,-2.3445,-2.3432,-2.3695,-2.4369,-2.4327,-2.4358,-2.4482,-2.45,-2.4498,-2.4504,-2.4495,-2.4564,-2.4666,-2.4348,-2.4266,-2.4367,-2.4095,-2.4045,-2.4161,-2.4181,-2.1501,-1.6402,-0.6028,-0.0675,0.1737,0.6014,0.8168,0.8886,0.853,0.8259,0.8246,0.8995,0.9312,0.9524,1.0095,0.9684,0.9064,0.9061,0.8906,0.8804,0.8857,1.049,1.2076,1.2076,1.2076,1.2076,1.2076,1.2076,1.2076,1.2076,1.2076,1.1927,1.1372,1.1322,1.1714,1.2982,1.3175,1.3271,1.3568,1.3615,1.3615,1.3615,1.2268,1.1263,1.0917,1.0603,1.0361,1.0283,1.0283,1.0283,1.0283,1.0283,1.0731,1.1627,1.1627,1.178,1.2108,1.2108,1.2108,1.2108,1.2186,1.2186,0.0,0.0,0.0,0.0,-1.3859,0.0,0.0,0.0,0.0,0.0,0.0,0.0,0.0,0.0,0.0,0.0,0.0,0.0,0.0,0.0,0.0,0.0,0.0,0.0,0.0,0.0,-2.1159,-2.2585,-2.1311,-2.113,-2.2637,-2.3156,-2.3463,-2.3614,-2.4055,-2.4339,-2.4412,-2.4465,-2.45,-2.449,-2.4497,-2.4538,-2.4599,-2.433,-2.4238,-2.4294,-2.4027,-2.3946,-2.4025,-2.4094,-2.377,-2.2593,-1.607,-0.7472,0.1279,0.2112,0.5376,0.9305,0.9159,0.9001,0.8952,0.926,0.9677,1.0095,1.03,1.0198,1.0043,0.9921,0.9361,0.8857,0.911,1.0643,1.2076,1.2076,1.2076,1.2076,1.2076,1.2076,1.2076,1.2076,1.2076,1.1927,1.1372,1.1322,1.1372,1.1519,1.1565,1.2053,1.342,1.3615,1.3615,1.3615,1.3434,1.2619,1.1025,1.0848,1.0684,1.0322,1.0283,1.0283,1.0283,1.0283,1.021,0.9985,0.9985,1.0654,1.2108,1.2108,1.2108,1.2108,1.2484,1.2526,0.0,0.0,0.0,0.0,0.0,0.0,-1.1089,0.0,-1.018,0.0,0.0,0.0,0.0,0.0,0.0,0.0,0.0,0.0,0.0,0.0,0.0,0.0,0.0,0.0,0.0,0.0,0.0,0.0,0.0,-1.9472,-2.112,-2.1749,-2.2504,-2.3474,-2.3633,-2.3945,-2.4394,-2.4465,-2.45,-2.45,-2.4498,-2.4445,-2.4356,-2.4257,-2.4153,-2.4057,-2.3908,-2.3867,-2.3946,-2.4016,-2.4074,-2.3881,-2.1286,-1.5409,-0.7633,-0.1058,0.2789,0.5165,0.8223,0.9159,0.911,0.9662,1.0435,1.1065,1.1167,1.0854,1.049,1.0431,0.9618,0.8808,0.8959,1.0744,1.2578,1.2578,1.2328,1.218,1.248,1.2578,1.2475,1.2175,1.2076,1.2026,1.1773,1.1773,1.1773,1.1773,1.1773,1.1868,1.2201,1.303,1.3615,1.3615,1.3615,1.2886,1.1041,1.0886,1.0848,1.0646,1.0443,1.0283,1.0283,1.0283,1.0205,1.0059,0.9832,1.0505,1.2108,1.2108,1.2108,1.2113,1.2407,1.2455,-1.575,0.0,0.0,0.0,0.0,0.0,0.0,0.0,0.0,0.0,0.0,0.0,0.0,0.0,0.0,0.0,0.0,0.0,0.0,0.0,0.0,0.0,0.0,0.0,0.0,0.0,0.0,0.0,0.0,-1.7334,-1.972,-2.0428,-2.1412,-2.2796,-2.3146,-2.3563,-2.4086,-2.4371,-2.45,-2.45,-2.45,-2.4419,-2.4284,-2.419,-2.4094,-2.3969,-2.3825,-2.3834,-2.3896,-2.3946,-2.4016,-2.4094,-2.3946,-2.1342,-1.6527,-0.6841,-0.2266,-0.031,0.3582,0.5745,0.7163,0.9522,1.074,1.136,1.1669,1.136,1.0897,1.0897,1.0237,0.9476,0.9476,1.12,1.2881,1.2881,1.2578,1.2431,1.2832,1.2881,1.2779,1.2377,1.2328,1.2328,1.2328,1.2175,1.2076,1.2076,1.2076,1.1977,1.1578,1.274,1.3615,1.3615,1.3615,1.3088,1.1732,1.1209,1.0886,1.0886,1.0525,1.0283,1.0283,1.0283,1.0283,1.0283,1.0019,1.0433,1.1627,1.2035,1.215,1.1926,1.2228,1.2341,0.0,0.0,0.0,-1.4963,0.0,0.0,0.0,0.0,-1.249,0.0,0.0,0.0,0.0,0.0,0.0,-0.9394,0.0,0.0,0.0,0.0,0.0,0.0,0.0,0.0,0.0,0.0,0.0,0.0,0.0,0.0,-1.8721,-1.958,-2.032,-2.1152,-2.2567,-2.3322,-2.3335,-2.4115,-2.45,-2.45,-2.45,-2.4498,-2.4478,-2.4154,-2.4066,-2.4173,-2.3852,-2.3768,-2.3896,-2.3896,-2.3967,-2.4094,-2.4094,-2.3874,-2.2798,-1.6776,-1.1091,-0.6337,-0.636,-0.3129,0.2095,0.85,1.0435,1.0474,1.156,1.1723,1.1473,1.1473,1.1372,1.1221,1.1221,1.2076,1.2881,1.2881,1.2881,1.2881,1.2881,1.2881,1.2881,1.2881,1.2876,1.2876,1.2876,1.2426,1.2076,1.2076,1.2076,1.2076,1.2076,1.2992,1.3615,1.3615,1.3615,1.3595,1.3533,1.1928,1.0886,1.0886,1.0525,1.0283,1.0283,1.0283,1.0283,1.0283,1.0283,1.0322,1.0356,1.1926,1.23,1.1516,1.2047,1.2347,0.0,0.0,-1.9462,-1.6552,0.0,0.0,0.0,0.0,0.0,0.0,0.0,0.0,0.0,0.0,-1.153,-1.0087,-0.9619,0.0,0.0,0.0,0.0,0.0,0.0,0.0,0.0,0.0,0.0,0.0,-1.1986,0.0,0.0,-1.7681,-1.919,-2.0973,-2.2078,-2.3094,-2.4019,-2.4334,-2.45,-2.45,-2.45,-2.4402,-2.4248,-2.4247,-2.4182,-2.4059,-2.3987,-2.3985,-2.4025,-2.3946,-2.3926,-2.3976,-2.4074,-2.3946,-2.3052,-1.7519,-1.412,-1.1735,-0.8185,-0.3164,0.1802,0.2772,0.6636,1.1053,1.1823,1.1977,1.1877,1.1877,1.1877,1.2161,1.3484,1.36,1.3339,1.3339,1.3113,1.2881,1.2881,1.2881,1.2881,1.2881,1.2881,1.2881,1.2881,1.2735,1.2529,1.2175,1.2076,1.2076,1.2076,1.2067,1.2447,1.3467,1.3615,1.3615,1.3615,1.1923,1.0886,1.0886,1.0761,1.0684,1.0684,1.0443,1.0283,1.0283,1.0283,1.0283,1.0283,1.1255,1.1553,1.133,1.1974,1.2305,-2.2041,-2.1728,0.0,-1.8632,-1.7409,0.0,-1.3935,0.0,0.0,0.0,0.0,0.0,0.0,0.0,0.0,-1.1357,-1.0234,0.0,0.0,0.0,0.0,0.0,0.0,0.0,0.0,0.0,-0.8699,-1.0458,0.0,0.0,0.0,0.0,-1.7989,-1.9775,-2.1447,-2.2741,-2.3636,-2.421,-2.45,-2.45,-2.45,-2.4411,-2.4248,-2.4303,-2.4238,-2.4107,-2.4047,-2.4045,-2.4045,-2.3917,-2.3876,-2.3917,-2.4016,-2.3967,-2.3413,-1.9908,-1.8375,-1.728,-1.1803,-0.7325,-0.3664,-0.1421,0.283,0.7602,1.0603,1.1569,1.1723,1.2026,1.2076,1.2412,1.3689,1.3552,1.3233,1.3936,1.3621,1.3109,1.3007,1.3012,1.2968,1.2929,1.2881,1.2881,1.2881,1.2881,1.273,1.2175,1.2076,1.2076,1.2076,1.1623,1.1665,1.2691,1.2783,1.2735,1.2665,1.1551,1.0886,1.0886,1.0886,1.0886,1.0886,1.0641,1.052,1.052,1.0361,1.0283,1.0283,1.0692,1.1035,1.133,1.2083,1.2377]},{"header":{"parameterUnit":"m.s-1","parameterCategory":1,"la1":30.6,"la2":29.2853,"lo1":-89.7004,"lo2":-87.6739,"dy":0.0162,"dx":0.0183,"nx":112,"ny":82,"refTime":"2025-05-30T12:00:00:Z","depth":0,"parameterNumber":3,"parameterNumberName":"V-component_of_WINDS"},"data":[0.0,0.0,0.0,0.0,0.0,0.0,0.0,0.0,0.0,0.0,0.0,0.0,0.0,0.0,0.0,0.0,0.0,0.0,0.0,0.0,0.0,0.0,0.0,0.0,0.0,0.0,0.0,0.0,0.0,0.0,0.0,0.0,0.0,0.0,0.0,0.0,0.0,0.0,0.0,0.0,0.0,0.0,0.0,0.0,0.0,0.0,0.0,0.0,0.0,0.0,0.0,0.0,0.0,0.0,0.0,0.0,0.0,0.0,0.0,0.0,0.0,0.0,0.0,0.0,0.0,0.0,0.0,0.0,0.0,0.0,0.0,0.0,0.0,0.0,0.0,0.0,0.0,0.0,0.0,0.0,0.0,0.0,0.0,0.0,0.0,0.0,0.0,0.0,0.0,0.0,0.0,-0.4191,-0.418,-0.4083,-0.3853,-0.353,-0.334,-0.3296,0.0,0.0,0.0,0.0,0.0,0.0,0.0,0.0,0.0,0.0,0.0,0.0,0.0,0.0,0.0,0.0,0.0,0.0,0.0,0.0,0.0,0.0,0.0,0.0,0.0,0.0,0.0,0.0,0.0,0.0,0.0,0.0,0.0,0.0,0.0,0.0,0.0,0.0,0.0,0.0,0.0,0.0,0.0,0.0,0.0,0.0,0.0,0.0,0.0,0.0,0.0,0.0,0.0,0.0,0.0,0.0,0.0,0.0,0.0,0.0,0.0,0.0,0.0,0.0,0.0,0.0,0.0,0.0,0.0,0.0,0.0,0.0,0.0,0.0,0.0,0.0,0.0,0.0,0.0,0.0,0.0,0.0,0.0,0.0,0.0,0.0,0.0,0.0,0.0,0.0,0.0,0.0,0.0,0.0,0.0,0.0,0.0,0.0,0.0,0.0,0.0,0.0,0.0,0.0,-0.5308,-0.5498,-0.5701,-0.546,-0.4547,-0.4455,-0.4126,-0.3354,0.0,0.0,0.0,0.0,0.0,0.0,0.0,0.0,0.0,0.0,0.0,0.0,0.0,0.0,0.0,0.0,0.0,0.0,0.0,0.0,0.0,0.0,0.0,0.0,0.0,0.0,0.0,0.0,0.0,0.0,0.0,0.0,0.0,0.0,0.0,0.0,0.0,0.0,0.0,0.0,0.0,0.0,0.0,0.0,0.0,0.0,0.0,0.0,0.0,0.0,0.0,0.0,0.0,0.0,0.0,0.0,0.0,0.0,0.0,0.0,0.0,0.0,0.0,0.0,0.0,0.0,0.0,0.0,0.0,0.0,0.0,0.0,0.0,0.0,0.0,0.0,0.0,0.0,0.0,0.0,0.0,0.0,0.0,0.0,0.0,0.0,0.0,0.0,0.0,0.0,0.0,0.0,0.0,0.0,0.0,0.0,0.0,0.0,0.0,0.0,0.0,0.0,0.0,-0.5208,-0.5596,-0.612,-0.5929,-0.5489,-0.4765,-0.4433,-0.3993,-0.3337,-0.2486,0.0,0.0,0.0,0.0,0.0,0.0,0.0,0.0,0.0,0.0,0.0,0.0,0.0,0.0,0.0,0.0,0.0,0.0,0.0,0.0,0.0,0.0,0.0,0.0,0.0,0.0,0.0,0.0,0.0,0.0,0.0,0.0,0.0,0.0,0.0,0.0,0.0,0.0,0.0,0.0,0.0,0.0,0.0,0.0,0.0,0.0,0.0,0.0,0.0,0.0,0.0,0.0,0.0,0.0,0.0,0.0,0.0,0.0,0.0,0.0,0.0,0.0,0.0,0.0,0.0,0.0,0.0,0.0,0.0,0.0,0.0,0.0,0.0,0.0,0.0,0.0,0.0,0.0,0.0,0.0,0.0,0.0,0.0,0.0,0.0,0.0,0.0,0.0,0.0,0.0,0.0,0.0,0.0,0.0,0.0,0.0,0.0,0.0,0.0,0.0,0.0,0.0,-0.5548,-0.5824,-0.6809,-0.634,-0.5686,-0.5039,-0.4539,-0.3988,-0.3333,-0.2486,0.0,0.0,0.0,0.0,0.0,0.0,0.0,0.0,0.0,0.0,0.0,0.0,0.0,0.0,0.0,0.0,0.0,0.0,0.0,0.0,0.0,0.0,0.0,0.0,0.0,0.0,0.0,0.0,0.0,0.0,0.0,0.0,0.0,0.0,0.0,0.0,0.0,0.0,0.0,0.0,0.0,0.0,0.0,0.0,0.0,0.0,0.0,0.0,0.0,0.0,0.0,0.0,0.0,0.0,0.0,0.0,0.0,0.0,0.0,0.0,0.0,0.0,0.0,0.0,0.0,0.0,0.0,0.0,0.0,0.0,0.0,0.0,0.0,0.0,0.0,0.0,0.0,0.0,0.0,0.0,0.0,0.0,0.0,0.0,0.0,0.0,0.0,0.0,0.0,0.0,0.0,0.0,0.0,0.0,0.0,0.0,0.0,0.0,0.0,0.0,0.0,0.0,-0.6163,-0.6458,-0.8011,-0.7799,-0.6996,-0.5652,-0.5398,-0.473,-0.3378,-0.2486,0.0,0.0,0.0,0.0,0.0,0.0,0.0,0.0,0.0,0.0,0.0,0.0,0.0,0.0,0.0,0.0,0.0,0.0,0.0,0.0,0.0,0.0,0.0,0.0,0.0,0.0,0.0,0.0,0.0,0.0,0.0,0.0,0.0,0.0,0.0,0.0,0.0,0.0,0.0,0.0,0.0,0.0,0.0,0.0,0.0,0.0,0.0,0.0,0.0,0.0,0.0,0.0,0.0,0.0,0.0,0.0,0.0,0.0,0.0,0.0,0.0,0.0,0.0,0.0,0.0,0.0,0.0,0.0,0.0,0.0,0.0,0.0,0.0,0.0,0.0,0.0,0.0,0.0,0.0,0.0,0.0,0.0,0.0,0.0,0.0,0.0,0.0,0.0,0.0,0.0,0.0,0.0,0.0,0.0,0.0,0.0,0.0,0.0,0.0,0.0,0.0,0.0,-0.628,-0.6593,0.0,-0.7953,-0.7055,-0.5889,-0.5431,-0.4734,-0.3615,0.0,0.0,0.0,0.0,0.0,0.0,0.0,0.0,0.0,0.0,0.0,0.0,0.0,0.0,0.0,0.0,0.0,0.0,0.0,0.0,0.0,0.0,0.0,0.0,0.0,0.0,0.0,0.0,0.0,0.0,0.0,0.0,0.0,0.0,0.0,0.0,0.0,0.0,0.0,0.0,0.0,0.0,0.0,0.0,0.0,0.0,0.0,0.0,0.0,0.0,0.0,0.0,0.0,0.0,0.0,0.0,0.0,0.0,0.0,0.0,0.0,0.0,0.0,0.0,0.0,0.0,0.0,0.0,0.0,0.0,0.0,0.0,0.0,0.0,0.0,0.0,0.0,0.0,0.0,0.0,0.0,0.0,0.0,0.0,0.0,0.0,0.0,0.0,0.0,0.0,0.0,0.0,0.0,0.0,0.0,0.0,0.0,0.0,0.0,0.0,0.0,0.0,-0.6552,-0.6313,-0.6675,0.0,-0.7974,-0.7087,-0.6001,-0.5503,-0.4812,-0.3765,0.0,0.0,0.0,0.0,0.0,0.0,0.0,0.0,0.0,0.0,0.0,0.0,0.0,0.0,0.0,0.0,0.0,0.0,0.0,0.0,0.0,0.0,0.0,0.0,0.0,0.0,0.0,0.0,0.0,0.0,0.0,0.0,0.0,0.0,0.0,0.0,0.0,0.0,0.0,0.0,0.0,0.0,0.0,0.0,0.0,0.0,0.0,0.0,0.0,0.0,0.0,0.0,0.0,0.0,0.0,0.0,0.0,0.0,0.0,0.0,0.0,0.0,0.0,0.0,0.0,0.0,0.0,0.0,0.0,0.0,0.0,0.0,0.0,0.0,0.0,0.0,0.0,0.0,0.0,0.0,0.0,0.0,0.0,0.0,0.0,0.0,0.0,0.0,0.0,0.0,0.0,0.0,0.0,0.0,0.0,0.0,0.0,0.0,0.0,0.0,0.0,0.0,-0.6251,-0.6281,-0.6734,-0.8152,-0.8,-0.729,-0.6012,-0.5717,-0.506,0.0,0.0,0.0,0.0,0.0,0.0,0.0,0.0,0.0,0.0,0.0,0.0,0.0,0.0,0.0,0.0,0.0,0.0,0.0,0.0,0.0,0.0,0.0,0.0,0.0,0.0,0.0,0.0,0.0,0.0,0.0,0.0,0.0,0.0,0.0,0.0,0.0,0.0,0.0,0.0,0.0,0.0,0.0,0.0,0.0,0.0,0.0,0.0,0.0,0.0,0.0,0.0,0.0,0.0,0.0,0.0,0.0,0.0,0.0,0.0,0.0,0.0,0.0,0.0,0.0,0.0,0.0,0.0,0.0,0.0,0.0,0.0,0.0,0.0,0.0,0.0,0.0,0.0,0.0,0.0,0.0,0.0,0.0,0.0,0.0,0.0,0.0,0.0,0.0,0.0,0.0,0.0,0.0,0.0,0.0,0.0,0.0,0.0,0.0,0.0,0.0,0.0,0.0,-0.6251,-0.6281,-0.6741,-0.8146,-0.7999,-0.7358,-0.6274,-0.582,-0.5166,-0.4123,0.0,0.0,0.0,0.0,0.0,0.0,0.0,0.0,0.0,0.0,0.0,0.0,0.0,0.0,0.0,0.0,0.0,0.0,0.0,0.0,0.0,0.0,0.0,0.0,0.0,0.0,0.0,0.0,0.0,0.0,0.0,0.0,0.0,0.0,0.0,0.0,0.0,0.0,0.0,0.0,0.0,0.0,0.0,0.0,0.0,0.0,0.0,0.0,0.0,0.0,0.0,0.0,0.0,0.0,0.0,0.0,0.0,0.0,0.0,0.0,0.0,0.0,0.0,0.0,0.0,0.0,0.0,0.0,0.0,0.0,0.0,0.0,0.0,0.0,0.0,0.0,0.0,0.0,0.0,0.0,0.0,0.0,0.0,0.0,0.0,0.0,0.0,0.0,0.0,0.0,0.0,0.0,0.0,0.0,0.0,0.0,0.0,0.0,0.0,0.0,0.0,0.0,-0.631,-0.6442,-0.6899,-0.8088,-0.7966,-0.7395,-0.6395,-0.5966,-0.5273,-0.4115,0.0,0.0,0.0,0.0,0.0,0.0,0.0,0.0,0.0,0.0,0.0,0.0,0.0,0.0,0.0,0.0,0.0,0.0,0.0,0.0,0.0,0.0,0.0,0.0,0.0,0.0,0.0,0.0,0.0,0.0,0.0,0.0,0.0,0.0,0.0,0.0,0.0,0.0,0.0,0.0,0.0,0.0,0.0,0.0,0.0,0.0,0.0,0.0,0.0,0.0,0.0,0.0,0.0,0.0,0.0,0.0,0.0,0.0,0.0,0.0,0.0,0.0,0.0,0.0,0.0,0.0,0.0,0.0,0.0,0.0,0.0,0.0,0.0,0.0,0.0,0.0,0.0,0.0,0.0,0.0,0.0,0.0,0.0,0.0,0.0,0.0,0.0,0.0,0.0,0.0,0.0,0.0,0.0,0.0,0.0,0.0,0.0,0.0,0.0,0.0,0.0,0.0,-0.6386,-0.6696,-0.7162,-0.8039,-0.7944,-0.7428,-0.6406,-0.6129,-0.5386,-0.394,0.0,0.0,0.0,0.0,0.0,0.0,0.0,0.0,0.0,0.0,0.0,0.0,0.0,0.0,0.0,0.0,0.0,0.0,0.0,0.0,0.0,0.0,0.0,0.0,0.0,0.0,0.0,0.0,0.0,0.0,0.0,0.0,0.0,0.0,0.0,0.0,0.0,0.0,0.0,0.0,0.0,0.0,0.0,0.0,0.0,0.0,0.0,0.0,0.0,0.0,0.0,0.0,0.0,0.0,0.0,0.0,0.0,0.0,0.0,0.0,-0.4698,0.0,0.0,0.0,0.0,0.0,0.0,0.0,0.0,0.0,0.0,0.0,0.0,0.0,0.0,0.0,0.0,0.0,0.0,0.0,0.0,0.0,0.0,0.0,0.0,0.0,0.0,0.0,0.0,0.0,0.0,0.0,0.0,0.0,0.0,0.0,0.0,0.0,0.0,0.0,0.0,0.0,-0.6325,-0.6826,-0.7437,-0.8242,-0.8204,-0.768,-0.6628,-0.6201,-0.5486,-0.427,-0.3809,0.0,0.0,0.0,0.0,0.0,0.0,0.0,0.0,0.0,0.0,0.0,0.0,0.0,0.0,0.0,0.0,0.0,0.0,0.0,0.0,0.0,0.0,0.0,0.0,0.0,0.0,0.0,0.0,0.0,0.0,0.0,0.0,0.0,0.0,0.0,0.0,0.0,0.0,0.0,0.0,0.0,0.0,0.0,0.0,0.0,0.0,0.0,0.0,0.0,0.0,0.0,0.0,0.0,0.0,0.0,0.0,0.0,0.0,0.0,0.0,-0.5286,0.0,0.0,0.0,0.0,0.0,0.0,0.0,0.0,0.0,0.0,0.0,0.0,0.0,0.0,0.0,0.0,0.0,0.0,0.0,0.0,0.0,0.0,0.0,0.0,0.0,0.0,0.0,0.0,0.0,0.0,0.0,0.0,0.0,0.0,0.0,0.0,0.0,0.0,0.0,0.0,-0.6545,-0.7059,-0.7669,-0.8546,-0.8472,-0.8007,-0.7194,-0.6603,-0.584,-0.4801,-0.4145,0.0,0.0,0.0,0.0,0.0,0.0,0.0,0.0,0.0,0.0,0.0,0.0,0.0,0.0,0.0,0.0,0.0,0.0,0.0,0.0,0.0,0.0,0.0,0.0,0.0,0.0,0.0,0.0,0.0,0.0,0.0,0.0,0.0,0.0,0.0,0.0,0.0,0.0,0.0,0.0,0.0,0.0,0.0,0.0,0.0,0.0,0.0,0.0,0.0,0.0,0.0,0.0,0.0,-1.1455,-1.0067,-0.8991,-0.9482,-0.9688,-0.9617,-0.8505,-0.7648,-0.6918,0.0,0.0,0.0,0.0,0.0,0.0,0.0,0.0,0.0,0.0,0.0,0.0,0.0,0.0,0.0,0.0,0.0,0.0,0.0,0.0,0.0,0.0,0.0,0.0,0.0,-0.717,-0.7076,0.0,0.0,0.0,0.0,0.0,0.0,0.0,0.0,0.0,0.0,0.0,0.0,-0.6911,-0.7421,-0.803,-0.8876,-0.8744,-0.8354,-0.7804,-0.7168,-0.6368,-0.5371,-0.4658,-0.3914,0.0,0.0,0.0,0.0,0.0,0.0,0.0,0.0,0.0,0.0,0.0,0.0,0.0,0.0,0.0,0.0,0.0,0.0,0.0,0.0,0.0,0.0,0.0,0.0,0.0,0.0,0.0,0.0,0.0,0.0,0.0,0.0,-0.2439,-0.2181,0.0,0.0,0.0,0.0,0.0,0.0,0.0,0.0,0.0,0.0,0.0,0.0,0.0,-0.5307,-0.5768,-1.159,-1.4706,-1.5103,-1.4237,-1.346,-1.2868,-1.3399,-1.3323,-1.2786,-1.2605,0.0,-0.8869,-0.8115,0.0,0.0,0.0,0.0,0.0,0.0,0.0,0.0,0.0,0.0,0.0,0.0,0.0,0.0,0.0,0.0,0.0,0.0,0.0,0.0,0.0,0.0,-0.8512,-0.7885,-0.7792,-0.7772,0.0,-0.6839,-0.6216,-0.6304,-0.5875,0.0,0.0,0.0,0.0,0.0,0.0,0.0,-0.7257,-0.8043,-0.8695,-0.9122,-0.903,-0.8675,-0.8016,-0.7715,-0.7022,-0.5801,-0.5772,-0.5422,-0.4562,-0.388,0.0,0.0,0.0,0.0,0.0,0.0,0.0,0.0,0.0,0.0,0.0,0.0,0.0,0.0,0.0,0.0,0.0,0.0,0.0,0.0,0.0,0.0,0.0,0.0,0.0,0.0,0.0,0.0,0.0,-0.2459,-0.2967,-0.2633,-0.3247,-0.3499,0.0,0.0,0.0,0.0,0.0,0.0,0.0,0.0,0.0,-0.9476,-0.819,-0.8461,-1.0501,-1.3194,-1.518,-1.6441,-1.5479,-1.4993,-1.5031,-1.5581,-1.5369,-1.4601,-1.4808,-1.4117,-1.2657,-1.1247,-0.9759,-0.8169,0.0,0.0,0.0,0.0,-0.7293,-0.7935,-0.8305,-0.8732,0.0,-0.9552,0.0,0.0,0.0,0.0,0.0,0.0,0.0,0.0,0.0,0.0,-0.953,-0.9307,-0.9475,-0.953,-0.8934,-0.8412,-0.7862,0.0,-0.7103,-0.6754,-0.572,0.0,0.0,0.0,0.0,0.0,-0.7713,-0.833,-0.8863,-0.9309,-0.9275,-0.9101,-0.8757,-0.8205,-0.7514,-0.6689,-0.6198,-0.5589,-0.4834,-0.4457,-0.4061,0.0,0.0,0.0,0.0,0.0,0.0,0.0,0.0,0.0,0.0,0.0,0.0,0.0,0.0,0.0,0.0,0.0,0.0,0.0,0.0,0.0,0.0,0.0,0.0,0.0,0.0,0.0,0.0,-0.3017,-0.371,-0.3305,-0.4261,-0.4718,0.0,0.0,0.0,0.0,0.0,0.0,-0.796,-0.923,-1.0625,-1.2107,-1.1342,-1.1964,-1.4199,-1.4513,-1.5513,-1.7192,-1.6487,-1.63,-1.6618,-1.7074,-1.6985,-1.6369,-1.6518,-1.6518,-1.6206,-1.4284,-1.2443,-1.0704,-0.9699,-0.962,-1.0049,-0.9967,-1.0062,-1.0313,-1.0749,-1.1245,-1.1603,-1.1044,0.0,-1.0745,-0.9176,0.0,0.0,0.0,0.0,-0.9377,-1.0229,-1.0576,-1.0687,-1.0714,-1.0906,-1.0882,-1.0095,-0.992,-0.95,0.0,-0.8087,-0.7824,-0.644,0.0,0.0,0.0,0.0,-0.7618,-0.8192,-0.8627,-0.9055,-0.9449,-0.9448,-0.9397,-0.9328,-0.8598,-0.7927,-0.7408,-0.6551,-0.5765,-0.5131,-0.4977,-0.4564,-0.3822,0.0,0.0,0.0,0.0,0.0,0.0,0.0,0.0,0.0,0.0,0.0,0.0,0.0,0.0,0.0,0.0,0.0,0.0,0.0,0.0,0.0,0.0,0.0,0.0,0.0,0.0,0.0,0.0,0.0,-0.4295,-0.5677,0.0,0.0,0.0,0.0,-0.738,-0.8861,-1.0072,-1.0843,-1.282,-1.4069,-1.4435,-1.5282,-1.5636,-1.5415,-1.648,-1.7088,-1.7199,-1.7653,-1.7873,-1.7933,-1.8249,-1.8545,-1.8691,-1.8136,-1.8214,-1.8582,-1.6718,-1.5421,-1.4657,-1.4973,-1.5117,-1.506,-1.4359,-1.4099,-1.4,-1.3073,-1.2808,-1.2899,-1.3369,-1.296,-1.2197,-1.1577,-1.0827,0.0,0.0,-1.168,-1.2154,-1.2465,-1.2571,-1.2427,-1.1922,-1.1441,-1.1081,-1.1027,-1.1021,-1.0546,0.0,-0.8255,-0.7796,-0.74,0.0,-0.7501,-0.7326,-0.7886,-0.8416,-0.8639,-0.9133,-0.9461,-0.9491,-0.9493,-0.9471,-0.9406,-0.8885,-0.8293,-0.7628,-0.7064,-0.6512,-0.5963,-0.5449,-0.5185,-0.5199,-0.4088,0.0,0.0,0.0,0.0,0.0,0.0,0.0,0.0,0.0,0.0,0.0,0.0,0.0,0.0,0.0,0.0,0.0,0.0,0.0,0.0,0.0,0.0,0.0,0.0,0.0,0.0,0.0,0.0,-0.6397,-0.7912,0.0,-0.8119,-0.8847,-0.9464,-0.9773,-1.1579,-1.2789,-1.3068,-1.4314,-1.5244,-1.5742,-1.6327,-1.6754,-1.7126,-1.7736,-1.8061,-1.8152,-1.8914,-1.9147,-1.8862,-1.931,-1.9258,-1.8793,-1.8869,-1.8862,-1.8727,-1.804,-1.7417,-1.6853,-1.6692,-1.6513,-1.6342,-1.5807,-1.5477,-1.5274,-1.4993,-1.4905,-1.4935,-1.4851,-1.4386,-1.3796,-1.341,-1.3057,-1.29,-1.3295,-1.3571,-1.378,-1.4007,-1.381,-1.3336,-1.2587,-1.2281,-1.1922,-1.1243,-1.1363,-1.1333,-1.0413,-1.0083,-0.9749,-0.9068,-0.8983,-0.8932,-0.8668,-0.8828,-0.913,-0.9541,-0.9774,-0.9873,-0.9873,-0.9873,-0.9888,-0.9863,-0.9286,-0.8679,-0.8159,-0.7453,-0.6816,-0.6283,-0.5994,-0.5596,-0.5049,-0.4714,-0.4099,0.0,0.0,0.0,0.0,0.0,0.0,0.0,0.0,0.0,0.0,0.0,0.0,0.0,0.0,0.0,0.0,0.0,0.0,0.0,0.0,0.0,0.0,0.0,0.0,0.0,0.0,-0.8693,-0.8616,-1.0064,-1.0955,-1.0634,-1.14,-1.2059,-1.229,-1.3823,-1.4827,-1.4977,-1.5818,-1.6473,-1.6943,-1.7315,-1.7762,-1.8383,-1.8584,-1.8846,-1.9169,-1.9762,-1.9884,-1.9566,-1.9919,-1.9726,-1.9169,-1.9486,-1.9442,-1.9125,-1.9125,-1.8945,-1.8609,-1.7974,-1.7574,-1.7325,-1.7175,-1.687,-1.6562,-1.6328,-1.6182,-1.6053,-1.5732,-1.5476,-1.5262,-1.5049,-1.5025,-1.5152,-1.5254,-1.5292,-1.5344,-1.5461,-1.4961,-1.4267,-1.3679,-1.3243,-1.2746,-1.1995,-1.2183,-1.2403,-1.1979,-1.1459,-1.0949,-1.0448,-1.0364,-1.0299,-1.0085,-1.0122,-1.027,-1.0536,-1.0474,-1.0385,-1.0385,-1.0232,-1.0091,-1.0091,-0.93,-0.8677,-0.8419,-0.7503,-0.6819,-0.6522,-0.6284,-0.5847,-0.5153,-0.5018,-0.4511,-0.3576,0.0,0.0,0.0,0.0,0.0,0.0,0.0,0.0,0.0,0.0,0.0,0.0,0.0,0.0,0.0,0.0,0.0,0.0,0.0,0.0,0.0,0.0,0.0,-0.795,-0.9341,-1.0527,-1.0891,-1.211,-1.304,-1.3365,-1.3581,-1.4082,-1.4917,-1.5545,-1.6076,-1.656,-1.7363,-1.7935,-1.8099,-1.8454,-1.8784,-1.9101,-1.9101,-1.9435,-1.9998,-2.0084,-2.0111,-2.0111,-2.0041,-2.0033,-2.0033,-2.0041,-2.0033,-2.0033,-2.0033,-2.0033,-1.9919,-1.905,-1.8535,-1.8295,-1.8574,-1.8458,-1.798,-1.7153,-1.6557,-1.6188,-1.6188,-1.6355,-1.6552,-1.652,-1.6716,-1.6918,-1.6918,-1.6924,-1.6918,-1.6918,-1.6064,-1.5234,-1.5234,-1.4336,-1.3446,-1.3257,-1.3494,-1.3675,-1.3547,-1.2257,-1.1259,-1.151,-1.1558,-1.1545,-1.1545,-1.1748,0.0,-1.1544,-1.1235,-1.1043,-1.103,-1.0489,-1.0135,-1.0122,-0.8977,-0.8295,-0.8397,-0.725,-0.6604,-0.6723,-0.6345,-0.5989,-0.5651,-0.5041,-0.4726,-0.4711,0.0,0.0,0.0,0.0,0.0,0.0,0.0,0.0,0.0,0.0,0.0,0.0,0.0,0.0,0.0,0.0,0.0,0.0,0.0,0.0,0.0,0.0,-1.1426,-1.0403,-1.1375,-1.2592,-1.3707,-1.4654,-1.5224,-1.5333,-1.6056,-1.6626,-1.6895,-1.7494,-1.7924,-1.8103,-1.8335,-1.8465,-1.8535,-1.8938,-1.9221,-1.9303,-1.9617,-1.9876,-2.008,-2.008,-2.0158,-2.0243,-2.0467,-2.0595,-2.0595,-2.0836,-2.0795,-2.0595,-2.0595,-2.0433,-2.0158,-1.9471,-1.9169,-1.905,-1.8772,-1.8696,-1.8657,-1.8525,-1.8205,-1.7834,-1.7834,-1.77,-1.7502,-1.7529,-1.7577,-1.7631,-1.7631,-1.7747,-1.7781,-1.7523,-1.6701,-1.5871,-1.5627,-1.4706,-1.3835,-1.3789,-1.3855,-1.3901,-1.3868,-1.3513,-1.3162,-1.311,-1.2824,-1.2583,-1.2583,-1.243,0.0,-1.2217,-1.2148,-1.1909,-1.1489,-1.1288,-1.1014,-1.0561,-0.9801,-0.9196,-0.8798,-0.8027,-0.7496,-0.7285,-0.7169,-0.6945,-0.6551,-0.5858,-0.5371,0.0,0.0,0.0,0.0,0.0,0.0,0.0,0.0,0.0,0.0,0.0,0.0,0.0,0.0,0.0,0.0,0.0,0.0,0.0,0.0,0.0,0.0,-1.2491,-1.3941,-1.4185,-1.4368,-1.4885,-1.6004,-1.6481,-1.6858,-1.7174,-1.7679,-1.804,-1.8117,-1.8427,-1.8672,-1.8772,-1.893,-1.905,-1.9125,-1.9508,-1.9703,-1.9782,-2.015,-2.0357,-2.0376,-2.0538,-2.063,-2.0745,-2.0901,-2.0999,0.0,-2.1214,-2.1182,-2.0999,-2.0999,-2.0901,0.0,0.0,0.0,0.0,0.0,-1.9169,-1.9214,-1.9131,-1.8943,-1.8745,-1.8745,-1.8592,-1.8429,-1.8429,-1.8461,-1.8493,-1.8493,-1.85,-1.8429,-1.8252,-1.7304,-1.6317,-1.6109,-1.5196,-1.4324,-1.422,-1.431,-1.4413,-1.4363,-1.4381,0.0,-1.4246,-1.3866,-1.355,-1.3455,-1.3398,-1.3285,-1.3125,-1.2963,-1.2731,-1.2394,-1.1899,-1.1458,-1.1112,-1.0241,0.0,0.0,0.0,-0.8118,-0.7729,-0.7685,0.0,0.0,0.0,0.0,0.0,0.0,0.0,0.0,-0.5613,-0.576,0.0,0.0,0.0,0.0,0.0,0.0,0.0,0.0,0.0,0.0,0.0,0.0,0.0,0.0,0.0,0.0,-1.4566,-1.6123,-1.8229,-1.7699,-1.7312,-1.7834,-1.7824,-1.8044,-1.8722,-1.8762,-1.8808,-1.8848,-1.8848,-1.8923,-1.9043,0.0,0.0,0.0,0.0,-2.0247,-2.0392,-2.0695,-2.086,-2.0852,-2.115,-2.13,-2.13,-2.1339,-2.137,-2.137,-2.1401,-2.1393,-2.137,-2.1354,-2.1362,-2.1268,-2.0646,-2.0399,-2.0296,-1.9975,-1.979,-1.9726,-1.9362,0.0,0.0,-1.9169,-1.9184,-1.9199,-1.9199,-1.9251,-1.931,-1.931,-1.914,-1.9006,-1.9006,-1.7913,-1.6846,-1.6846,-1.5865,-1.4893,-1.4739,-1.4871,-1.4989,-1.4894,-1.4935,-1.5043,-1.5043,-1.4697,-1.4381,-1.4188,-1.4342,-1.4356,-1.4007,-1.3688,-1.3493,-1.3425,0.0,0.0,-1.1607,-1.0534,-0.9875,-0.9859,-0.9247,-0.8698,-0.8279,-0.8242,-0.8207,-0.8127,-0.8182,-0.8346,-0.864,-0.8738,-0.8725,-0.859,-0.7259,-0.7309,0.0,0.0,0.0,0.0,0.0,0.0,0.0,0.0,0.0,0.0,0.0,0.0,0.0,0.0,0.0,-1.5669,-1.7294,-1.8545,-1.9129,-1.9438,-1.9488,-1.9111,-1.9068,-1.9119,-1.9236,-1.9537,-1.9762,-1.9839,-1.9839,-1.9882,-2.0038,-2.008,-2.0289,-2.0587,-2.0628,-2.0811,-2.1111,-2.1182,-2.1206,-2.1206,0.0,0.0,-2.13,-2.1593,-2.1691,-2.1721,-2.1991,-2.1953,-2.1721,-2.1773,-2.1645,-2.1454,-2.1206,-2.0934,-2.0695,-2.0628,-2.0426,-2.0158,-2.008,-1.9889,-1.9645,-1.9645,-1.9485,-1.9281,-1.9281,-1.9281,0.0,-1.931,-1.942,-1.9566,-1.9566,-1.8872,-1.8226,-1.8226,-1.7027,-1.5929,-1.5898,-1.5547,-1.5238,-1.5215,-1.5215,-1.5238,-1.5238,-1.4949,-1.4655,-1.4445,-1.447,-1.4413,-1.4261,-1.4166,-1.3941,-1.3459,-1.3201,-1.2665,-1.1675,-1.1562,-1.1154,-1.0257,-1.0062,-0.9953,-0.9867,-1.0147,-1.0073,-0.9521,-0.9524,-0.9303,-0.8846,-0.9178,-0.9341,-0.9289,-0.8482,-0.8431,0.0,0.0,0.0,0.0,0.0,0.0,0.0,0.0,0.0,0.0,0.0,-1.1785,-1.3992,0.0,-1.6175,-1.7931,-1.8919,-1.9664,-2.0105,-2.0403,-2.0439,-2.0035,-2.0124,-2.0254,-2.0348,-2.0473,-2.0581,-2.0689,-2.0689,-2.0722,-2.0803,-2.0803,-2.0869,-2.1031,-2.1063,-2.1119,-2.13,-2.1471,-2.1562,-2.1562,-2.1721,-2.1819,-2.1869,-2.2032,-2.2126,-2.2155,-2.2321,-2.2313,-2.2147,-2.2175,-2.211,-2.1978,-2.1928,-2.1584,-2.1158,-2.1158,-2.0934,-2.0671,-2.0828,-2.0681,-2.0398,-2.0398,-2.0314,-2.0204,-2.0062,-2.0019,-2.0054,-2.0054,-2.0042,-2.0065,-2.0065,-1.9425,-1.8789,-1.8789,-1.767,-1.6589,-1.6589,-1.6001,-1.5448,-1.5448,-1.5366,-1.5313,-1.5313,-1.5154,-1.4956,-1.4686,-1.4655,-1.4567,-1.4326,-1.4293,-1.4178,-1.3886,-1.3757,-1.3463,-1.2858,-1.2483,-1.1913,-1.1009,-1.0887,-1.0821,-1.0743,-1.0881,-1.0792,-1.0471,-1.0488,-1.0322,-0.9951,-1.0193,-1.0228,-1.0102,-0.976,-0.9619,0.0,0.0,0.0,0.0,0.0,0.0,0.0,0.0,-1.0936,-1.3209,-1.3529,-1.4222,-1.697,-1.738,-1.7954,-1.9884,-2.0145,-2.0305,-2.0919,-2.0991,-2.0958,-2.0828,-2.095,-2.1103,-2.1268,-2.1181,-2.1181,-2.13,-2.13,-2.13,-2.13,-2.13,-2.1331,-2.1401,-2.1401,-2.1432,-2.1493,-2.1789,-2.1915,-2.1915,-2.22,-2.2366,-2.2413,-2.2413,-2.246,-2.2506,-2.256,-2.2587,-2.2587,-2.2587,-2.2587,-2.2533,-2.2533,-2.2223,-2.1726,-2.1637,-2.1376,-2.1134,-2.1424,-2.1323,-2.1126,-2.1126,-2.1206,-2.1269,-2.0998,-2.0901,-2.0893,-2.0893,-2.0679,-2.0478,-2.0478,-1.9865,-1.9226,-1.9081,-1.8096,-1.7159,-1.7022,-1.6292,-1.5689,-1.5689,-1.5558,-1.5455,-1.5455,-1.5395,-1.5238,-1.4887,-1.4832,-1.4707,-1.4422,-1.439,-1.4422,-1.4447,-1.4324,-1.4263,-1.4184,-1.3263,-1.2478,-1.1985,-1.1732,-1.1535,-1.1399,-1.13,-1.1202,-1.1167,-1.1209,-1.1189,-1.107,-1.108,-1.0998,-1.0784,-1.0851,-1.064,-0.6766,-0.7527,-0.9239,-1.0239,-1.0804,-1.1808,0.0,0.0,-1.5375,-1.6837,-1.7823,-1.8708,-1.9719,-2.008,-2.0539,-2.144,-2.1342,-2.118,-2.1308,-2.1347,-2.1386,-2.1556,-2.1324,-2.1198,-2.1198,-2.1237,-2.1268,-2.13,-2.13,-2.13,-2.13,-2.13,-2.1432,-2.1721,-2.1751,-2.1886,-2.2189,-2.2293,-2.2321,-2.2321,-2.2432,-2.2487,-2.2487,-2.2487,-2.2479,-2.2506,-2.2756,-2.2893,-2.2936,-2.2936,-2.2833,-2.2685,-2.2685,-2.2624,-2.2508,-2.2113,-2.1718,-2.1454,-2.1485,-2.1507,-2.1521,-2.1521,-2.1606,-2.173,-2.17,-2.1456,-2.1246,-2.1246,-2.1023,-2.0761,-2.0761,-2.0491,-2.0071,-1.942,-1.855,-1.7722,-1.7053,-1.6409,-1.5947,-1.5947,-1.5947,-1.5919,-1.5919,-1.5718,-1.5426,-1.5043,-1.488,-1.4801,-1.4739,-1.4739,-1.4794,-1.4921,-1.51,-1.5117,-1.4806,-1.373,-1.3083,-1.3192,-1.2629,-1.2228,-1.2094,-1.2075,-1.1951,-1.1731,-1.1719,-1.1592,-1.1363,-1.1187,-1.1092,-1.1052,-1.1349,-1.1198,-1.0491,-1.105,0.0,0.0,-1.4699,-1.5731,-1.7389,-1.7631,-1.7956,-1.9527,-2.0073,-2.0522,-2.1421,-2.1675,-2.184,0.0,-2.2089,-2.2003,-2.2032,-2.2059,-2.2119,-2.2211,-2.2214,-2.2091,-2.1848,-2.1915,-2.1936,-2.1936,-2.1995,-2.1986,-2.1928,-2.2084,-2.2226,-2.2307,-2.2473,-2.2608,-2.2764,-2.279,-2.2824,-2.2866,-2.2891,-2.2916,-2.2966,-2.2966,-2.2991,-2.304,-2.3129,-2.3209,-2.3242,-2.3242,-2.3194,-2.3122,-2.3122,-2.3051,-2.2885,-2.2553,-2.2198,-2.1944,-2.2141,-2.2104,-2.1965,-2.1965,-2.2002,-2.199,-2.1848,-2.17,-2.1579,-2.1579,-2.1487,-2.1324,-2.1143,-2.1023,-2.071,-1.9806,-1.8968,-1.8221,-1.7516,-1.674,-1.6163,-1.6163,-1.608,-1.6004,-1.6004,-1.5919,-1.5769,-1.5544,-1.5179,-1.4897,-1.4866,-1.4897,-1.5081,-1.5543,-1.5675,-1.5632,-1.5335,-1.4834,-1.4429,-1.4128,-1.3807,-1.3598,-1.3538,-1.3456,-1.3188,-1.2679,-1.2642,-1.2486,-1.2214,-1.1935,-1.1936,-1.2211,-1.2142,-1.198,-1.3284,0.0,0.0,-1.6652,-1.7987,-1.9095,-1.9673,-1.9819,-2.017,-2.1447,-2.1563,-2.1644,-2.2385,-2.2515,0.0,-2.2515,-2.2515,-2.2506,-2.2535,-2.2581,-2.2617,-2.2669,-2.2822,-2.2789,-2.2553,-2.2553,-2.2598,-2.2598,-2.2659,-2.2677,-2.2624,-2.2799,-2.2884,-2.2833,-2.3042,-2.3129,-2.3126,-2.315,-2.3304,-2.3564,-2.3342,-2.3407,-2.3658,-2.3421,-2.3392,-2.3513,-2.3513,-2.3513,-2.3513,-2.3513,-2.3468,-2.3392,-2.3392,-2.3303,-2.3157,-2.2951,-2.266,-2.2356,-2.2624,-2.2544,-2.2328,-2.2328,-2.2328,-2.2301,-2.2101,-2.1986,-2.192,-2.192,-2.1869,-2.173,-2.1495,-2.1433,-2.1136,-1.9996,-1.9289,-1.8601,-1.7705,-1.6905,-1.6375,-1.6375,-1.6274,-1.6163,-1.6163,-1.6108,-1.6039,-1.5942,-1.5536,-1.5195,-1.5165,-1.5247,-1.5521,-1.6052,-1.6136,-1.6065,-1.5886,-1.5698,-1.5399,-1.49,-1.464,-1.4484,-1.4484,-1.4358,-1.4054,-1.3559,-1.3498,-1.3367,-1.318,-1.2783,-1.274,-1.3081,-1.2843,-1.2745,0.0,0.0,-1.8176,-1.8307,-1.9845,-2.1302,-2.1327,-2.1874,-2.2393,-2.2472,-2.2453,-2.2453,-2.2479,-2.2515,-2.2515,-2.2515,-2.2515,-2.2508,-2.2582,-2.26,-2.2669,-2.2864,-2.2898,-2.2947,0.0,-2.3069,-2.3069,-2.3069,-2.315,-2.3174,-2.3174,-2.3165,-2.3198,-2.3165,-2.3189,-2.3198,-2.3198,-2.3268,-2.3682,-2.4453,-2.3743,-2.3793,-2.454,-2.374,-2.3544,-2.3795,-2.3795,-2.3795,-2.3795,-2.3795,-2.364,-2.3392,-2.3392,-2.3401,-2.3392,-2.3369,-2.3089,-2.2685,-2.2712,-2.2685,-2.2677,-2.2677,-2.2677,-2.2677,-2.2685,-2.2455,-2.2192,-2.2192,-2.199,-2.1789,-2.1789,-2.1781,-2.1425,-1.9959,-1.9397,-1.8778,-1.7324,-1.6779,-1.6588,-1.6588,-1.6596,-1.6588,-1.6588,-1.6371,-1.6159,-1.6011,-1.5877,-1.577,-1.577,-1.5926,-1.6151,-1.6363,-1.6455,-1.652,-1.6557,-1.5967,-1.5597,-1.5581,-1.4892,-1.4484,-1.4397,-1.4326,-1.4246,-1.4167,-1.4167,-1.4175,-1.4151,-1.3561,-1.3269,-1.3298,-1.3349,-1.3384,0.0,0.0,-1.956,-2.0381,-2.1577,-2.2527,-2.2527,-2.2728,-2.2885,-2.2885,-2.2519,-2.2179,-2.2179,-2.2185,-2.224,-2.224,-2.2759,-2.3175,-2.3197,-2.3274,-2.3344,-2.3422,-2.3518,0.0,0.0,0.0,0.0,-2.3221,-2.3291,-2.3314,-2.3268,-2.3446,-2.3513,-2.3468,-2.364,-2.4018,-2.4586,-2.4617,-2.5047,-2.5877,-2.5692,-2.5451,-2.5198,-2.4924,-2.4562,-2.4135,-2.4135,-2.4135,-2.4135,-2.4135,-2.4087,-2.399,-2.3941,-2.389,-2.3795,-2.3744,-2.3509,-2.3218,-2.3068,-2.2919,-2.2756,-2.2816,-2.2833,-2.2808,-2.279,-2.2721,-2.2651,-2.2553,-2.2499,-2.2409,-2.2133,-2.2076,-2.1759,-2.0597,-1.9899,-1.9207,-1.8201,-1.7393,-1.6866,-1.6866,-1.672,-1.6588,-1.6588,-1.6517,-1.6363,-1.606,-1.5883,-1.5826,-1.5919,-1.6116,-1.6281,-1.639,-1.6417,-1.649,-1.6588,-1.6402,-1.6267,-1.6267,-1.6003,-1.5818,-1.5785,-1.5697,-1.5418,-1.4935,-1.4893,-1.4868,-1.4868,-1.42,-1.4138,-1.4616,-1.419,-1.4002,-1.8736,-2.0291,-2.1238,-2.2242,-2.2934,-2.3394,-2.3394,-2.331,-2.3168,-2.2862,-2.2177,-2.1523,-2.1251,-2.1021,-2.1081,-2.1648,-2.2256,-2.2856,-2.3495,-2.3647,-2.3738,-2.3864,-2.3987,0.0,0.0,0.0,0.0,-2.3588,-2.3649,-2.3788,-2.4046,-2.4203,-2.4444,-2.4771,-2.4876,-2.5263,-2.5976,-2.5908,-2.6196,-2.6822,-2.7157,-2.6898,-2.6133,-2.5817,-2.5408,-2.4895,-2.459,-2.4478,-2.4469,-2.44,-2.4365,-2.4365,-2.4266,-2.4182,-2.4095,-2.4066,-2.3878,-2.3649,-2.3431,-2.3166,-2.2961,-2.3028,-2.2977,-2.2885,-2.2859,-2.2868,-2.2885,-2.279,-2.2816,-2.2782,-2.2527,-2.2465,-2.2214,-2.1278,-2.0412,-1.9596,-1.8818,-1.784,-1.7109,-1.7018,-1.6866,-1.6712,-1.6623,-1.6588,-1.6482,-1.6199,-1.6072,-1.5988,-1.594,-1.6163,-1.6355,-1.6436,-1.6471,-1.649,-1.6562,-1.6588,-1.6588,-1.6562,-1.6509,-1.6448,-1.6448,-1.6328,-1.6045,-1.5639,-1.5594,-1.5549,-1.5549,-1.4915,-1.4841,-1.5292,-1.4599,-1.4293,-2.1475,-2.2441,-2.3171,-2.3762,-2.3901,-2.3896,-2.3896,-2.3671,-2.324,-2.2459,-2.1478,-2.0539,0.0,0.0,-1.9233,-2.0822,-2.1179,-2.184,-2.3496,-2.3741,-2.3869,0.0,0.0,0.0,0.0,0.0,0.0,-2.4281,0.0,-2.4614,-2.5377,-2.5479,-2.5937,-2.6898,-2.674,-2.682,-2.7264,-2.7101,-2.7137,-2.7346,-2.8096,-2.8075,-2.7343,-2.6518,-2.6122,-2.6037,-2.5257,-2.4927,-2.4912,-2.4732,-2.4643,-2.4627,-2.4495,-2.4423,-2.4386,-2.4367,-2.4228,-2.3987,-2.3735,-2.3459,-2.3232,-2.3301,-2.3142,-2.2936,-2.2936,-2.291,-2.291,-2.2885,-2.2885,-2.291,-2.2885,-2.2885,-2.2711,-2.1949,-2.0957,-1.9989,-1.9161,-1.8172,-1.7345,-1.7085,-1.7018,-1.6917,-1.6641,-1.6528,-1.6474,-1.6409,-1.639,-1.6274,-1.5868,-1.6156,-1.6444,-1.6493,-1.6562,-1.6562,-1.6501,-1.6562,-1.6562,-1.6501,-1.6436,-1.639,-1.639,-1.6269,-1.6194,-1.6194,-1.6194,-1.6194,-1.6159,-1.5595,-1.5292,-1.5262,-1.4599,-1.4293,-2.227,-2.3171,-2.3717,-2.3859,-2.3894,-2.3892,-2.3908,-2.3374,-2.2826,-2.2578,-2.0463,-1.8792,0.0,0.0,0.0,-2.0495,-2.2255,0.0,-2.4155,-2.422,0.0,0.0,0.0,-2.4793,-2.5429,-2.5536,0.0,0.0,-2.5828,-2.5566,-2.5772,-2.6389,-2.6864,-2.7122,-2.7079,-2.7387,-2.8084,-2.8633,-2.896,-2.9081,-2.9272,-2.9011,-2.8335,-2.8108,-2.7653,-2.7034,-2.6835,-2.674,-2.673,-2.6677,-2.6662,-2.6647,-2.6467,-2.6025,-2.5463,-2.5328,-2.4866,-2.4312,-2.4284,-2.395,-2.3571,-2.3646,-2.3513,-2.3333,-2.3286,-2.3175,-2.3036,-2.2936,-2.2944,-2.2961,-2.291,-2.2885,-2.2841,-2.2574,-2.1451,-2.0343,-2.0074,-1.8809,-1.7689,-1.7612,-1.7264,-1.6917,-1.6641,-1.6528,-1.6493,-1.6482,-1.6436,-1.6363,-1.6274,-1.6336,-1.6444,-1.6493,-1.6528,-1.6528,-1.6562,-1.6588,-1.6588,-1.6588,-1.6463,-1.639,-1.639,-1.6269,-1.6194,-1.6194,-1.6194,-1.6067,-1.5839,-1.5463,-1.5172,-1.4918,-1.4486,-1.4293,-2.3424,-2.3993,-2.4247,-2.4247,-2.4238,-2.4054,-2.3317,-2.2435,-2.1458,-2.028,-1.811,0.0,0.0,0.0,0.0,0.0,0.0,0.0,-2.4245,-2.4417,-2.4614,0.0,-2.5236,0.0,-2.6554,-2.6678,-2.6901,0.0,-2.6836,-2.6618,-2.6975,-2.7454,-2.7938,-2.8372,-2.8297,-2.8514,-2.9053,-2.9593,-2.9876,-2.9931,-2.9931,-2.9739,-2.9389,-2.9045,-2.8611,-2.8131,0.0,-2.7612,-2.7612,-2.7517,-2.7494,-2.7466,-2.7289,-2.6959,-2.6497,-2.5931,-2.5444,-2.4996,-2.4628,-2.4303,-2.4039,-2.3959,-2.3795,-2.362,-2.3486,-2.3365,-2.3247,-2.3036,-2.3011,-2.3045,-2.2986,-2.297,-2.2944,-2.2859,-2.163,-2.0584,-2.0866,-1.9373,-1.7939,-1.7811,-1.7369,-1.6934,-1.6789,-1.6659,-1.6528,-1.6528,-1.6509,-1.6498,-1.6498,-1.6463,-1.6482,-1.6535,-1.6528,-1.6554,-1.6562,-1.6588,-1.6562,-1.6525,-1.6444,-1.639,-1.6363,-1.6269,-1.6194,-1.6194,-1.6194,-1.6032,-1.571,-1.5433,-1.5126,-1.4801,-1.4454,-1.4293,-2.451,-2.4707,-2.4707,-2.4707,-2.4695,-2.4267,-2.259,-2.133,-1.9828,-1.7387,0.0,0.0,-1.43,0.0,-1.6721,-1.9082,0.0,-2.2662,-2.417,-2.4504,-2.4942,-2.594,-2.6167,-2.6654,-2.7755,-2.7864,-2.7912,-2.8026,-2.7769,-2.7858,-2.8452,-2.8576,-2.904,-2.9918,-2.9786,-2.9769,-2.9953,-3.0128,-3.0213,-3.0211,-3.0211,-3.0241,-3.0285,-2.9584,-2.926,-2.9217,-2.8525,0.0,-2.8227,-2.8037,-2.7972,-2.7959,-2.7818,-2.7638,-2.7324,-2.6406,-2.5922,-2.5618,-2.4791,-2.45,-2.4456,-2.4229,-2.401,-2.3816,-2.3633,-2.354,-2.3449,-2.3223,-2.3135,-2.3086,-2.3086,-2.3036,-2.2986,-2.2919,-2.1765,-2.0835,-2.1453,-1.9892,-1.8229,-1.7881,-1.7393,-1.7043,-1.7018,-1.6789,-1.6588,-1.6588,-1.6588,-1.6588,-1.6588,-1.6554,-1.6528,-1.6588,-1.6588,-1.6588,-1.6528,-1.6562,-1.6543,-1.6444,-1.6425,-1.6363,-1.6328,-1.6234,-1.6194,-1.6194,-1.6194,-1.6011,-1.566,-1.5404,-1.5088,-1.4739,-1.4454,-1.4293,-2.466,-2.4707,-2.4707,-2.4707,-2.4692,-2.4285,-2.2647,-2.1108,0.0,0.0,0.0,-1.3329,-1.4623,-1.5612,0.0,-1.9429,0.0,0.0,0.0,0.0,-2.5325,0.0,0.0,0.0,0.0,0.0,0.0,0.0,0.0,-2.9441,-2.8916,-2.9527,-2.9971,-3.0147,-3.018,-3.0203,-3.024,-3.0276,-3.0279,-3.0279,-3.0279,-3.0292,-3.0305,-3.0157,-3.0083,-3.0086,-3.0004,0.0,-2.9967,-2.9929,-2.9911,-2.99,-2.9762,-2.8871,-2.7587,-2.714,-2.6098,-2.487,-2.4595,-2.45,-2.45,-2.4456,-2.4257,-2.4049,-2.401,-2.3753,-2.3495,-2.3426,-2.3271,-2.3086,-2.3086,-2.3036,-2.2986,-2.2919,-2.2191,-2.151,-2.1574,-2.0297,-1.8846,-1.7974,-1.7542,-1.7264,-1.7043,-1.6789,-1.6588,-1.6588,-1.6588,-1.6588,-1.6588,-1.6588,-1.6588,-1.6588,-1.6588,-1.6588,-1.6588,-1.6588,-1.6588,-1.657,-1.6471,-1.639,-1.639,-1.6269,-1.6194,-1.6194,-1.6194,-1.5919,-1.5374,-1.5315,-1.4996,-1.439,-1.4326,-1.4293,-2.4915,-2.4915,-2.4915,-2.4915,-2.4915,-2.4088,-2.0986,0.0,0.0,0.0,0.0,-1.168,-1.2765,0.0,0.0,0.0,0.0,0.0,0.0,0.0,0.0,0.0,0.0,0.0,0.0,0.0,0.0,0.0,0.0,-3.0116,-2.9649,-3.0059,-3.0301,-3.0304,-3.0369,-3.0403,-3.0403,-3.0367,-3.0342,-3.0342,-3.0321,-3.0305,-3.0289,-2.986,-2.9922,-3.0328,-2.9908,0.0,-3.041,-3.0402,-3.0394,-3.0386,-3.0321,-2.9562,-2.8386,-2.7628,-2.6569,-2.5389,-2.4722,-2.45,-2.45,-2.45,-2.4402,-2.4275,-2.4135,-2.3979,-2.3795,-2.3676,-2.3486,-2.3319,-2.3319,-2.3126,-2.2936,-2.291,-2.2539,-2.1883,-2.0677,-2.011,-1.9502,-1.8249,-1.7789,-1.7511,-1.7264,-1.6993,-1.6763,-1.6615,-1.6588,-1.6588,-1.6588,-1.6588,-1.6588,-1.6588,-1.6588,-1.6588,-1.6588,-1.6588,-1.6588,-1.6554,-1.6482,-1.6429,-1.6355,-1.6281,-1.6242,-1.6194,-1.6032,-1.5732,-1.5292,-1.5118,-1.478,-1.4293,-1.4293,-1.4293,-2.5046,-2.5105,-2.5105,-2.5105,-2.5105,-2.3935,-1.9457,-1.8048,0.0,0.0,0.0,-1.0381,-1.104,0.0,0.0,0.0,0.0,0.0,0.0,0.0,0.0,0.0,0.0,0.0,0.0,0.0,0.0,0.0,0.0,0.0,-3.0247,-3.0364,-3.044,-3.0418,-3.049,-3.0519,-3.0513,-3.0472,-3.0443,-3.0433,-3.0398,-3.0256,-3.0048,-2.9413,-2.9509,-3.0106,-2.9424,0.0,0.0,-3.0208,-3.0144,-3.0118,-2.9935,-2.9369,-2.855,-2.7622,-2.6723,-2.5815,-2.4876,-2.4515,-2.4507,-2.45,-2.45,-2.4456,-2.4248,-2.4154,-2.4069,-2.391,-2.3719,-2.3553,-2.3517,-2.3262,-2.2986,-2.2885,-2.279,-2.2134,-1.9981,-1.999,-1.9955,-1.8504,-1.7983,-1.7735,-1.7511,-1.7216,-1.6917,-1.672,-1.6641,-1.6588,-1.6588,-1.6588,-1.6588,-1.6588,-1.6588,-1.6588,-1.6588,-1.6588,-1.6588,-1.6528,-1.6501,-1.6448,-1.6328,-1.6301,-1.6281,-1.6194,-1.594,-1.5667,-1.5374,-1.5058,-1.4732,-1.4422,-1.4326,-1.4293,-2.4883,-2.5105,-2.5105,-2.5105,-2.5105,-2.3955,-1.9585,0.0,0.0,0.0,-1.0546,-1.0371,-1.1215,0.0,0.0,0.0,0.0,0.0,0.0,0.0,0.0,0.0,0.0,0.0,0.0,0.0,0.0,0.0,0.0,0.0,-3.0381,-3.0511,-3.0548,-3.0491,-3.0561,-3.0591,-3.0591,-3.0583,-3.0581,-3.0578,-3.0579,-3.0127,-2.9298,-2.9293,-2.9289,-2.9313,-2.9226,0.0,0.0,-2.9605,-2.9319,-2.9232,-2.8444,-2.7644,-2.6901,-2.6673,-2.5965,-2.5063,-2.4784,-2.4607,-2.4504,-2.4507,-2.45,-2.45,-2.4473,-2.4293,-2.4097,-2.4069,-2.393,-2.3732,-2.3562,-2.3426,-2.3253,-2.291,-2.2756,-2.2246,-2.0644,-2.0343,-1.9955,-1.8504,-1.7983,-1.7789,-1.7766,-1.7337,-1.6985,-1.6968,-1.6771,-1.6588,-1.6588,-1.6588,-1.6588,-1.6588,-1.6588,-1.6588,-1.6588,-1.6588,-1.6588,-1.6588,-1.6528,-1.6474,-1.639,-1.6328,-1.6281,-1.6194,-1.6159,-1.5996,-1.566,-1.5374,-1.5088,-1.4739,-1.4454,-1.4293,-2.4956,-2.5341,-2.5341,-2.5341,-2.4946,-2.3352,-1.8753,0.0,-1.5682,-1.1028,-1.0086,-1.0174,-1.0398,-1.0596,-1.1438,0.0,0.0,0.0,0.0,0.0,0.0,0.0,0.0,0.0,0.0,0.0,0.0,0.0,0.0,0.0,-3.0582,-3.0589,-3.0589,-3.0556,-3.0655,-3.0471,-2.9936,-2.9894,-2.9884,-2.988,-2.9836,-2.9902,-3.0011,-2.9028,-2.8817,-2.9139,-2.8133,0.0,0.0,-2.8545,-2.8422,-2.8385,-2.8039,-2.7412,-2.6679,-2.6501,-2.5798,-2.4913,-2.476,-2.4619,-2.4498,-2.449,-2.45,-2.45,-2.45,-2.4438,-2.4339,-2.4339,-2.4173,-2.393,-2.3732,-2.3385,-2.3052,-2.2859,-2.2764,-2.2272,-2.0722,-2.0394,-1.9955,-1.8504,-1.8108,-1.7992,-1.7833,-1.7612,-1.7361,-1.7043,-1.6917,-1.6789,-1.6615,-1.6588,-1.6588,-1.6588,-1.6588,-1.6588,-1.6588,-1.6588,-1.6588,-1.6588,-1.6562,-1.6535,-1.6455,-1.6409,-1.6336,-1.6254,-1.6024,-1.5839,-1.571,-1.5433,-1.5126,-1.4801,-1.4644,-1.4486,-2.4573,-2.529,-2.5484,-2.5501,-2.465,-2.2646,0.0,0.0,-1.4895,-1.0339,-0.9773,-1.0033,-0.9806,-0.9681,-1.0132,0.0,0.0,0.0,0.0,0.0,0.0,0.0,0.0,0.0,0.0,0.0,0.0,0.0,0.0,0.0,0.0,-3.0656,-3.0513,-3.0251,-3.0358,-3.0,-2.9121,-2.9065,-2.9046,-2.9039,-2.9002,-2.917,-2.9502,-2.8315,-2.8048,-2.8448,-2.7266,0.0,0.0,-2.7643,-2.7528,-2.7499,-2.7248,-2.6805,-2.6294,-2.6157,-2.5625,-2.4978,-2.4809,-2.4673,-2.4556,-2.4507,-2.45,-2.45,-2.45,-2.45,-2.45,-2.45,-2.4257,-2.397,-2.3837,-2.3362,-2.291,-2.2859,-2.2782,-2.2315,-2.0746,-2.0418,-1.9955,-1.8504,-1.8211,-1.8138,-1.7961,-1.7856,-1.7658,-1.7288,-1.7093,-1.6942,-1.6746,-1.6641,-1.6588,-1.6588,-1.6588,-1.6588,-1.6588,-1.6588,-1.6588,-1.6588,-1.6588,-1.6562,-1.6493,-1.6455,-1.6409,-1.6328,-1.6037,-1.5889,-1.5889,-1.5638,-1.5359,-1.5088,-1.4911,-1.4637,-2.3512,-2.479,-2.5419,-2.5484,-2.4196,-2.189,0.0,-1.6122,-1.4106,-1.0194,-0.9773,-1.0022,-0.9751,-0.9533,-0.9762,-1.0839,-1.296,0.0,0.0,0.0,0.0,0.0,0.0,0.0,0.0,0.0,0.0,0.0,0.0,0.0,0.0,-3.07,-3.0302,-2.9437,-2.9484,-2.9104,-2.8218,-2.8203,-2.8209,-2.8207,-2.8207,-2.7803,-2.7044,-2.7015,-2.6981,0.0,0.0,0.0,0.0,-2.7066,-2.6667,-2.6526,-2.5736,-2.5417,-2.5406,-2.5417,-2.5322,-2.5171,-2.4968,-2.4809,-2.4676,-2.454,-2.45,-2.45,-2.45,-2.45,-2.45,-2.45,-2.4154,-2.3795,-2.3795,-2.3399,-2.2986,-2.2986,-2.2893,-2.2392,-2.0818,-2.045,-1.9955,-1.8504,-1.8211,-1.8211,-1.819,-1.7992,-1.7811,-1.7789,-1.7337,-1.6993,-1.6993,-1.6763,-1.6588,-1.6588,-1.6588,-1.6588,-1.6588,-1.6588,-1.6588,-1.6588,-1.6588,-1.6562,-1.6493,-1.6493,-1.6474,-1.639,-1.639,-1.6363,-1.6293,-1.608,-1.5904,-1.5782,-1.518,-1.4672,-1.9284,-2.0206,-2.0688,-2.0161,-1.9029,-1.7381,-1.481,-1.3696,-1.243,-0.963,-0.9437,-0.9609,-0.9108,-0.8961,-0.9885,-1.2836,-1.3953,0.0,0.0,0.0,0.0,0.0,0.0,0.0,0.0,0.0,0.0,0.0,0.0,0.0,0.0,-3.068,-3.0297,-2.9428,-2.9418,-2.8746,-2.7327,-2.7308,-2.7307,-2.7312,-2.7312,-2.7491,-2.7797,-2.7202,-2.6925,0.0,0.0,0.0,0.0,-2.5927,-2.5771,-2.5688,-2.5485,-2.537,-2.5332,-2.5379,-2.5283,-2.5117,-2.5061,-2.4883,-2.4689,-2.4645,-2.4566,-2.45,-2.45,-2.45,-2.45,-2.45,-2.4257,-2.397,-2.3837,-2.3544,-2.3223,-2.3028,-2.2885,-2.2392,-2.0841,-2.045,-1.9955,-1.8504,-1.8211,-1.8211,-1.8211,-1.8138,-1.8013,-1.7833,-1.7511,-1.7216,-1.701,-1.6771,-1.6588,-1.6588,-1.6588,-1.6588,-1.6588,-1.6588,-1.6588,-1.6588,-1.6588,-1.6588,-1.6562,-1.6528,-1.6501,-1.6474,-1.6409,-1.639,-1.6363,-1.6309,-1.6024,-1.5529,-1.5195,-1.4821,0.0,-1.7597,-1.8065,-1.7488,-1.634,-1.4856,-1.3021,-1.2168,-1.1096,-0.871,-0.8921,-0.931,-0.8601,-0.8681,-0.9787,-1.2651,-1.3921,0.0,0.0,0.0,0.0,0.0,0.0,0.0,0.0,0.0,0.0,0.0,0.0,0.0,0.0,-3.0212,-2.9703,-2.8492,-2.8751,-2.8249,-2.6882,-2.6557,-2.6413,-2.6411,-2.6411,-2.6688,-2.7203,-2.6658,-2.6406,0.0,0.0,0.0,0.0,-2.5482,-2.5441,-2.5378,-2.5388,-2.5369,-2.5341,-2.5379,-2.5313,-2.5202,-2.5128,-2.4962,-2.4764,-2.4723,-2.4606,-2.45,-2.45,-2.45,-2.45,-2.45,-2.4321,-2.4069,-2.3959,-2.3676,-2.3403,-2.3223,-2.3036,-2.2459,-2.0912,-2.0503,-2.0001,-1.8517,-1.8211,-1.8211,-1.8211,-1.8211,-1.8138,-1.7992,-1.7712,-1.7487,-1.7313,-1.6993,-1.6738,-1.6738,-1.6667,-1.6588,-1.6588,-1.6588,-1.6588,-1.6588,-1.6588,-1.6588,-1.6588,-1.6562,-1.6528,-1.6528,-1.649,-1.6463,-1.6436,-1.6436,-1.6183,-1.5653,-1.5529,-1.5218,0.0,-1.6123,-1.6806,-1.6632,-1.5353,-1.3724,-1.2157,-1.1182,0.0,-0.7532,-0.8195,-0.9009,-0.8365,-0.8706,-0.9608,-1.1201,-1.3493,0.0,0.0,0.0,0.0,0.0,0.0,0.0,0.0,0.0,0.0,0.0,0.0,0.0,0.0,-2.9439,-2.8662,-2.7035,-2.7654,-2.7602,-2.6718,-2.5974,-2.5599,-2.56,-2.5596,-2.5595,-2.5598,-2.5598,-2.5598,0.0,0.0,0.0,0.0,-2.56,-2.5564,-2.5488,-2.543,-2.5405,-2.5396,-2.5396,-2.5407,-2.537,-2.5184,-2.5027,-2.4874,-2.4719,-2.4589,-2.45,-2.45,-2.45,-2.45,-2.45,-2.4321,-2.4126,-2.4107,-2.3807,-2.3549,-2.3504,-2.3271,-2.2625,-2.1097,-2.0683,-2.0148,-1.8658,-1.8331,-1.8271,-1.8219,-1.8211,-1.8211,-1.8211,-1.7961,-1.7811,-1.7811,-1.7345,-1.7018,-1.6993,-1.6789,-1.6615,-1.6588,-1.6588,-1.6588,-1.6588,-1.6588,-1.6588,-1.6588,-1.6588,-1.6588,-1.6588,-1.6588,-1.6562,-1.6501,-1.6501,-1.6375,-1.6095,-1.6095,-1.5761,-0.7298,0.0,-1.1572,-1.1529,-1.0531,-0.9439,0.0,-0.831,-0.7515,-0.6662,0.0,0.0,-0.9408,-0.9338,-1.053,0.0,0.0,0.0,0.0,0.0,0.0,0.0,0.0,0.0,0.0,0.0,0.0,0.0,0.0,0.0,0.0,-2.8835,-2.829,-2.7829,-2.74,-2.6757,-2.589,-2.5687,-2.56,-2.5603,-2.5605,-2.5599,-2.5604,-2.5604,-2.5595,0.0,0.0,0.0,-2.56,-2.5605,-2.5531,-2.5424,-2.5461,-2.5404,-2.5332,-2.5379,-2.537,-2.5322,-2.5274,-2.5094,-2.4861,-2.4613,-2.4534,-2.45,-2.45,-2.45,-2.45,-2.45,-2.4446,-2.4366,-2.4154,-2.403,-2.3869,-2.3576,-2.3403,-2.3006,-2.1852,-2.1557,-2.1042,-1.9438,-1.9143,-1.8918,-1.8306,-1.8211,-1.8211,-1.8211,-1.7961,-1.7811,-1.7811,-1.7511,-1.724,-1.7018,-1.6934,-1.6815,-1.6615,-1.6588,-1.6588,-1.6588,-1.6588,-1.6588,-1.6588,-1.6588,-1.6588,-1.6588,-1.6588,-1.6588,-1.6588,-1.6588,-1.6409,-1.6095,-1.606,-1.5847,-0.4422,-0.6963,-0.9314,-0.9184,-0.888,-0.8509,-0.8199,0.0,0.0,0.0,0.0,0.0,0.0,0.0,0.0,0.0,0.0,0.0,0.0,0.0,0.0,0.0,0.0,0.0,0.0,0.0,0.0,0.0,0.0,0.0,0.0,-2.7893,-2.7449,-2.7006,-2.658,-2.6295,-2.62,-2.5831,-2.5648,-2.5644,-2.5647,-2.5634,-2.5593,-2.5595,-2.5597,0.0,0.0,0.0,-2.5596,-2.5605,-2.5541,-2.5447,-2.5451,-2.5404,-2.5351,-2.5389,-2.5389,-2.5351,-2.5351,-2.5147,-2.4861,-2.4589,-2.45,-2.45,-2.45,-2.45,-2.45,-2.45,-2.45,-2.4473,-2.4312,-2.4201,-2.403,-2.3719,-2.3531,-2.3167,-2.2169,-2.1893,-2.1383,-1.9809,-1.9469,-1.9182,-1.8374,-1.8253,-1.8232,-1.8202,-1.8087,-1.7983,-1.7983,-1.7743,-1.7487,-1.7216,-1.706,-1.6892,-1.6615,-1.6588,-1.6588,-1.6588,-1.6588,-1.6588,-1.6588,-1.6588,-1.6588,-1.6588,-1.6588,-1.6588,-1.6588,-1.6588,-1.6517,-1.6336,-1.6301,-1.6183,-0.3725,-0.6389,-0.8593,-0.8119,-0.8806,-0.9382,-0.8527,0.0,0.0,0.0,0.0,0.0,0.0,0.0,0.0,0.0,0.0,0.0,0.0,0.0,0.0,0.0,0.0,0.0,0.0,0.0,0.0,0.0,0.0,0.0,0.0,-2.6871,-2.6463,-2.5718,-2.5697,-2.6032,-2.671,-2.6042,-2.5703,-2.5703,-2.5697,-2.5671,-2.5605,-2.5599,-2.5593,-2.5596,0.0,0.0,-2.5605,-2.5599,-2.5544,-2.5476,-2.5424,-2.5404,-2.5379,-2.5378,-2.5378,-2.5379,-2.5361,-2.5147,-2.4861,-2.4622,-2.4517,-2.45,-2.45,-2.45,-2.45,-2.45,-2.45,-2.45,-2.45,-2.4339,-2.4116,-2.3899,-2.3698,-2.3294,-2.2426,-2.2154,-2.1628,-2.007,-1.9721,-1.9378,-1.8466,-1.8307,-1.8286,-1.8223,-1.8211,-1.8211,-1.8211,-1.8005,-1.7758,-1.7487,-1.7216,-1.6934,-1.6686,-1.6615,-1.6588,-1.6588,-1.6588,-1.6588,-1.6588,-1.6588,-1.6588,-1.6588,-1.6588,-1.6588,-1.6588,-1.6588,-1.6588,-1.6588,-1.6562,-1.6482,-0.3838,-0.6327,-0.7957,-0.6549,-0.8618,-1.0479,-0.8514,0.0,0.0,0.0,0.0,0.0,0.0,0.0,0.0,0.0,0.0,0.0,0.0,0.0,0.0,0.0,0.0,0.0,0.0,0.0,0.0,0.0,0.0,0.0,0.0,-2.6268,-2.5838,-2.5701,-2.5702,-2.576,-2.5877,-2.5761,-2.5703,-2.5703,-2.5701,-2.5688,-2.5684,-2.563,-2.5599,-2.5599,0.0,-2.5601,-2.5594,-2.5595,-2.5533,-2.5415,-2.5469,-2.5421,-2.5322,-2.5322,-2.5322,-2.5303,-2.5191,-2.5034,-2.4865,-2.4729,-2.4589,-2.45,-2.45,-2.45,-2.45,-2.45,-2.45,-2.45,-2.45,-2.4473,-2.4366,-2.4125,-2.389,-2.3671,-2.3343,-2.3071,-2.2446,-2.084,-2.0512,-2.0044,-1.8551,-1.8301,-1.8295,-1.8295,-1.8232,-1.8211,-1.8211,-1.816,-1.8035,-1.7766,-1.7511,-1.724,-1.6968,-1.6738,-1.6588,-1.6588,-1.6588,-1.6588,-1.6588,-1.6588,-1.6588,-1.6588,-1.6588,-1.6588,-1.6588,-1.6588,-1.6588,-1.6596,-1.6436,-1.6429,-0.232,-0.4475,-0.6346,-0.6039,-0.9357,-1.2432,-1.1373,0.0,0.0,0.0,0.0,0.0,0.0,0.0,0.0,0.0,0.0,0.0,0.0,0.0,0.0,0.0,0.0,0.0,0.0,0.0,0.0,0.0,0.0,0.0,0.0,0.0,-2.5627,-2.5588,-2.5662,-2.5703,-2.5703,-2.5703,-2.5703,-2.5703,-2.5701,-2.5696,-2.5696,-2.5673,-2.563,-2.5597,0.0,-2.5601,-2.5601,-2.5595,-2.5539,-2.5459,-2.5483,-2.5439,-2.5351,-2.5313,-2.5293,-2.5283,-2.5149,-2.5058,-2.4971,-2.4764,-2.467,-2.4589,-2.4524,-2.45,-2.45,-2.45,-2.45,-2.45,-2.45,-2.45,-2.4429,-2.4154,-2.403,-2.3878,-2.3562,-2.3403,-2.2811,-2.1083,-2.0754,-2.0241,-1.8639,-1.8345,-1.833,-1.8315,-1.8265,-1.8253,-1.8202,-1.8211,-1.8087,-1.7833,-1.7689,-1.7511,-1.724,-1.696,-1.6738,-1.6623,-1.6588,-1.6588,-1.6588,-1.6588,-1.6588,-1.6588,-1.6588,-1.6588,-1.6588,-1.6588,-1.6588,-1.6596,-1.6375,-1.6409,-0.1693,-0.3419,-0.5437,-0.7022,0.0,-1.3588,-1.4123,0.0,0.0,0.0,0.0,0.0,0.0,0.0,0.0,0.0,0.0,0.0,0.0,0.0,0.0,0.0,0.0,0.0,0.0,0.0,0.0,0.0,0.0,0.0,0.0,0.0,-2.5525,-2.5478,-2.558,-2.5629,-2.5627,-2.5627,-2.5651,-2.5703,-2.5703,-2.5703,-2.5703,-2.5703,-2.5673,-2.5624,-2.5611,-2.5601,-2.5597,-2.5594,-2.5558,-2.5499,-2.5488,-2.5432,-2.5351,-2.5293,-2.5293,-2.5283,-2.518,-2.5126,-2.507,-2.4861,-2.4749,-2.4676,-2.4582,-2.4524,-2.45,-2.4482,-2.4482,-2.4482,-2.45,-2.45,-2.4456,-2.4248,-2.4154,-2.401,-2.3642,-2.354,-2.3017,-2.1396,-2.093,-2.0354,-1.895,-1.8537,-1.8374,-1.831,-1.8298,-1.8274,-1.8211,-1.8211,-1.8108,-1.7917,-1.7833,-1.7666,-1.7337,-1.7117,-1.6892,-1.6615,-1.6588,-1.6588,-1.6588,-1.6588,-1.6588,-1.6588,-1.6588,-1.6588,-1.6588,-1.6588,-1.6588,-1.6588,-1.6429,-1.6455,-0.3728,-0.4927,-0.648,-1.033,-1.1723,0.0,-1.5039,-1.4304,0.0,0.0,0.0,0.0,0.0,0.0,0.0,0.0,0.0,0.0,0.0,0.0,0.0,0.0,0.0,0.0,0.0,0.0,0.0,0.0,0.0,0.0,0.0,0.0,0.0,-2.5409,-2.5427,-2.5426,-2.5424,-2.5424,-2.5521,-2.5703,-2.5703,-2.5703,-2.5703,-2.5703,-2.5703,-2.569,-2.5632,-2.5596,-2.5603,-2.5603,-2.5564,-2.5493,-2.5424,-2.5322,-2.5213,-2.5213,-2.5252,-2.5301,-2.5291,-2.52,-2.5094,-2.5082,-2.4892,-2.4707,-2.4692,-2.4599,-2.4482,-2.442,-2.4412,-2.443,-2.4482,-2.45,-2.45,-2.4482,-2.4275,-2.4049,-2.3828,-2.3633,-2.3195,-2.2127,-2.1316,-2.0561,-1.974,-1.8953,-1.8385,-1.8319,-1.8301,-1.8274,-1.8211,-1.8211,-1.8181,-1.816,-1.7939,-1.7589,-1.706,-1.701,-1.6892,-1.6615,-1.6588,-1.6588,-1.6588,-1.6588,-1.6588,-1.6588,-1.6588,-1.6588,-1.6588,-1.6588,-1.6588,-1.6588,-1.6596,-1.6596,-0.2119,-0.2792,-0.4496,-0.9712,-0.9887,0.0,0.0,-1.5207,0.0,0.0,0.0,0.0,0.0,0.0,0.0,0.0,0.0,0.0,0.0,0.0,0.0,0.0,0.0,0.0,0.0,0.0,0.0,0.0,0.0,0.0,0.0,0.0,0.0,-2.5215,-2.5359,-2.5399,-2.5396,-2.5398,-2.5444,-2.551,-2.5559,-2.5624,-2.5703,-2.5703,-2.5703,-2.5703,-2.5674,-2.5646,-2.5596,-2.5599,-2.5589,-2.5551,-2.5434,-2.5322,-2.5202,-2.5202,-2.5222,-2.5242,-2.5291,-2.5271,-2.52,-2.5031,-2.4915,-2.4784,-2.4638,-2.4541,-2.45,-2.4465,-2.443,-2.4412,-2.443,-2.4403,-2.4403,-2.4482,-2.4393,-2.4201,-2.3878,-2.3732,-2.3365,-2.2221,-2.136,-2.0578,-1.9828,-1.9,-1.8445,-1.8377,-1.8354,-1.8342,-1.8263,-1.8255,-1.8251,-1.8265,-1.813,-1.7886,-1.7472,-1.7433,-1.7199,-1.6649,-1.6588,-1.6588,-1.6588,-1.6588,-1.6588,-1.6588,-1.6588,-1.6588,-1.6588,-1.6588,-1.6588,-1.6588,-1.6482,-1.6482,-0.1114,-0.1632,-0.3277,0.0,0.0,0.0,-1.16,-1.3328,0.0,0.0,0.0,0.0,0.0,0.0,0.0,0.0,0.0,0.0,0.0,0.0,0.0,0.0,0.0,0.0,0.0,0.0,0.0,0.0,0.0,0.0,0.0,0.0,0.0,0.0,-2.246,-2.2606,-2.2469,-2.3407,-2.3899,-2.3925,-2.4933,-2.5493,-2.564,-2.5681,-2.5702,-2.5696,-2.5681,-2.5653,-2.5635,-2.5596,-2.5554,-2.5531,-2.5443,-2.5331,-2.5232,-2.521,-2.52,-2.521,-2.5251,-2.5271,-2.5241,-2.5087,-2.4964,-2.4879,-2.4682,-2.4566,-2.45,-2.4482,-2.443,-2.4394,-2.4367,-2.433,-2.433,-2.442,-2.4403,-2.4284,-2.3937,-2.3795,-2.3484,-2.2622,-2.1752,-2.0903,-2.017,-1.9389,-1.8763,-1.8449,-1.8394,-1.8385,-1.8319,-1.829,-1.8307,-1.8289,-1.8244,-1.8117,-1.7881,-1.7859,-1.7551,-1.6831,-1.6675,-1.6588,-1.6588,-1.6588,-1.6588,-1.6588,-1.6588,-1.6588,-1.6588,-1.6588,-1.6588,-1.6588,-1.6463,-1.6463,-0.1324,-0.2124,0.0,0.0,0.0,0.0,0.0,0.0,0.0,0.0,0.0,0.0,0.0,0.0,0.0,0.0,0.0,0.0,0.0,0.0,0.0,0.0,0.0,0.0,0.0,0.0,0.0,0.0,0.0,0.0,0.0,0.0,0.0,0.0,-1.6261,-1.6576,-1.6114,-1.9074,-2.0594,-2.0689,-2.3689,-2.5255,-2.5499,-2.564,-2.5704,-2.5699,-2.5631,-2.5643,-2.5685,-2.5546,-2.5459,-2.5397,-2.5397,-2.5359,-2.5291,-2.5225,-2.5193,-2.5197,-2.5197,-2.52,-2.5202,-2.5282,-2.5127,-2.4898,-2.4898,-2.4704,-2.4482,-2.443,-2.4394,-2.4385,-2.4321,-2.4294,-2.4294,-2.4294,-2.4294,-2.4247,-2.4036,-2.3795,-2.3562,-2.343,-2.2576,-2.1663,-2.0925,-2.0179,-1.9395,-1.8528,-1.8394,-1.8385,-1.831,-1.831,-1.8299,-1.8304,-1.8236,-1.8211,-1.8211,-1.8211,-1.7926,-1.7257,-1.6831,-1.6623,-1.6588,-1.6588,-1.6588,-1.6588,-1.6588,-1.6588,-1.6588,-1.6588,-1.6588,-1.6588,-1.6588,-1.6588,-0.1471,0.0,0.0,0.0,0.0,0.0,0.0,0.0,0.0,0.0,0.0,0.0,0.0,0.0,0.0,0.0,0.0,0.0,0.0,0.0,0.0,0.0,0.0,0.0,0.0,0.0,0.0,0.0,0.0,0.0,0.0,0.0,0.0,0.0,-1.6622,-1.6732,-1.6585,-1.7489,-1.7776,-1.7472,-1.843,-2.1201,-2.5501,-2.5544,-2.5596,-2.5627,-2.5611,-2.5585,-2.5559,-2.5517,-2.5463,-2.5394,-2.5357,-2.5293,-2.5221,-2.5214,-2.5191,-2.5193,-2.5197,-2.5198,-2.5198,-2.5111,-2.5038,-2.4938,-2.476,-2.4623,-2.4554,-2.449,-2.443,-2.4394,-2.4376,-2.4294,-2.4238,-2.4294,-2.4257,-2.4182,-2.4027,-2.3946,-2.3771,-2.3398,-2.2666,-2.1803,-2.0826,-2.0136,-1.9395,-1.8528,-1.8434,-1.8465,-1.8437,-1.8437,-1.8445,-1.8445,-1.8298,-1.8211,-1.8211,-1.8211,-1.8117,-1.7926,-1.7574,-1.715,-1.6615,-1.6588,-1.6588,-1.6588,-1.6588,-1.6588,-1.6588,-1.6588,-1.6588,-1.6588,-1.6588,-1.6588,-0.1878,0.0,0.0,0.0,0.0,0.0,0.0,0.0,0.0,0.0,0.0,0.0,0.0,0.0,0.0,0.0,0.0,0.0,0.0,0.0,0.0,0.0,0.0,0.0,0.0,0.0,0.0,0.0,0.0,0.0,0.0,0.0,0.0,0.0,-1.3238,-1.3477,-1.3477,-1.4478,-1.4837,-1.4547,-1.5638,-1.8142,-2.1846,-2.3104,-2.436,-2.5554,-2.5555,-2.5535,-2.5501,-2.5497,-2.548,-2.543,-2.5339,-2.5264,-2.5192,-2.517,-2.5154,-2.5166,-2.5193,-2.5195,-2.5184,-2.5108,-2.5041,-2.4964,-2.4809,-2.4676,-2.4594,-2.4549,-2.4446,-2.4358,-2.4339,-2.4284,-2.4238,-2.4266,-2.4229,-2.4181,-2.4094,-2.3996,-2.3804,-2.3454,-2.2966,-2.2262,-2.1252,-2.069,-2.0062,-1.9128,-1.8708,-1.8494,-1.8494,-1.8494,-1.8494,-1.8494,-1.831,-1.8223,-1.831,-1.8319,-1.8319,-1.8319,-1.8048,-1.7597,-1.6942,-1.6823,-1.672,-1.6588,-1.6588,-1.6588,-1.6588,-1.6588,-1.6588,-1.6588,-1.6588,-1.6623,0.0,0.0,0.0,0.0,0.0,0.0,0.0,0.0,0.0,0.0,0.0,0.0,0.0,0.0,0.0,0.0,0.0,0.0,0.0,0.0,0.0,0.0,0.0,0.0,0.0,0.0,0.0,0.0,0.0,0.0,0.0,0.0,0.0,-0.6956,-0.7931,-0.8424,-0.8424,-1.0735,-1.1861,-1.1833,-1.4192,-1.5487,-1.5901,-1.9319,-2.2574,-2.5493,-2.5493,-2.5492,-2.5501,-2.549,-2.5488,-2.5488,-2.5366,-2.5265,-2.5194,-2.5115,-2.5092,-2.5092,-2.5166,-2.5189,-2.5191,-2.5195,-2.5115,-2.5015,-2.5003,-2.4813,-2.4606,-2.4606,-2.4454,-2.4294,-2.421,-2.4257,-2.4284,-2.422,-2.42,-2.419,-2.4218,-2.4016,-2.3786,-2.3597,-2.3362,-2.2915,-2.2038,-2.162,-2.1034,-1.9939,-1.905,-1.8485,-1.8474,-1.8494,-1.8485,-1.8474,-1.8319,-1.8277,-1.8474,-1.8474,-1.8474,-1.8494,-1.833,-1.8005,-1.7526,-1.7159,-1.6841,-1.6588,-1.6588,-1.6588,-1.6588,-1.6588,-1.6588,-1.6588,-1.6588,-1.6667,0.0,0.0,0.0,0.0,0.0,0.0,0.0,0.0,0.0,0.0,0.0,0.0,0.0,0.0,0.0,0.0,0.0,0.0,0.0,0.0,0.0,0.0,0.0,0.0,0.0,0.0,0.0,0.0,0.0,0.0,0.0,0.0,0.0,-0.7889,-0.8415,-0.8623,-0.8424,-0.9239,-0.9338,0.0,-0.9257,-1.0606,-1.277,-1.8252,-2.2485,-2.5493,-2.5389,-2.5398,-2.5493,-2.5387,-2.5415,-2.5492,-2.5414,-2.5313,-2.5192,-2.5115,-2.5028,-2.4961,-2.5082,-2.5117,-2.5129,-2.518,-2.518,-2.5144,-2.5032,-2.4842,-2.4679,-2.4613,-2.4454,-2.4294,-2.4284,-2.4284,-2.4303,-2.4275,-2.4238,-2.421,-2.4266,-2.4181,-2.4094,-2.4065,-2.3589,-2.3065,-2.26,-2.1895,-2.0812,-1.905,-1.8634,-1.8434,-1.8277,-1.8403,-1.8443,-1.8277,-1.8232,-1.8277,-1.8474,-1.8351,-1.833,-1.8494,-1.8454,-1.8385,-1.8266,-1.7256,-1.6667,-1.6588,-1.6588,-1.6588,-1.6588,-1.6588,-1.6588,-1.6588,-1.6588,-1.6623,0.0,0.0,0.0,0.0,0.0,0.0,0.0,0.0,0.0,0.0,0.0,0.0,0.0,0.0,0.0,0.0,0.0,0.0,0.0,0.0,0.0,0.0,0.0,0.0,0.0,0.0,0.0,0.0,0.0,0.0,0.0,-0.7984,-0.7937,-0.8168,-0.8424,-0.8471,-0.8424,-0.8583,-0.8418,-0.7771,-0.772,-0.9085,-1.1813,-1.7946,-2.1681,-2.3366,-2.4685,-2.5332,-2.5441,-2.5274,-2.5303,-2.5432,-2.5341,-2.5244,-2.5139,-2.508,-2.4968,-2.4879,-2.4966,-2.5002,-2.5015,-2.5054,-2.5057,-2.5035,-2.4974,-2.4813,-2.4642,-2.4606,-2.4419,-2.4247,-2.4247,-2.4284,-2.4284,-2.4247,-2.4247,-2.4247,-2.4247,-2.4209,-2.4199,-2.4199,-2.3719,-2.3179,-2.2782,-2.2306,-2.1177,-1.8734,-1.8351,-1.8319,-1.8202,-1.8298,-1.8319,-1.8211,-1.8211,-1.8244,-1.8351,-1.8265,-1.8277,-1.8494,-1.7928,-1.7854,-1.8465,-1.7541,-1.689,-1.6623,-1.6588,-1.6588,-1.6588,-1.6588,-1.6588,-1.6588,-1.6588,-1.6641,0.0,0.0,0.0,0.0,0.0,0.0,0.0,0.0,0.0,0.0,0.0,0.0,0.0,0.0,0.0,0.0,0.0,0.0,0.0,0.0,0.0,0.0,0.0,0.0,0.0,0.0,0.0,0.0,0.0,0.0,-0.8629,-0.8153,-0.7996,-0.8168,-0.8221,-0.8271,-0.8374,-0.8371,-0.8259,-0.7981,-0.7774,-0.8819,-1.1079,-1.7216,-2.0323,-2.0994,-2.3357,-2.476,-2.5351,-2.516,-2.5192,-2.536,-2.5253,-2.516,-2.508,-2.5019,-2.4898,-2.4774,-2.4865,-2.4884,-2.4874,-2.4902,-2.4902,-2.4902,-2.4902,-2.4779,-2.4606,-2.4589,-2.4411,-2.4209,-2.4199,-2.4228,-2.4266,-2.4209,-2.4238,-2.4284,-2.4266,-2.4209,-2.4199,-2.4199,-2.3701,-2.3162,-2.2782,-2.2712,-2.1841,-1.9358,-1.8538,-1.8211,-1.8211,-1.8211,-1.8211,-1.8211,-1.8211,-1.8211,-1.8211,-1.8211,-1.8277,-1.8443,-1.728,-1.706,-1.8137,-1.7643,-1.7125,-1.6693,-1.6675,-1.6641,-1.6588,-1.6588,-1.6588,-1.6588,-1.6588,-1.6667,0.0,0.0,0.0,0.0,0.0,0.0,0.0,0.0,0.0,0.0,0.0,0.0,0.0,0.0,0.0,0.0,0.0,0.0,0.0,0.0,0.0,0.0,0.0,0.0,0.0,0.0,0.0,0.0,0.0,0.0,-0.8804,-0.8699,-0.854,-0.8221,-0.8321,-0.8321,-0.8221,-0.8321,-0.8368,-0.8312,-0.7883,-0.7753,-0.8101,-1.4085,-1.8249,-2.0741,-2.101,-2.2688,-2.5213,-2.508,-2.5103,-2.5223,-2.5264,-2.5168,-2.5019,-2.5006,-2.4832,-2.4638,-2.4772,-2.4802,-2.4817,-2.4884,-2.4902,-2.4902,-2.4902,-2.4799,-2.4651,-2.4554,-2.4401,-2.4266,-2.4141,-2.416,-2.4218,-2.4199,-2.4218,-2.4266,-2.442,-2.4321,-2.4199,-2.4199,-2.3445,-2.2773,-2.2712,-2.2712,-2.2548,-2.2168,-1.9884,-1.8211,-1.8211,-1.8211,-1.8211,-1.8211,-1.8211,-1.8211,-1.8211,-1.8211,-1.8202,-1.8244,-1.7216,-1.6693,-1.6858,-1.6771,-1.6797,-1.6934,-1.6874,-1.6779,-1.6588,-1.6588,-1.6588,-1.6588,-1.6588,-1.6623,0.0,0.0,0.0,0.0,0.0,0.0,0.0,0.0,0.0,0.0,0.0,0.0,0.0,0.0,0.0,0.0,0.0,0.0,0.0,0.0,0.0,0.0,0.0,0.0,0.0,0.0,0.0,0.0,0.0,-0.8847,-0.8808,-0.8745,-0.848,-0.8062,-0.7999,-0.7889,-0.769,-0.7889,-0.8153,-0.8371,-0.7833,-0.7622,-0.7694,-1.0123,-1.3768,-1.8361,-2.1646,-2.3833,-2.5089,-2.506,-2.5072,-2.5103,-2.5202,-2.5124,-2.4947,-2.4993,-2.4803,-2.4564,-2.4654,-2.4704,-2.4745,-2.4787,-2.4789,-2.4794,-2.4794,-2.4729,-2.4629,-2.4538,-2.4428,-2.4303,-2.4094,-2.4063,-2.4103,-2.417,-2.4199,-2.4209,-2.4303,-2.4266,-2.4034,-2.3477,-2.301,-2.2712,-2.2712,-2.2712,-2.2712,-2.2712,-2.0142,-1.8211,-1.8211,-1.8211,-1.8211,-1.8211,-1.8211,-1.8211,-1.8211,-1.8211,-1.8211,-1.8211,-1.7183,-1.6588,-1.6588,-1.6588,-1.6675,-1.6763,-1.6857,-1.6805,-1.6588,-1.6675,-1.6667,-1.6588,-1.6588,-1.6588,0.0,0.0,0.0,0.0,0.0,0.0,0.0,0.0,0.0,0.0,0.0,0.0,0.0,0.0,0.0,0.0,0.0,0.0,0.0,0.0,0.0,0.0,0.0,0.0,0.0,0.0,0.0,0.0,0.0,-0.8633,-0.8857,-0.8685,-0.8418,-0.8109,-0.7833,-0.7622,-0.7475,-0.7673,-0.7934,-0.8259,-0.7889,-0.7833,-0.7975,-0.8349,-1.0946,-1.5371,-2.0541,-2.3613,-2.4955,-2.5002,-2.498,-2.4942,-2.507,-2.5031,-2.4911,-2.498,-2.4794,-2.4545,-2.4596,-2.4631,-2.4641,-2.4666,-2.4663,-2.4676,-2.4667,-2.4645,-2.4596,-2.4571,-2.4472,-2.4303,-2.4027,-2.3967,-2.4025,-2.4121,-2.4141,-2.416,-2.4199,-2.4199,-2.3985,-2.3221,-2.2867,-2.2712,-2.2712,-2.2712,-2.2712,-2.2712,-2.0142,-1.8211,-1.8211,-1.8211,-1.8211,-1.8211,-1.8211,-1.8211,-1.8211,-1.8211,-1.8211,-1.8211,-1.7183,-1.6588,-1.6588,-1.6588,-1.6588,-1.6588,-1.6753,-1.6779,-1.6641,-1.6738,-1.6746,-1.6641,-1.6641,-1.6641,0.0,0.0,0.0,0.0,0.0,0.0,0.0,0.0,0.0,0.0,0.0,0.0,0.0,0.0,0.0,0.0,0.0,0.0,0.0,0.0,0.0,0.0,0.0,0.0,0.0,0.0,0.0,0.0,0.0,-0.8583,-0.8956,-0.8738,-0.8573,-0.8577,-0.7987,-0.7726,-0.7848,-0.7883,-0.7925,-0.7925,-0.8206,-0.8268,-0.8287,-1.078,-1.1966,-1.2205,-1.5177,-1.9645,-2.4818,-2.4818,-2.4779,-2.4729,-2.4861,-2.4921,-2.4908,-2.4976,-2.4837,-2.4607,-2.4667,-2.4619,-2.4512,-2.458,-2.4615,-2.4615,-2.4613,-2.4594,-2.4619,-2.4667,-2.4504,-2.4229,-2.3908,-2.3896,-2.4005,-2.401,-2.3999,-2.4039,-2.418,-2.4199,-2.417,-2.4122,-2.3362,-2.2712,-2.2712,-2.2712,-2.2712,-2.2712,-2.0142,-1.8211,-1.8211,-1.8211,-1.8211,-1.8211,-1.8211,-1.8211,-1.8211,-1.8211,-1.8211,-1.8211,-1.7183,-1.6588,-1.6588,-1.6588,-1.6588,-1.6588,-1.6623,-1.6667,-1.6797,-1.6797,-1.6797,-1.6797,-1.6797,-1.672,0.0,0.0,0.0,0.0,0.0,0.0,0.0,0.0,0.0,0.0,0.0,0.0,0.0,0.0,0.0,0.0,0.0,0.0,0.0,0.0,0.0,0.0,0.0,0.0,0.0,0.0,0.0,0.0,0.0,0.0,-0.815,-0.8415,-0.8524,-0.8374,-0.794,-0.7622,-0.7529,-0.7405,-0.767,-0.8206,-0.815,-0.8259,-0.8629,-0.9324,-1.054,-1.2181,-1.2958,-1.6528,-2.1784,-2.1918,-2.3029,-2.4645,-2.4775,-2.4813,-2.4783,-2.4846,-2.4783,-2.4673,-2.4685,-2.467,-2.4629,-2.4664,-2.4642,-2.4603,-2.4603,-2.4635,-2.4667,-2.4682,-2.4619,-2.4444,-2.393,-2.3738,-2.3691,-2.378,-2.3843,-2.3903,-2.4041,-2.3792,-2.3477,-2.3283,-2.2944,-2.2712,-2.2712,-2.2712,-2.2712,-2.2712,-2.1789,-2.0401,-1.8461,-1.8211,-1.8211,-1.8211,-1.8211,-1.8211,-1.8211,-1.8211,-1.8211,-1.8211,-1.7183,-1.6588,-1.6588,-1.6588,-1.6588,-1.6588,-1.6588,-1.6615,-1.6667,-1.6763,-1.6771,-1.6667,-1.6667,-1.6641,-0.1397,0.0,0.0,0.0,0.0,0.0,0.0,0.0,0.0,0.0,0.0,0.0,0.0,0.0,0.0,0.0,0.0,0.0,0.0,0.0,0.0,0.0,0.0,0.0,0.0,0.0,0.0,0.0,0.0,0.0,-0.7821,-0.8093,-0.8209,-0.8115,-0.7946,-0.7732,-0.7368,-0.7306,-0.7619,-0.8424,-0.815,-0.8362,-0.8906,-0.8533,-0.9286,-1.0913,-1.052,-1.3553,-1.8837,-1.9867,-2.1393,-2.3158,-2.4242,-2.4679,-2.4707,-2.4778,-2.4778,-2.4723,-2.4734,-2.471,-2.4654,-2.4629,-2.4591,-2.4571,-2.4564,-2.4606,-2.4638,-2.4638,-2.4408,-2.407,-2.368,-2.3517,-2.3544,-2.3689,-2.3774,-2.3825,-2.3912,-2.3646,-2.3248,-2.2668,-2.2632,-2.2712,-2.2712,-2.2712,-2.2712,-2.2712,-2.1849,-2.0422,-1.8344,-1.813,-1.8211,-1.8211,-1.8211,-1.8211,-1.8211,-1.8211,-1.8211,-1.8211,-1.7534,-1.6968,-1.6615,-1.6588,-1.6588,-1.6588,-1.6588,-1.6588,-1.6588,-1.6738,-1.6738,-1.6667,-1.6667,-1.6641,0.0,0.0,0.0,0.0,0.0,0.0,0.0,0.0,0.0,0.0,0.0,0.0,0.0,0.0,0.0,0.0,0.0,0.0,0.0,0.0,0.0,0.0,0.0,0.0,0.0,0.0,0.0,0.0,0.0,-0.7015,-0.8022,-0.7723,-0.7628,-0.7901,-0.8115,-0.7952,-0.7521,-0.7518,-0.7785,-0.8368,-0.8371,-0.8685,-0.9159,-0.8784,-0.8474,-0.8165,-0.7735,-1.0673,-1.6079,-1.884,-1.9986,-2.0296,-2.325,-2.451,-2.4698,-2.477,-2.4798,-2.4806,-2.4806,-2.472,-2.458,-2.4538,-2.4495,-2.4495,-2.4507,-2.45,-2.45,-2.45,-2.3837,-2.3126,-2.3111,-2.3289,-2.3544,-2.3741,-2.3795,-2.3795,-2.3795,-2.3795,-2.3518,-2.2543,-2.2533,-2.2685,-2.2685,-2.2685,-2.2685,-2.2685,-2.0196,-1.8181,-1.7842,-1.8035,-1.819,-1.819,-1.819,-1.819,-1.819,-1.819,-1.819,-1.8211,-1.8211,-1.7735,-1.6693,-1.6615,-1.6588,-1.6588,-1.6588,-1.6588,-1.6588,-1.6738,-1.6789,-1.6789,-1.6789,-1.6712,-0.0693,0.0,0.0,0.0,0.0,0.0,0.0,0.0,0.0,0.0,0.0,0.0,0.0,0.0,0.0,0.0,0.0,0.0,0.0,0.0,0.0,0.0,0.0,0.0,0.0,0.0,0.0,0.0,-0.648,-0.6804,-0.7345,-0.7886,-0.8162,-0.8115,-0.7946,-0.778,-0.7619,-0.7467,-0.7571,-0.8037,-0.8259,-0.8527,-0.8788,-0.8742,-0.859,-0.8321,-0.7833,-0.8802,-1.0986,-1.5245,-1.826,-2.0488,-2.3251,-2.4453,-2.4638,-2.4645,-2.4753,-2.4865,-2.4865,-2.4827,-2.4725,-2.4607,-2.4461,-2.4375,-2.4482,-2.45,-2.45,-2.45,-2.4303,-2.3969,-2.3286,-2.3168,-2.3232,-2.3286,-2.3558,-2.3762,-2.3616,-2.3685,-2.3723,-2.3441,-2.285,-2.2413,-2.2413,-2.2413,-2.2413,-2.2413,-2.1708,-2.0365,-1.809,-1.7856,-1.7909,-1.7909,-1.7909,-1.7909,-1.7909,-1.7909,-1.7983,-1.819,-1.8211,-1.8065,-1.7766,-1.701,-1.6588,-1.6588,-1.6588,-1.6588,-1.6588,-1.6641,-1.6675,-1.6675,-1.6675,-1.6649,0.0,0.0,0.0,0.0,0.0,0.0,0.0,0.0,0.0,0.0,0.0,0.0,0.0,0.0,0.0,0.0,0.0,0.0,0.0,0.0,0.0,0.0,0.0,0.0,0.0,0.0,0.0,-0.6052,-0.6268,-0.6588,-0.6972,-0.7774,-0.8209,-0.8221,-0.8049,-0.7883,-0.7723,-0.7571,-0.7619,-0.7925,-0.8093,-0.8312,-0.8524,-0.8636,-0.8586,-0.8368,-0.8099,-0.8156,-0.8714,-1.2632,-1.6011,-1.9115,-2.2751,-2.4257,-2.4392,-2.4498,-2.4613,-2.4744,-2.4798,-2.4789,-2.4725,-2.4566,-2.4434,-2.4348,-2.4367,-2.4367,-2.4367,-2.4367,-2.4144,-2.3795,-2.3238,-2.3086,-2.3086,-2.3086,-2.3301,-2.3486,-2.336,-2.3435,-2.3567,-2.3753,-2.3335,-2.2799,-2.2377,-2.231,-2.231,-2.231,-2.231,-2.1219,-1.82,-1.7811,-1.7811,-1.7811,-1.7811,-1.7811,-1.7811,-1.7811,-1.7864,-1.8013,-1.8138,-1.8211,-1.8211,-1.7167,-1.6588,-1.6588,-1.6588,-1.6588,-1.6588,-1.6588,-1.6588,-1.6588,-1.6588,-1.6588,0.0,0.0,0.0,0.0,0.0,0.0,-0.1458,-0.1499,0.0,0.0,0.0,0.0,0.0,0.0,0.0,0.0,0.0,0.0,0.0,0.0,0.0,0.0,0.0,0.0,0.0,-0.6428,-0.6436,-0.585,-0.6055,-0.6369,-0.6799,-0.7495,-0.7934,-0.8112,-0.8268,-0.8156,-0.7726,-0.7723,-0.7774,-0.7874,-0.7871,-0.8037,-0.8368,-0.8521,-0.8524,-0.8424,-0.8424,-0.8371,-0.8528,-1.101,-1.3811,-1.6991,-2.1712,-2.3778,-2.4116,-2.4294,-2.4419,-2.4504,-2.4629,-2.4676,-2.4626,-2.4416,-2.4355,-2.4346,-2.4209,-2.417,-2.4199,-2.4199,-2.3651,-2.307,-2.307,-2.307,-2.3061,-2.3086,-2.3086,-2.3086,-2.3086,-2.3086,-2.3214,-2.3646,-2.3732,-2.345,-2.2615,-2.2377,-2.231,-2.231,-2.2274,-2.1284,-1.8577,-1.8232,-1.8264,-1.831,-1.7991,-1.7811,-1.7811,-1.7811,-1.7811,-1.7811,-1.8013,-1.816,-1.8211,-1.728,-1.672,-1.6588,-1.6588,-1.6588,-1.6588,-1.6588,-1.6588,-1.6588,-1.6588,-1.6588,0.0,0.0,0.0,0.0,0.0,0.0,0.0,-0.0515,0.0,0.0,0.0,0.0,0.0,0.0,0.0,0.0,0.0,0.0,0.0,0.0,0.0,0.0,0.0,0.0,0.0,-0.6041,-0.6161,-0.585,-0.6055,-0.6263,-0.6315,-0.7233,-0.7726,-0.7628,-0.8002,-0.8112,-0.7845,-0.7726,-0.772,-0.772,-0.7824,-0.7925,-0.8037,-0.8412,-0.8573,-0.8577,-0.8577,-0.8788,-0.9346,-1.1383,-1.3787,-1.6436,-1.9559,-2.2136,-2.4107,-2.4135,-2.4275,-2.4411,-2.4456,-2.4453,-2.4416,-2.4164,-2.4116,-2.4126,-2.3948,-2.3985,-2.4121,-2.418,-2.3499,-2.279,-2.279,-2.279,-2.2833,-2.3036,-2.3086,-2.3086,-2.3086,-2.3086,-2.3135,-2.3214,-2.3247,-2.3292,-2.3482,-2.285,-2.231,-2.231,-2.2077,-2.1678,-2.1104,-2.103,-2.1114,-2.1395,-1.9257,-1.7811,-1.7811,-1.7811,-1.7811,-1.7811,-1.7842,-1.7961,-1.819,-1.8013,-1.7487,-1.6615,-1.6588,-1.6588,-1.6588,-1.6588,-1.6588,-1.6588,-1.6588,-1.6588,0.0,0.0,0.0,-0.0536,0.0,0.0,0.0,0.0,0.0,0.0,0.0,0.0,0.0,0.0,0.0,0.0,0.0,0.0,0.0,0.0,0.0,0.0,0.0,0.0,0.0,-0.5012,-0.5226,-0.5234,-0.5384,-0.5684,-0.6053,-0.6794,-0.7325,-0.7515,-0.8002,-0.8165,-0.7901,-0.7842,-0.7783,-0.7723,-0.7774,-0.772,-0.7619,-0.8309,-0.8524,-0.8421,-0.8735,-0.9001,-0.9155,-1.0069,-1.192,-1.4546,-1.8513,-2.0892,-2.2268,-2.3607,-2.4163,-2.4257,-2.4367,-2.441,-2.4364,-2.4096,-2.4027,-2.4018,-2.3771,-2.3903,-2.4169,-2.4199,-2.3852,-2.3454,-2.3454,-2.3084,-2.2729,-2.2859,-2.2885,-2.2885,-2.2885,-2.2885,-2.2885,-2.2885,-2.2885,-2.3028,-2.3385,-2.3035,-2.2543,-2.2106,-2.1924,-2.1789,-2.1789,-2.1789,-2.1848,-2.202,-1.9412,-1.7646,-1.7646,-1.7752,-1.7811,-1.7811,-1.7811,-1.7864,-1.7983,-1.8005,-1.7566,-1.6615,-1.6588,-1.6588,-1.6588,-1.6588,-1.6588,-1.6588,-1.6588,-1.6588,0.0,0.0,0.0,0.0,0.0,-0.0928,0.0,0.0,0.0,0.0,0.0,0.0,0.0,0.0,0.0,0.0,0.0,0.0,0.0,0.0,0.0,0.0,0.0,0.0,0.0,-0.3845,-0.424,-0.4599,-0.4642,-0.4943,-0.5629,-0.6388,-0.6963,-0.7334,-0.8022,-0.8268,-0.7955,-0.7901,-0.7842,-0.7726,-0.7723,-0.7568,-0.7365,-0.8206,-0.8474,-0.8271,-0.8949,-0.911,-0.8854,-0.8742,-0.9855,-1.2081,-1.6907,-1.9324,-2.0365,-2.2643,-2.3721,-2.4087,-2.4257,-2.433,-2.4293,-2.4057,-2.3946,-2.3873,-2.3638,-2.3819,-2.4083,-2.4074,-2.4142,-2.419,-2.417,-2.3422,-2.2712,-2.2712,-2.2712,-2.2712,-2.2712,-2.2712,-2.2712,-2.2712,-2.2712,-2.279,-2.3061,-2.3086,-2.2867,-2.215,-2.2036,-2.1978,-2.1819,-2.1789,-2.1789,-2.1789,-1.9729,-1.8112,-1.7556,-1.7646,-1.7766,-1.7811,-1.7811,-1.7811,-1.7811,-1.7811,-1.7511,-1.6917,-1.6917,-1.6823,-1.6588,-1.6588,-1.6588,-1.6588,-1.6543,-1.6543,0.0,0.0,0.0,0.0,-0.0484,0.0,0.0,0.0,0.0,0.0,0.0,0.0,0.0,0.0,0.0,0.0,0.0,0.0,0.0,0.0,0.0,0.0,0.0,0.0,0.0,0.0,-0.3779,-0.4288,-0.4191,-0.4347,-0.4915,-0.6097,-0.6783,-0.6716,-0.7816,-0.8321,-0.8168,-0.8008,-0.7901,-0.7898,-0.7783,-0.7619,-0.7521,-0.8259,-0.8524,-0.8424,-0.9103,-0.9312,-0.9162,-0.9008,-0.9065,-0.9532,-1.2725,-1.6492,-2.0194,-2.0978,-2.2391,-2.3928,-2.4016,-2.4075,-2.4104,-2.3967,-2.3801,-2.3638,-2.3549,-2.3594,-2.366,-2.3658,-2.3917,-2.417,-2.4045,-2.3353,-2.2712,-2.2712,-2.2712,-2.2712,-2.2712,-2.2712,-2.2712,-2.2712,-2.2712,-2.279,-2.3061,-2.3086,-2.3061,-2.2977,-2.2944,-2.2669,-2.1899,-2.1789,-2.1789,-2.1789,-2.1499,-2.0293,-1.773,-1.753,-1.7607,-1.7789,-1.7811,-1.7811,-1.7811,-1.7811,-1.7864,-1.8013,-1.8013,-1.7557,-1.6588,-1.6588,-1.6588,-1.6588,-1.6344,-1.6324,0.0,0.0,0.0,0.0,0.0,0.0,-0.0339,0.0,-0.0333,0.0,0.0,0.0,0.0,0.0,0.0,0.0,0.0,0.0,0.0,0.0,0.0,0.0,0.0,0.0,0.0,0.0,0.0,0.0,0.0,-0.3873,-0.4249,-0.5372,-0.6188,-0.6565,-0.7338,-0.7838,-0.8221,-0.8008,-0.7901,-0.7901,-0.7842,-0.7943,-0.815,-0.853,-0.8791,-0.8995,-0.9357,-0.9462,-0.9312,-0.9159,-0.9061,-0.9048,-1.0555,-1.3219,-1.6558,-1.9385,-2.1184,-2.237,-2.3547,-2.4016,-2.4045,-2.3765,-2.3436,-2.3199,-2.3151,-2.3277,-2.3422,-2.3427,-2.3804,-2.4199,-2.4122,-2.3307,-2.246,-2.246,-2.2587,-2.2667,-2.2515,-2.246,-2.2506,-2.2659,-2.2712,-2.2738,-2.2859,-2.2859,-2.2859,-2.2859,-2.2859,-2.2799,-2.2589,-2.2121,-2.1789,-2.1789,-2.1789,-2.0621,-1.7755,-1.7506,-1.753,-1.7631,-1.7729,-1.7811,-1.7811,-1.7811,-1.7856,-1.7961,-1.8108,-1.7658,-1.6588,-1.6588,-1.6588,-1.6596,-1.639,-1.6379,-0.0825,0.0,0.0,0.0,0.0,0.0,0.0,0.0,0.0,0.0,0.0,0.0,0.0,0.0,0.0,0.0,0.0,0.0,0.0,0.0,0.0,0.0,0.0,0.0,0.0,0.0,0.0,0.0,0.0,-0.3409,-0.3878,-0.481,-0.5587,-0.6268,-0.6856,-0.743,-0.7942,-0.7919,-0.7901,-0.7901,-0.7901,-0.8052,-0.8362,-0.8745,-0.9008,-0.9201,-0.9566,-0.9569,-0.9413,-0.9312,-0.9159,-0.9008,-0.9312,-1.0641,-1.2854,-1.6932,-1.9144,-2.032,-2.1698,-2.2622,-2.3248,-2.3421,-2.3298,-2.3035,-2.2902,-2.3035,-2.3236,-2.3236,-2.3544,-2.3903,-2.3903,-2.3091,-2.231,-2.231,-2.246,-2.2542,-2.2338,-2.231,-2.2358,-2.256,-2.2587,-2.2587,-2.2587,-2.2659,-2.2712,-2.2712,-2.2712,-2.2764,-2.297,-2.229,-2.1789,-2.1789,-2.1789,-2.0944,-1.8867,-1.7938,-1.7506,-1.7506,-1.7692,-1.7811,-1.7811,-1.7811,-1.7811,-1.7811,-1.7983,-1.7712,-1.6917,-1.6641,-1.657,-1.672,-1.6525,-1.6452,0.0,0.0,0.0,-0.049,0.0,0.0,0.0,0.0,-0.0054,0.0,0.0,0.0,0.0,0.0,0.0,0.0102,0.0,0.0,0.0,0.0,0.0,0.0,0.0,0.0,0.0,0.0,0.0,0.0,0.0,0.0,-0.3937,-0.4701,-0.5208,-0.5421,-0.6578,-0.7186,-0.7246,-0.7661,-0.7901,-0.7901,-0.7901,-0.7842,-0.7777,-0.8732,-0.8998,-0.8679,-0.9577,-0.9784,-0.9413,-0.9413,-0.926,-0.9008,-0.9008,-0.9284,-1.0091,-1.3107,-1.5767,-1.7895,-1.7836,-1.921,-2.1274,-2.2887,-2.3436,-2.3387,-2.2935,-2.2885,-2.3011,-2.3011,-2.3061,-2.3135,-2.3135,-2.2712,-2.231,-2.231,-2.231,-2.231,-2.231,-2.231,-2.231,-2.231,-2.2302,-2.2302,-2.2302,-2.2533,-2.2712,-2.2712,-2.2712,-2.2712,-2.2712,-2.2166,-2.1789,-2.1789,-2.1789,-2.1756,-2.1657,-1.9089,-1.7506,-1.7506,-1.7692,-1.7811,-1.7811,-1.7811,-1.7811,-1.7811,-1.7811,-1.7789,-1.7758,-1.672,-1.6471,-1.6993,-1.6657,-1.646,0.0,0.0,0.0212,0.0108,0.0,0.0,0.0,0.0,0.0,0.0,0.0,0.0,0.0,0.0,0.0252,-0.011,-0.0021,0.0,0.0,0.0,0.0,0.0,0.0,0.0,0.0,0.0,0.0,0.0,-0.1979,0.0,0.0,-0.3758,-0.4652,-0.5718,-0.6227,-0.6896,-0.7862,-0.7906,-0.7901,-0.7901,-0.7901,-0.8106,-0.8408,-0.8527,-0.8682,-0.8876,-0.9208,-0.9267,-0.9162,-0.9312,-0.9364,-0.9263,-0.9061,-0.9312,-1.0023,-1.2267,-1.3998,-1.5503,-1.7064,-1.8907,-2.0595,-2.0704,-2.1877,-2.3173,-2.2833,-2.2764,-2.2816,-2.2816,-2.2816,-2.2633,-2.179,-2.1764,-2.1982,-2.1982,-2.2152,-2.231,-2.231,-2.231,-2.231,-2.231,-2.231,-2.231,-2.231,-2.2394,-2.2487,-2.2659,-2.2712,-2.2712,-2.2712,-2.2694,-2.2455,-2.1869,-2.1789,-2.1789,-2.1789,-1.9173,-1.7506,-1.7506,-1.7561,-1.7607,-1.7607,-1.7729,-1.7811,-1.7811,-1.7811,-1.7811,-1.7811,-1.7167,-1.6968,-1.7117,-1.6709,-1.6479,0.0048,0.019,0.0,0.0163,0.0304,0.0,0.0547,0.0,0.0,0.0,0.0,0.0,0.0,0.0,0.0,0.0,0.0045,0.0,0.0,0.0,0.0,0.0,0.0,0.0,0.0,0.0,-0.132,-0.1703,0.0,0.0,0.0,0.0,-0.3906,-0.4931,-0.5646,-0.6467,-0.7396,-0.775,-0.7901,-0.7901,-0.7901,-0.8109,-0.8468,-0.8368,-0.8524,-0.8774,-0.905,-0.911,-0.911,-0.9361,-0.9465,-0.9361,-0.9159,-0.926,-0.9698,-1.0978,-1.2047,-1.314,-1.5451,-1.7154,-1.8418,-1.9127,-2.0459,-2.1922,-2.2737,-2.2952,-2.2885,-2.2738,-2.2712,-2.2508,-2.1697,-2.1794,-2.2023,-2.1562,-2.1797,-2.2143,-2.2192,-2.22,-2.2237,-2.2282,-2.231,-2.231,-2.231,-2.231,-2.2386,-2.2659,-2.2712,-2.2712,-2.2712,-2.2936,-2.2893,-2.2318,-2.2254,-2.1728,-2.0368,-1.8576,-1.7506,-1.7506,-1.7506,-1.7506,-1.7506,-1.7622,-1.7683,-1.7683,-1.7766,-1.7811,-1.7811,-1.7534,-1.7321,-1.7117,-1.6631,-1.6425]}]]